[[{"header":{"parameterUnit":"m.s-1","parameterCategory":1,"la1":30.6,"la2":29.2853,"lo1":-89.7004,"lo2":-87.6739,"dy":0.0162,"dx":0.0183,"nx":112,"ny":82,"refTime":"2023-03-12T06:00:00:Z","depth":0,"parameterNumber":2,"parameterNumberName":"U-component_of_WINDS"},"data":[0.0,0.0,0.0,0.0,0.0,0.0,0.0,0.0,0.0,0.0,0.0,0.0,0.0,0.0,0.0,0.0,0.0,0.0,0.0,0.0,0.0,0.0,0.0,0.0,0.0,0.0,0.0,0.0,0.0,0.0,0.0,0.0,0.0,0.0,0.0,0.0,0.0,0.0,0.0,0.0,0.0,0.0,0.0,0.0,0.0,0.0,0.0,0.0,0.0,0.0,0.0,0.0,0.0,0.0,0.0,0.0,0.0,0.0,0.0,0.0,0.0,0.0,0.0,0.0,0.0,0.0,0.0,0.0,0.0,0.0,0.0,0.0,0.0,0.0,0.0,0.0,0.0,0.0,0.0,0.0,0.0,0.0,0.0,0.0,0.0,0.0,0.0,0.0,0.0,0.0,6.0735,6.7914,7.8956,8.5286,8.3997,8.0996,7.5195,6.5863,0.0,0.0,0.0,0.0,0.0,0.0,0.0,0.0,0.0,0.0,0.0,0.0,0.0,0.0,0.0,0.0,0.0,0.0,0.0,0.0,0.0,0.0,0.0,0.0,0.0,0.0,0.0,0.0,0.0,0.0,0.0,0.0,0.0,0.0,0.0,0.0,0.0,0.0,0.0,0.0,0.0,0.0,0.0,0.0,0.0,0.0,0.0,0.0,0.0,0.0,0.0,0.0,0.0,0.0,0.0,0.0,0.0,0.0,0.0,0.0,0.0,0.0,0.0,0.0,0.0,0.0,0.0,0.0,0.0,0.0,0.0,0.0,0.0,0.0,0.0,0.0,0.0,0.0,0.0,0.0,0.0,0.0,0.0,0.0,0.0,0.0,0.0,0.0,0.0,0.0,0.0,0.0,0.0,0.0,0.0,0.0,0.0,0.0,0.0,0.0,0.0,0.0,0.0,0.0,6.4543,7.7135,8.2805,8.5954,8.6566,8.0882,7.5145,7.004,0.0,0.0,0.0,0.0,0.0,0.0,0.0,0.0,0.0,0.0,0.0,0.0,0.0,0.0,0.0,0.0,0.0,0.0,0.0,0.0,0.0,0.0,0.0,0.0,0.0,0.0,0.0,0.0,0.0,0.0,0.0,0.0,0.0,0.0,0.0,0.0,0.0,0.0,0.0,0.0,0.0,0.0,0.0,0.0,0.0,0.0,0.0,0.0,0.0,0.0,0.0,0.0,0.0,0.0,0.0,0.0,0.0,0.0,0.0,0.0,0.0,0.0,0.0,0.0,0.0,0.0,0.0,0.0,0.0,0.0,0.0,0.0,0.0,0.0,0.0,0.0,0.0,0.0,0.0,0.0,0.0,0.0,0.0,0.0,0.0,0.0,0.0,0.0,0.0,0.0,0.0,0.0,0.0,0.0,0.0,0.0,0.0,0.0,0.0,0.0,0.0,0.0,0.0,6.3386,6.9123,8.0144,8.434,8.6249,8.5824,8.0751,7.5213,6.9655,6.3243,0.0,0.0,0.0,0.0,0.0,0.0,0.0,0.0,0.0,0.0,0.0,0.0,0.0,0.0,0.0,0.0,0.0,0.0,0.0,0.0,0.0,0.0,0.0,0.0,0.0,0.0,0.0,0.0,0.0,0.0,0.0,0.0,0.0,0.0,0.0,0.0,0.0,0.0,0.0,0.0,0.0,0.0,0.0,0.0,0.0,0.0,0.0,0.0,0.0,0.0,0.0,0.0,0.0,0.0,0.0,0.0,0.0,0.0,0.0,0.0,0.0,0.0,0.0,0.0,0.0,0.0,0.0,0.0,0.0,0.0,0.0,0.0,0.0,0.0,0.0,0.0,0.0,0.0,0.0,0.0,0.0,0.0,0.0,0.0,0.0,0.0,0.0,0.0,0.0,0.0,0.0,0.0,0.0,0.0,0.0,0.0,0.0,0.0,0.0,0.0,0.0,0.0,6.8851,7.3079,8.131,8.469,8.5883,8.47,7.9736,7.4392,6.9069,6.172,0.0,0.0,0.0,0.0,0.0,0.0,0.0,0.0,0.0,0.0,0.0,0.0,0.0,0.0,0.0,0.0,0.0,0.0,0.0,0.0,0.0,0.0,0.0,0.0,0.0,0.0,0.0,0.0,0.0,0.0,0.0,0.0,0.0,0.0,0.0,0.0,0.0,0.0,0.0,0.0,0.0,0.0,0.0,0.0,0.0,0.0,0.0,0.0,0.0,0.0,0.0,0.0,0.0,0.0,0.0,0.0,0.0,0.0,0.0,0.0,0.0,0.0,0.0,0.0,0.0,0.0,0.0,0.0,0.0,0.0,0.0,0.0,0.0,0.0,0.0,0.0,0.0,0.0,0.0,0.0,0.0,0.0,0.0,0.0,0.0,0.0,0.0,0.0,0.0,0.0,0.0,0.0,0.0,0.0,0.0,0.0,0.0,0.0,0.0,0.0,0.0,0.0,7.0072,7.5288,8.2281,8.3951,8.4599,8.4583,7.7004,7.1737,7.0587,5.9573,0.0,0.0,0.0,0.0,0.0,0.0,0.0,0.0,0.0,0.0,0.0,0.0,0.0,0.0,0.0,0.0,0.0,0.0,0.0,0.0,0.0,0.0,0.0,0.0,0.0,0.0,0.0,0.0,0.0,0.0,0.0,0.0,0.0,0.0,0.0,0.0,0.0,0.0,0.0,0.0,0.0,0.0,0.0,0.0,0.0,0.0,0.0,0.0,0.0,0.0,0.0,0.0,0.0,0.0,0.0,0.0,0.0,0.0,0.0,0.0,0.0,0.0,0.0,0.0,0.0,0.0,0.0,0.0,0.0,0.0,0.0,0.0,0.0,0.0,0.0,0.0,0.0,0.0,0.0,0.0,0.0,0.0,0.0,0.0,0.0,0.0,0.0,0.0,0.0,0.0,0.0,0.0,0.0,0.0,0.0,0.0,0.0,0.0,0.0,0.0,0.0,0.0,7.0072,7.4727,8.1621,8.3563,8.4209,8.3802,7.837,7.3537,7.0084,0.0,0.0,0.0,0.0,0.0,0.0,0.0,0.0,0.0,0.0,0.0,0.0,0.0,0.0,0.0,0.0,0.0,0.0,0.0,0.0,0.0,0.0,0.0,0.0,0.0,0.0,0.0,0.0,0.0,0.0,0.0,0.0,0.0,0.0,0.0,0.0,0.0,0.0,0.0,0.0,0.0,0.0,0.0,0.0,0.0,0.0,0.0,0.0,0.0,0.0,0.0,0.0,0.0,0.0,0.0,0.0,0.0,0.0,0.0,0.0,0.0,0.0,0.0,0.0,0.0,0.0,0.0,0.0,0.0,0.0,0.0,0.0,0.0,0.0,0.0,0.0,0.0,0.0,0.0,0.0,0.0,0.0,0.0,0.0,0.0,0.0,0.0,0.0,0.0,0.0,0.0,0.0,0.0,0.0,0.0,0.0,0.0,0.0,0.0,0.0,0.0,0.0,6.6228,7.0072,7.4438,8.0805,8.2763,8.3453,8.2944,7.7732,7.304,6.9616,0.0,0.0,0.0,0.0,0.0,0.0,0.0,0.0,0.0,0.0,0.0,0.0,0.0,0.0,0.0,0.0,0.0,0.0,0.0,0.0,0.0,0.0,0.0,0.0,0.0,0.0,0.0,0.0,0.0,0.0,0.0,0.0,0.0,0.0,0.0,0.0,0.0,0.0,0.0,0.0,0.0,0.0,0.0,0.0,0.0,0.0,0.0,0.0,0.0,0.0,0.0,0.0,0.0,0.0,0.0,0.0,0.0,0.0,0.0,0.0,0.0,0.0,0.0,0.0,0.0,0.0,0.0,0.0,0.0,0.0,0.0,0.0,0.0,0.0,0.0,0.0,0.0,0.0,0.0,0.0,0.0,0.0,0.0,0.0,0.0,0.0,0.0,0.0,0.0,0.0,0.0,0.0,0.0,0.0,0.0,0.0,0.0,0.0,0.0,0.0,0.0,0.0,6.5607,7.0261,7.4861,8.0028,8.1438,8.2034,8.2092,7.4246,6.9334,0.0,0.0,0.0,0.0,0.0,0.0,0.0,0.0,0.0,0.0,0.0,0.0,0.0,0.0,0.0,0.0,0.0,0.0,0.0,0.0,0.0,0.0,0.0,0.0,0.0,0.0,0.0,0.0,0.0,0.0,0.0,0.0,0.0,0.0,0.0,0.0,0.0,0.0,0.0,0.0,0.0,0.0,0.0,0.0,0.0,0.0,0.0,0.0,0.0,0.0,0.0,0.0,0.0,0.0,0.0,0.0,0.0,0.0,0.0,0.0,0.0,0.0,0.0,0.0,0.0,0.0,0.0,0.0,0.0,0.0,0.0,0.0,0.0,0.0,0.0,0.0,0.0,0.0,0.0,0.0,0.0,0.0,0.0,0.0,0.0,0.0,0.0,0.0,0.0,0.0,0.0,0.0,0.0,0.0,0.0,0.0,0.0,0.0,0.0,0.0,0.0,0.0,0.0,6.5607,6.9717,7.3967,7.9134,8.1088,8.2034,8.2092,7.5379,7.0623,6.9455,0.0,0.0,0.0,0.0,0.0,0.0,0.0,0.0,0.0,0.0,0.0,0.0,0.0,0.0,0.0,0.0,0.0,0.0,0.0,0.0,0.0,0.0,0.0,0.0,0.0,0.0,0.0,0.0,0.0,0.0,0.0,0.0,0.0,0.0,0.0,0.0,0.0,0.0,0.0,0.0,0.0,0.0,0.0,0.0,0.0,0.0,0.0,0.0,0.0,0.0,0.0,0.0,0.0,0.0,0.0,0.0,0.0,0.0,0.0,0.0,0.0,0.0,0.0,0.0,0.0,0.0,0.0,0.0,0.0,0.0,0.0,0.0,0.0,0.0,0.0,0.0,0.0,0.0,0.0,0.0,0.0,0.0,0.0,0.0,0.0,0.0,0.0,0.0,0.0,0.0,0.0,0.0,0.0,0.0,0.0,0.0,0.0,0.0,0.0,0.0,0.0,0.0,6.574,7.0105,7.435,7.8847,8.0974,8.2062,8.2125,7.6172,7.1278,6.8557,0.0,0.0,0.0,0.0,0.0,0.0,0.0,0.0,0.0,0.0,0.0,0.0,0.0,0.0,0.0,0.0,0.0,0.0,0.0,0.0,0.0,0.0,0.0,0.0,0.0,0.0,0.0,0.0,0.0,0.0,0.0,0.0,0.0,0.0,0.0,0.0,0.0,0.0,0.0,0.0,0.0,0.0,0.0,0.0,0.0,0.0,0.0,0.0,0.0,0.0,0.0,0.0,0.0,0.0,0.0,0.0,0.0,0.0,0.0,0.0,0.0,0.0,0.0,0.0,0.0,0.0,0.0,0.0,0.0,0.0,0.0,0.0,0.0,0.0,0.0,0.0,0.0,0.0,0.0,0.0,0.0,0.0,0.0,0.0,0.0,0.0,0.0,0.0,0.0,0.0,0.0,0.0,0.0,0.0,0.0,0.0,0.0,0.0,0.0,0.0,0.0,0.0,6.5926,7.0937,7.5432,7.9013,8.1039,8.212,8.2187,7.6739,7.1558,6.742,0.0,0.0,0.0,0.0,0.0,0.0,0.0,0.0,0.0,0.0,0.0,0.0,0.0,0.0,0.0,0.0,0.0,0.0,0.0,0.0,0.0,0.0,0.0,0.0,0.0,0.0,0.0,0.0,0.0,0.0,0.0,0.0,0.0,0.0,0.0,0.0,0.0,0.0,0.0,0.0,0.0,0.0,0.0,0.0,0.0,0.0,0.0,0.0,0.0,0.0,0.0,0.0,0.0,0.0,0.0,0.0,0.0,0.0,0.0,0.0,4.7596,0.0,0.0,0.0,0.0,0.0,0.0,0.0,0.0,0.0,0.0,0.0,0.0,0.0,0.0,0.0,0.0,0.0,0.0,0.0,0.0,0.0,0.0,0.0,0.0,0.0,0.0,0.0,0.0,0.0,0.0,0.0,0.0,0.0,0.0,0.0,0.0,0.0,0.0,0.0,0.0,0.0,6.584,7.0416,7.4771,7.8935,8.1039,8.212,8.2187,7.6739,7.2339,6.9996,6.2618,0.0,0.0,0.0,0.0,0.0,0.0,0.0,0.0,0.0,0.0,0.0,0.0,0.0,0.0,0.0,0.0,0.0,0.0,0.0,0.0,0.0,0.0,0.0,0.0,0.0,0.0,0.0,0.0,0.0,0.0,0.0,0.0,0.0,0.0,0.0,0.0,0.0,0.0,0.0,0.0,0.0,0.0,0.0,0.0,0.0,0.0,0.0,0.0,0.0,0.0,0.0,0.0,0.0,0.0,0.0,0.0,0.0,0.0,0.0,0.0,5.0538,0.0,0.0,0.0,0.0,0.0,0.0,0.0,0.0,0.0,0.0,0.0,0.0,0.0,0.0,0.0,0.0,0.0,0.0,0.0,0.0,0.0,0.0,0.0,0.0,0.0,0.0,0.0,0.0,0.0,0.0,0.0,0.0,0.0,0.0,0.0,0.0,0.0,0.0,0.0,0.0,6.5895,7.0261,7.4577,7.8935,8.1039,8.212,8.2187,7.7091,7.2807,7.023,6.3516,0.0,0.0,0.0,0.0,0.0,0.0,0.0,0.0,0.0,0.0,0.0,0.0,0.0,0.0,0.0,0.0,0.0,0.0,0.0,0.0,0.0,0.0,0.0,0.0,0.0,0.0,0.0,0.0,0.0,0.0,0.0,0.0,0.0,0.0,0.0,0.0,0.0,0.0,0.0,0.0,0.0,0.0,0.0,0.0,0.0,0.0,0.0,0.0,0.0,0.0,0.0,0.0,0.0,6.1006,6.2274,6.4969,6.3813,6.3192,6.2973,6.1312,5.6719,5.0738,5.398,0.0,0.0,0.0,0.0,0.0,0.0,0.0,0.0,0.0,0.0,0.0,0.0,0.0,0.0,0.0,0.0,0.0,0.0,0.0,0.0,0.0,0.0,0.0,0.0,5.812,5.6395,0.0,0.0,0.0,0.0,0.0,0.0,0.0,0.0,0.0,0.0,0.0,0.0,6.577,7.0277,7.4748,7.8971,8.1047,8.2125,8.2226,7.7907,7.3783,7.0504,6.5312,6.0393,0.0,0.0,0.0,0.0,0.0,0.0,0.0,0.0,0.0,0.0,0.0,0.0,0.0,0.0,0.0,0.0,0.0,0.0,0.0,0.0,0.0,0.0,0.0,0.0,0.0,0.0,0.0,0.0,0.0,0.0,0.0,0.0,4.9016,4.8311,0.0,0.0,0.0,0.0,0.0,0.0,0.0,0.0,0.0,0.0,0.0,0.0,0.0,6.1456,6.3867,6.5522,6.647,6.6694,6.8053,6.8933,6.9398,7.0563,7.0756,7.0157,7.1471,0.0,5.7536,5.5937,0.0,0.0,0.0,0.0,0.0,0.0,0.0,0.0,0.0,0.0,0.0,0.0,0.0,0.0,0.0,0.0,0.0,0.0,0.0,0.0,0.0,0.0,5.4437,5.8201,5.9451,5.9487,0.0,5.7069,5.6085,5.5903,5.4248,0.0,0.0,0.0,0.0,0.0,0.0,0.0,6.511,7.0432,7.5415,7.9111,8.1038,8.2136,8.2276,7.9567,7.6711,7.4017,6.8318,6.4453,6.3008,5.8011,0.0,0.0,0.0,0.0,0.0,0.0,0.0,0.0,0.0,0.0,0.0,0.0,0.0,0.0,0.0,0.0,0.0,0.0,0.0,0.0,0.0,0.0,0.0,0.0,0.0,0.0,0.0,0.0,0.0,4.945,5.1093,4.7811,5.1086,5.2365,0.0,0.0,0.0,0.0,0.0,0.0,0.0,0.0,0.0,6.1629,6.5422,6.7945,6.9007,7.1986,7.3762,7.4286,7.5834,7.6626,7.6746,7.7334,7.745,7.7169,7.81,7.5452,6.9992,6.4687,6.0738,5.7887,0.0,0.0,0.0,0.0,5.6191,5.6861,5.6614,5.6202,0.0,5.601,0.0,0.0,0.0,0.0,0.0,0.0,0.0,0.0,0.0,0.0,5.93,6.322,6.4434,6.4704,6.4848,6.3178,6.0582,0.0,5.6207,5.6236,5.6926,0.0,0.0,0.0,0.0,6.2546,6.6198,7.1054,7.5549,7.904,8.0991,8.212,8.2186,7.9867,7.7687,7.6047,7.0348,6.5975,6.3672,6.0549,5.8246,0.0,0.0,0.0,0.0,0.0,0.0,0.0,0.0,0.0,0.0,0.0,0.0,0.0,0.0,0.0,0.0,0.0,0.0,0.0,0.0,0.0,0.0,0.0,0.0,0.0,0.0,0.0,0.0,5.1523,5.3476,4.8516,5.3671,5.5729,0.0,0.0,0.0,0.0,0.0,0.0,5.9435,6.4297,6.7487,6.8471,7.2226,7.4609,7.5427,7.8663,8.0786,8.1693,8.2522,8.3126,8.3429,8.3266,8.3111,8.2948,8.3141,8.2249,8.0059,7.2536,6.666,6.2287,6.1193,6.0116,5.9244,6.0041,6.0839,6.1578,6.1781,6.1244,6.0429,5.9838,0.0,5.5551,5.4312,0.0,0.0,0.0,0.0,5.7187,5.9724,6.1545,6.3823,6.8357,6.945,6.9606,7.027,6.8718,6.5461,0.0,5.8827,5.906,5.8636,0.0,0.0,0.0,0.0,6.3012,6.7557,7.187,7.5849,7.9282,8.1109,8.2104,8.212,8.0034,7.835,7.7492,7.2417,6.8005,6.4765,6.3164,6.0354,5.6059,0.0,0.0,0.0,0.0,0.0,0.0,0.0,0.0,0.0,0.0,0.0,0.0,0.0,0.0,0.0,0.0,0.0,0.0,0.0,0.0,0.0,0.0,0.0,0.0,0.0,0.0,0.0,0.0,0.0,5.2891,5.918,0.0,0.0,0.0,0.0,6.1928,6.3714,6.545,6.7221,6.9951,7.2962,7.6245,7.9062,8.207,8.5234,8.6327,8.7156,8.7835,8.7133,8.7189,8.7885,8.784,8.742,8.6648,8.6767,8.5895,8.3744,7.6165,7.2378,7.0933,6.6873,6.568,6.609,6.4513,6.4497,6.4973,6.33,6.2147,6.1834,6.4249,6.326,6.0655,5.8279,5.8075,0.0,0.0,5.8683,6.0657,6.3277,6.4682,6.6678,7.1831,7.3041,7.3041,7.308,7.2291,7.0039,0.0,6.1837,6.0425,6.111,0.0,5.9904,6.0021,6.2857,6.5926,6.8684,7.2763,7.6754,8.0247,8.1499,8.212,8.2187,8.0609,7.9248,7.839,7.4993,7.187,6.9176,6.5936,6.3282,6.1369,5.8207,0.0,0.0,0.0,0.0,0.0,0.0,0.0,0.0,0.0,0.0,0.0,0.0,0.0,0.0,0.0,0.0,0.0,0.0,0.0,0.0,0.0,0.0,0.0,0.0,0.0,0.0,0.0,0.0,6.2734,6.8047,0.0,6.4778,6.4645,6.5216,6.6151,6.9779,7.2509,7.3835,7.7832,8.0953,8.2811,8.4882,8.6523,8.7734,8.9648,9.0192,8.9383,9.0,8.9878,8.9224,8.902,8.8755,8.8512,8.8071,8.7554,8.6691,8.2421,7.8852,7.5891,7.3822,7.2475,7.1755,7.1639,7.1786,7.2,7.1833,7.1237,7.0222,6.8449,6.5728,6.2914,6.147,6.1627,6.2233,6.1921,6.349,6.574,6.7772,6.9445,7.1285,7.4212,7.4915,7.4915,7.4915,7.4657,7.37,7.1249,6.7776,6.525,6.5503,6.3906,6.3168,6.4799,6.6081,6.7985,7.1131,7.4783,7.7809,7.9625,8.1197,8.2104,8.2125,8.011,7.8507,7.7609,7.3822,7.0699,6.8669,6.5819,6.293,6.008,5.7777,5.645,0.0,0.0,0.0,0.0,0.0,0.0,0.0,0.0,0.0,0.0,0.0,0.0,0.0,0.0,0.0,0.0,0.0,0.0,0.0,0.0,0.0,0.0,0.0,0.0,0.0,0.0,6.8164,6.9336,7.457,7.6328,7.1953,7.1802,7.2355,7.3192,7.6613,7.9352,8.0928,8.4147,8.669,8.8257,8.941,9.0305,9.089,9.2496,9.2765,9.1721,9.2599,9.251,9.152,9.1292,9.1043,9.0707,8.993,8.9313,8.8681,8.6789,8.4211,8.1278,7.9522,7.8132,7.7178,7.7693,7.7833,7.7775,7.7685,7.73,7.6115,7.1924,6.9009,6.6873,6.539,6.5556,6.6221,6.6186,6.789,7.0093,7.1866,7.3437,7.4974,7.6717,7.6906,7.6672,7.6672,7.6438,7.6063,7.5468,7.251,6.9869,6.9228,6.7719,6.7052,6.8412,6.8878,7.0199,7.3385,7.6259,7.8435,7.96,8.1165,8.1981,8.1708,7.992,7.8233,7.675,7.3197,7.0074,6.7771,6.578,6.3243,6.0041,5.7465,5.602,5.5708,0.0,0.0,0.0,0.0,0.0,0.0,0.0,0.0,0.0,0.0,0.0,0.0,0.0,0.0,0.0,0.0,0.0,0.0,0.0,0.0,0.0,0.0,0.0,6.0253,6.7294,7.2263,7.2539,7.8515,8.0937,7.664,7.8476,8.0978,8.3465,8.4363,8.5949,8.8515,8.8671,8.9886,9.238,9.2595,9.3497,9.5176,9.5168,9.5142,9.5099,9.5118,9.5039,9.4847,9.4874,9.4349,9.3374,9.2532,9.1287,8.9711,8.894,8.8156,8.7095,8.3777,8.245,8.2456,8.2378,8.2258,8.1936,8.0173,7.9505,7.8798,7.4796,7.3392,7.2783,7.0236,7.0029,7.0676,7.0557,7.1835,7.3592,7.5371,7.6433,7.7537,7.9265,7.9053,7.8429,7.8429,7.7765,7.7156,7.7108,7.573,7.3999,7.216,7.1796,7.1458,7.0626,7.1209,0.0,7.5249,7.7036,7.8707,8.0416,8.1516,8.174,8.0888,8.0037,7.8468,7.5852,7.3236,7.0309,6.6912,6.5936,6.4258,6.1681,5.7543,5.4966,5.4068,0.0,0.0,0.0,0.0,0.0,0.0,0.0,0.0,0.0,0.0,0.0,0.0,0.0,0.0,0.0,0.0,0.0,0.0,0.0,0.0,0.0,0.0,6.4549,6.7394,7.3426,7.9407,8.4453,8.7851,8.9297,8.8086,8.8047,8.8356,8.9071,9.049,9.164,9.239,9.3007,9.3664,9.4352,9.4373,9.4655,9.5137,9.573,9.5736,9.5112,9.5697,9.5265,9.3981,9.4562,9.4301,9.3353,9.2482,9.1934,9.1421,8.9378,8.8437,8.8188,8.6627,8.6002,8.5924,8.5278,8.4604,8.3901,8.3347,8.1987,8.0417,7.9882,7.8437,7.6714,7.5946,7.6271,7.678,7.6077,7.6738,7.774,7.8252,7.8635,7.9023,7.9529,7.9473,7.9326,7.9326,7.9131,7.8981,7.8957,7.8514,7.7559,7.5718,7.491,7.4587,7.4917,7.4667,0.0,7.7075,7.828,7.9367,8.0494,8.1467,8.1675,8.0882,7.8356,7.5733,7.3203,6.9489,6.6912,6.5975,6.3906,6.1837,5.9846,5.8675,5.7348,0.0,0.0,0.0,0.0,0.0,0.0,0.0,0.0,0.0,0.0,0.0,0.0,0.0,0.0,0.0,0.0,0.0,0.0,0.0,0.0,0.0,0.0,6.6934,7.2096,7.6427,8.0104,8.4802,9.1405,9.3398,9.4374,9.4715,9.4286,9.3976,9.3981,9.4918,9.5343,9.4962,9.5417,9.5847,9.6178,9.6178,9.6367,9.6738,9.7245,9.705,9.6191,9.6665,9.6328,9.5294,9.569,9.5367,0.0,9.3959,9.321,9.2209,9.0711,8.9765,0.0,0.0,0.0,0.0,0.0,8.6245,8.5742,8.5341,8.4253,8.3007,8.2807,8.1475,7.9917,7.9448,7.9366,7.9315,7.8752,7.8961,7.9505,7.9871,8.0085,8.0234,8.0657,8.0484,8.0224,8.0224,7.9951,7.9717,7.9717,7.9977,0.0,7.8659,7.7774,7.7313,7.7732,7.7386,7.7425,7.8435,7.929,8.0028,8.0572,8.1438,8.1683,8.0882,7.835,0.0,0.0,0.0,6.6405,6.4609,6.2696,0.0,0.0,0.0,5.8792,5.7113,0.0,0.0,0.0,5.6013,5.5751,0.0,0.0,0.0,0.0,0.0,0.0,0.0,0.0,0.0,0.0,0.0,0.0,0.0,0.0,0.0,0.0,7.2731,7.9176,8.6086,8.7111,8.9222,9.4804,9.6328,9.7221,9.7916,9.7987,9.7994,9.7984,9.7989,9.7676,9.6895,0.0,0.0,0.0,0.0,9.8377,9.9158,9.9041,9.8612,9.7831,9.7753,9.7594,9.7461,9.7438,9.69,9.6005,9.6005,9.4714,9.2574,9.2457,9.1437,8.9828,8.8188,8.7486,8.7375,8.7338,8.7304,8.7186,8.6444,0.0,0.0,8.4263,8.323,8.2383,8.1364,8.054,7.9867,7.9617,7.9622,7.989,8.0712,8.1003,8.1248,8.2081,8.1714,8.1161,8.1161,8.0537,7.999,7.999,8.0615,8.1117,8.0992,8.0172,7.9546,7.9442,7.9367,7.9328,7.9445,8.0105,8.0649,8.0727,0.0,0.0,8.0882,7.9167,7.6795,7.3632,7.0894,6.7576,6.3477,6.2657,6.1837,6.0861,6.0744,5.9885,5.8246,5.7504,5.7543,5.8285,5.9449,5.8395,0.0,0.0,0.0,0.0,0.0,0.0,0.0,0.0,0.0,0.0,0.0,0.0,0.0,0.0,0.0,7.2225,7.8157,8.4753,9.2336,9.3979,9.5106,9.6992,9.8614,9.9633,9.9781,9.9797,9.9783,9.979,9.979,9.9712,9.9556,9.9556,9.9627,9.9783,9.9783,9.9861,10.0017,9.9353,9.8924,9.8729,0.0,0.0,9.6562,9.7264,9.7051,9.6167,9.6167,9.5508,9.4373,9.2968,9.1437,8.9906,8.8852,8.8032,8.7407,8.7381,8.7387,8.7347,8.7191,8.6684,8.602,8.5696,8.5026,8.4023,8.2419,8.2265,0.0,8.0846,8.1002,8.1594,8.1733,8.1876,8.1992,8.2186,8.2129,8.2059,8.2059,8.1903,8.1786,8.1786,8.1942,8.2003,8.1953,8.1144,8.0505,8.0353,7.9756,7.9562,8.0261,8.0494,8.0882,8.1582,8.1813,8.1608,8.0875,7.8591,7.6321,7.4374,7.1206,6.8122,6.5234,6.5546,6.5116,6.3594,6.2852,6.1993,6.0939,6.0783,6.0783,6.09,5.9098,5.8276,0.0,0.0,0.0,0.0,0.0,0.0,0.0,0.0,0.0,0.0,0.0,6.1637,6.336,0.0,7.4598,7.8449,8.4536,9.0393,9.5157,9.7252,9.8682,9.9541,10.0383,10.1098,10.1488,10.1586,10.1618,10.1618,10.1618,10.1383,10.0915,10.0915,10.0915,10.0915,10.0915,10.0915,10.0915,10.0485,10.0017,9.9666,9.9197,9.8749,9.8305,9.867,9.8396,9.7563,9.7563,9.6596,9.4883,9.3156,9.1731,9.0609,9.0179,8.9203,8.7993,8.7564,8.7407,8.7407,8.7407,8.7095,8.6744,8.6744,8.6158,8.5306,8.4433,8.3784,8.3202,8.231,8.2081,8.2132,8.2104,8.2184,8.2253,8.2253,8.2276,8.2293,8.2293,8.2293,8.2293,8.2293,8.2293,8.2271,8.2226,8.1794,8.1441,8.1297,8.0941,8.0792,8.1212,8.1232,8.1426,8.1854,8.1892,8.1773,8.1499,7.9131,7.6755,7.4647,7.2104,6.9918,6.8239,6.7693,6.7068,6.6209,6.5351,6.4492,6.3633,6.4062,6.4062,6.3633,6.2716,6.1561,0.0,0.0,0.0,0.0,0.0,0.0,0.0,5.6025,5.8456,6.1737,6.5043,6.8279,7.1368,7.6722,8.1608,8.4401,9.0211,9.502,9.6886,9.9133,10.0915,10.1696,10.1813,10.2086,10.2711,10.2789,10.2906,10.2984,10.3101,10.2789,10.2281,10.2086,10.2008,10.2008,10.1813,10.1813,10.1813,10.1618,10.1188,10.0485,10.0407,10.029,10.029,9.9988,9.9529,9.8904,9.8396,9.6951,9.4881,9.321,9.2131,9.1507,9.1155,9.0179,8.8852,8.7954,8.7564,8.7407,8.7407,8.7407,8.7407,8.7407,8.6939,8.6314,8.6158,8.5097,8.3904,8.3711,8.3085,8.2459,8.2421,8.237,8.2293,8.2293,8.2293,8.2293,8.2293,8.2293,8.2293,8.2293,8.2293,8.2271,8.2221,8.2225,8.2184,8.2016,8.1999,8.1987,8.1926,8.1911,8.1892,8.1892,8.1892,8.189,8.1851,8.0037,7.7804,7.5188,7.3744,7.2534,7.148,6.9957,6.9098,6.9098,6.8083,6.7224,6.66,6.7068,6.6951,6.6366,6.699,6.5606,5.4849,5.3546,5.3828,5.6445,5.7179,5.8658,0.0,6.5282,6.6288,6.8976,7.1708,7.4168,7.6041,8.067,8.5327,8.8724,9.312,9.7011,9.9509,10.0798,10.1813,10.2593,10.2711,10.2711,10.2789,10.2789,10.3101,10.3882,10.3999,10.4194,10.4897,10.4194,10.3804,10.3804,10.3101,10.2711,10.2711,10.1891,10.15,10.1383,10.0603,10.029,10.029,9.9478,9.9055,9.886,9.6517,9.5346,9.4955,9.3231,9.2443,9.2209,9.0726,9.0023,8.975,8.8891,8.8071,8.7407,8.7407,8.7407,8.7407,8.7407,8.7329,8.7095,8.6314,8.5969,8.5635,8.4803,8.3974,8.3331,8.328,8.28,8.2293,8.2293,8.2293,8.2293,8.2293,8.2293,8.2293,8.2293,8.2293,8.2293,8.2299,8.2305,8.2256,8.2104,8.2055,8.1987,8.2013,8.1959,8.1892,8.1892,8.1892,8.1641,8.0992,8.0818,7.96,7.6984,7.6633,7.5774,7.4134,7.3197,7.2729,7.2729,7.1089,7.023,7.0113,6.945,6.9059,6.8981,6.9059,6.8066,5.8945,5.8075,5.8309,6.0776,6.3231,6.5873,6.9056,7.0507,7.2105,7.5272,7.8383,8.1233,8.3426,8.7648,9.1441,9.3394,9.694,9.9783,10.0915,10.1696,10.2086,10.1383,10.1813,10.2203,10.2789,10.2789,10.3218,10.3999,10.4116,10.4506,10.5404,10.4584,10.4116,10.4116,10.3296,10.2789,10.2789,10.2398,10.2281,10.2281,10.1891,10.1813,10.1696,10.1383,10.072,9.9588,9.6464,9.5098,9.4942,9.3224,9.2209,9.1741,9.1038,9.014,8.9125,8.8266,8.772,8.7407,8.7407,8.7407,8.7407,8.7407,8.7407,8.7329,8.6978,8.651,8.6008,8.5639,8.4536,8.3471,8.3456,8.2896,8.2293,8.2293,8.2293,8.2293,8.2293,8.2293,8.2293,8.2293,8.2293,8.2293,8.2293,8.2293,8.2271,8.2223,8.212,8.2026,8.1999,8.1937,8.1892,8.1892,8.1959,8.1899,8.1584,8.1676,8.1083,7.9483,7.9366,7.8819,7.757,7.6242,7.5501,7.5501,7.3783,7.269,7.2221,7.187,7.1675,7.1675,7.1675,7.1529,6.0898,6.1178,6.2196,6.5361,6.9172,7.2638,7.4603,7.6553,7.875,8.1608,8.4323,8.6822,8.8696,9.217,9.5176,9.6542,9.947,10.1618,10.1813,10.2008,10.1618,10.0095,10.0017,10.0407,10.1305,10.2008,10.2984,10.4389,10.4506,10.4897,10.6107,10.5092,10.4506,10.4506,10.3413,10.2789,10.2789,10.2789,10.2789,10.2789,10.2789,10.2789,10.2789,10.2593,10.15,9.9783,9.7011,9.5527,9.4942,9.3224,9.217,9.1585,9.1116,9.0179,8.8969,8.8071,8.7603,8.7407,8.7407,8.7407,8.7407,8.7407,8.7407,8.7407,8.7407,8.6978,8.6471,8.6471,8.5377,8.4167,8.3933,8.3269,8.2645,8.2645,8.2645,8.2684,8.2957,8.2996,8.2918,8.2684,8.2645,8.2567,8.2332,8.2293,8.2293,8.2293,8.2187,8.2098,8.2055,8.1968,8.1892,8.1892,8.2023,8.2098,8.2098,8.2223,8.1942,8.1044,8.1005,8.0615,7.9756,7.8507,7.7687,7.7453,7.5969,7.4798,7.3978,7.3744,7.3627,7.3627,7.3627,7.3939,5.8523,6.0311,6.3137,6.9894,7.4147,7.7804,8.2098,8.5034,8.7182,8.824,8.9164,8.9867,8.9945,9.2092,9.4669,9.7245,9.9822,10.1813,10.2593,10.1383,10.0017,9.9158,9.7558,9.6894,9.7753,10.0095,10.2593,10.5209,10.5404,10.6107,10.7786,10.6302,10.5404,10.5404,10.3687,10.2789,10.2789,10.2789,10.2789,10.2789,10.2789,10.2789,10.2789,10.1891,10.0603,9.9002,9.8026,9.666,9.4942,9.3224,9.2482,9.2287,9.0687,9.0023,8.9867,8.8969,8.8149,8.7407,8.7407,8.7407,8.7407,8.7407,8.7407,8.7407,8.7407,8.7368,8.7368,8.7368,8.6705,8.5846,8.4987,8.4128,8.3465,8.3465,8.3465,8.3699,8.4558,8.4714,8.448,8.3621,8.3465,8.323,8.245,8.2293,8.2293,8.2293,8.2256,8.2184,8.2104,8.1987,8.1892,8.1892,8.2023,8.2098,8.2098,8.2223,8.1942,8.1044,8.1005,8.0615,7.9756,7.9639,7.9209,7.839,7.7492,7.6594,7.5735,7.4876,7.4447,7.4452,7.4447,7.4486,6.2649,6.789,7.3895,7.8991,8.2918,8.6008,8.8117,8.9257,8.984,8.9606,8.7954,8.6744,8.729,8.8579,9.057,9.3732,9.7401,10.0485,10.2515,10.2281,10.0798,9.7636,9.7792,9.7558,9.6113,9.8338,10.0915,10.3491,10.4702,10.5912,10.7083,10.599,10.5404,10.5404,10.3687,10.2789,10.2789,10.2789,10.2789,10.2789,10.2789,10.2789,10.2789,10.1891,10.0915,9.9783,9.8338,9.6699,9.502,9.3849,9.2365,9.0804,9.0218,8.9281,8.8227,8.7954,8.7642,8.7407,8.7407,8.7407,8.7407,8.7407,8.7407,8.7407,8.7407,8.7407,8.7407,8.7407,8.6783,8.5885,8.5026,8.4167,8.3504,8.3504,8.3504,8.3738,8.4597,8.4792,8.4558,8.366,8.3504,8.323,8.245,8.2293,8.2293,8.2293,8.2226,8.2104,8.2026,8.1968,8.1892,8.1892,8.2023,8.2098,8.2098,8.2223,8.2176,8.1864,8.1864,8.1747,8.1435,8.0888,8.042,8.0146,7.9287,7.839,7.7531,7.6633,7.6242,7.6203,7.5618,7.5657,6.9208,7.5467,8.1757,8.6633,8.9989,9.2375,9.3281,9.3277,9.2642,9.1207,8.7642,8.4792,8.4753,8.4441,8.5416,8.9125,9.2365,9.584,9.9939,9.9705,9.8651,9.7479,9.7479,9.7206,9.6113,9.7831,10.0095,10.2593,10.4389,10.5795,10.6693,10.5912,10.5404,10.5404,10.3687,10.2789,10.2789,10.2789,10.2789,10.2789,10.2789,10.2789,10.2789,10.2203,10.1383,10.0212,9.9119,9.7284,9.502,9.4161,9.2482,9.0413,9.0101,8.9125,8.7876,8.7876,8.7681,8.7407,8.7407,8.7407,8.7407,8.7407,8.7407,8.7407,8.7407,8.7407,8.7407,8.7407,8.7017,8.6353,8.5495,8.4831,8.4441,8.4441,8.4441,8.4675,8.5534,8.5729,8.5456,8.4597,8.4441,8.4167,8.3347,8.3191,8.3191,8.3191,8.3086,8.2774,8.2104,8.1973,8.1926,8.1892,8.2023,8.2098,8.2098,8.2223,8.2293,8.2293,8.2293,8.2293,8.2293,8.1747,8.1317,8.1005,8.0459,7.96,7.839,7.7843,7.7414,7.7101,7.6516,7.6555,7.7492,8.2604,8.6757,9.2538,9.5233,9.6679,9.7381,9.6891,9.5488,9.2678,8.7915,8.3738,8.1981,7.9756,7.96,8.3972,8.5768,8.9008,9.584,9.4669,9.4591,9.8572,9.6894,9.5996,9.7558,9.8533,10.0095,10.2593,10.4389,10.5795,10.6614,10.5912,10.5404,10.5404,10.3804,10.2789,10.2789,10.2789,10.2789,10.2789,10.2789,10.2789,10.2789,10.2789,10.1891,10.0212,10.029,9.8338,9.502,9.42,9.2873,9.1272,9.0374,8.9477,8.8696,8.8657,8.811,8.7407,8.7407,8.7407,8.7407,8.7407,8.7407,8.7407,8.7407,8.7407,8.7407,8.7407,8.7407,8.7212,8.6314,8.608,8.608,8.608,8.608,8.6353,8.7212,8.7407,8.7134,8.6275,8.6041,8.5768,8.4948,8.4792,8.4792,8.4792,8.4753,8.41,8.2461,8.2182,8.209,8.2046,8.214,8.2215,8.2215,8.234,8.245,8.245,8.2371,8.2371,8.2371,8.2332,8.1903,8.1083,8.1083,8.0224,7.8546,7.8546,7.8077,7.7218,7.7218,7.7218,8.2332,8.8826,9.4928,9.7115,9.8482,9.8833,9.7115,9.5541,9.299,8.7837,8.1669,7.6281,7.3236,7.4212,7.714,8.2137,8.9047,9.5723,10.1305,10.1618,10.0915,10.0095,9.9392,9.8651,9.7792,9.908,10.0798,10.2711,10.4389,10.5482,10.5717,10.6107,10.6107,10.5404,10.4311,10.3491,10.2789,10.2789,10.2789,10.2789,10.2789,10.2789,10.2789,10.2789,10.15,9.9353,10.0017,9.8338,9.5098,9.4864,9.3732,9.2053,9.057,8.9477,8.8618,8.7954,8.7603,8.7407,8.7407,8.7407,8.7407,8.7407,8.7407,8.7407,8.7407,8.7407,8.7407,8.7407,8.7407,8.7212,8.6314,8.608,8.608,8.608,8.608,8.6353,8.7212,8.7407,8.7134,8.6275,8.5573,8.5065,8.4831,8.4792,8.4792,8.4792,8.4804,8.4596,8.4101,8.3943,8.3845,8.3856,8.3908,8.3972,8.3972,8.4098,8.4167,8.4167,8.3543,8.3191,8.3191,8.2606,8.2215,8.1981,8.1981,8.1435,8.0341,8.0341,7.9873,7.9053,7.9053,7.9053,8.9906,9.5684,10.0681,10.1618,10.1891,10.0681,9.5801,9.3341,8.9789,8.1474,7.5462,7.0816,6.7732,6.9333,7.2963,7.8546,8.5807,9.3224,10.029,10.1305,10.1618,10.2398,10.2203,10.1696,10.111,10.2008,10.2906,10.3882,10.4819,10.5599,10.599,10.6107,10.5912,10.5404,10.4194,10.3296,10.2789,10.2789,10.2789,10.2789,10.2789,10.2789,10.2789,10.2789,10.1618,9.9588,0.0,9.7987,9.5059,9.4708,9.3537,9.1858,9.0531,8.9477,8.8579,8.772,8.7407,8.7407,8.7407,8.7407,8.7407,8.7407,8.7407,8.7407,8.7407,8.7407,8.7407,8.7407,8.7407,8.729,8.6783,8.6666,8.6666,8.6666,8.6666,8.6783,8.729,8.7407,8.7368,8.7251,8.6861,8.6627,8.7017,8.6431,8.608,8.6431,8.6197,8.5936,8.5885,8.5092,8.4551,8.4494,8.4551,8.4597,8.4597,8.4723,8.4792,8.4792,8.3972,8.3504,8.3504,8.2723,8.2293,8.2293,8.2293,8.1864,8.1005,8.1005,8.0537,7.9717,7.9717,7.9717,9.8143,10.1891,10.4506,10.5404,10.4702,10.1813,9.4083,9.0609,8.5846,7.472,6.9684,6.6444,6.375,6.5194,6.8903,7.5266,8.0927,8.7876,9.7362,9.8729,10.0407,10.5014,10.4819,10.4584,10.5287,10.5404,10.5404,10.5599,10.5599,10.5912,10.6693,10.599,10.5482,10.5209,10.3608,10.2789,10.2789,10.2789,10.2789,10.2789,10.2789,10.2789,10.2789,10.2789,10.1813,10.0095,9.9314,0.0,9.5215,9.42,9.3029,9.1702,9.0609,8.9633,8.8774,8.7876,8.7564,8.7564,8.7564,8.7642,8.772,8.7486,8.7407,8.7407,8.7407,8.7407,8.7407,8.7407,8.7407,8.7407,8.7407,8.7407,8.7407,8.7407,8.7407,8.7446,8.7564,8.7642,8.7954,8.8735,8.8852,8.9125,8.9867,8.8735,8.7993,8.8774,8.8227,8.772,8.7603,8.6054,8.4934,8.488,8.4919,8.4954,8.4948,8.5075,8.5143,8.5143,8.4323,8.3855,8.3855,8.3074,8.2567,8.245,8.2567,8.2215,8.1317,8.1317,8.1005,8.0381,8.0263,8.0179,10.2203,10.4194,10.5404,10.6302,10.4194,10.0095,9.3107,8.7407,8.0654,7.0113,6.5194,6.1798,5.8558,6.2774,6.9489,7.7687,8.5182,9.3263,10.2711,10.4116,10.4702,10.6302,10.5717,10.5209,10.5404,10.5404,10.5717,10.638,10.6497,10.6497,10.6693,10.6614,10.5795,10.4389,10.3296,10.2789,10.2789,10.2789,10.2789,10.2789,10.2789,10.2789,10.2789,10.2789,10.15,9.9236,9.908,0.0,9.6035,9.4473,9.4044,9.42,9.1975,9.0531,8.9672,8.8813,8.8461,8.8461,8.8461,8.8969,8.932,8.7876,8.7407,8.7407,8.7407,8.7407,8.7407,8.7407,8.7407,8.7407,8.7407,8.7407,8.7407,8.7407,8.7407,8.7603,8.8305,8.9047,8.9594,8.975,8.975,8.9828,8.9984,8.975,8.9594,8.975,8.9633,8.9281,8.8579,8.7495,8.6826,8.6737,8.678,8.6828,8.675,8.6871,8.6939,8.6939,8.6119,8.5651,8.5651,8.4831,8.4011,8.3308,8.4011,8.3933,8.3074,8.3074,8.3347,8.3894,8.3191,8.284,10.5287,10.7083,10.8098,10.8098,10.5092,9.9431,8.9008,8.2606,7.5345,6.2735,5.9183,5.7738,5.563,6.0861,6.7576,7.3978,8.1161,8.9242,9.8729,10.0798,10.2711,10.6302,10.6693,10.6614,10.6107,10.6497,10.6693,10.6693,10.7083,10.7395,10.7395,10.6497,10.5404,10.4116,10.3296,10.2789,10.2789,10.2789,10.2789,10.2789,10.2281,10.2398,10.2789,10.1891,10.0798,9.9588,9.826,0.0,9.6269,9.4512,9.4044,9.4278,9.2561,9.1155,8.9906,8.9008,8.8696,8.8696,8.8696,8.9281,8.9789,8.8501,8.8071,8.7993,8.7525,8.7407,8.7407,8.7407,8.7407,8.7407,8.7407,8.7407,8.7407,8.7407,8.7759,8.8305,8.9203,9.0062,9.0687,9.0687,9.0687,9.0804,9.1233,9.057,9.014,9.0609,9.0296,8.9867,8.9437,8.8998,8.8512,8.8,8.8346,8.8424,8.7955,8.8007,8.783,8.7446,8.6588,8.608,8.608,8.526,8.4597,8.4167,8.4597,8.4597,8.4167,8.4167,8.4401,8.4792,8.4362,8.4167,10.759,10.9503,11.0284,10.9699,10.5912,9.8807,8.5573,7.8507,7.0816,5.7113,5.4537,5.4576,5.4108,5.887,6.457,6.9606,7.5579,8.3152,9.338,9.6464,9.9939,10.599,10.7512,10.7708,10.7005,10.759,10.7708,10.7005,10.759,10.7903,10.7708,10.6185,10.5014,10.4116,10.3296,10.2789,10.2789,10.2789,10.2789,10.2789,10.2086,10.2086,10.2711,10.1188,10.0485,10.0212,9.7714,9.6699,0.0,9.4591,9.3927,9.3966,9.2912,9.1467,8.9945,8.9437,8.9125,8.9008,8.9203,8.9828,9.0374,8.9555,8.9008,8.854,8.7642,8.7407,8.7407,8.7407,8.7407,8.7446,8.7642,8.7681,8.772,8.7915,8.8618,8.9437,9.014,9.096,9.1546,9.1546,9.1546,9.1741,9.2404,9.1389,9.0765,9.1467,9.096,9.0452,9.0296,9.0413,9.0198,8.9293,8.9567,8.956,8.8945,8.8905,8.8622,8.7993,8.7329,8.6939,8.6939,8.6119,8.5534,8.5377,8.5377,8.526,8.5065,8.5065,8.5182,8.5338,8.5182,8.5065,10.8705,11.0401,11.0518,11.0401,10.5404,9.7558,8.608,7.7101,6.8122,5.7387,5.399,5.3171,5.3873,5.6411,6.0822,6.8318,7.2651,7.9483,9.2131,9.6113,9.9939,10.599,10.7512,10.802,10.7903,10.802,10.802,10.7903,10.802,10.7708,10.6888,10.5912,10.5014,10.4116,10.3296,10.2789,10.2789,10.2789,10.2789,10.2789,10.2711,10.2711,10.2789,10.1813,10.0993,10.0212,9.8377,9.7597,0.0,9.4864,9.4278,9.4825,9.3146,9.1467,9.0101,9.0804,9.057,8.9984,9.0804,9.1585,9.2131,9.1311,8.9984,8.854,8.7642,8.7407,8.7407,8.7407,8.7407,8.7564,8.8383,8.8579,8.8774,8.9555,9.0413,9.1077,9.1155,9.1819,9.2404,9.2404,9.2404,9.2404,9.2482,9.2365,9.2287,9.2365,9.2326,9.2014,9.1272,9.1819,9.1975,9.1123,9.0426,8.9939,8.9804,8.9826,8.9834,8.975,8.9672,8.9633,8.9633,8.8813,8.7954,8.7173,8.7173,8.6783,8.5963,8.5963,8.6392,8.7134,8.6353,8.5963,10.7105,11.0518,11.1807,11.0792,10.4194,9.5176,8.448,7.4525,6.4921,5.563,5.278,5.2195,5.3053,5.4888,5.7816,6.2462,6.5234,7.0426,8.0771,8.4011,8.9086,9.9275,10.1696,10.3804,10.6888,10.7708,10.802,10.802,10.802,10.7786,10.7512,10.6185,10.5209,10.4897,10.3491,10.2789,10.2789,10.2789,10.2789,10.2789,10.2281,10.2281,10.2789,10.1383,10.0915,10.0915,9.8651,9.7714,0.0,9.5449,9.4473,9.4239,9.3537,9.2248,9.0804,9.1155,9.1077,9.0843,9.1194,9.1819,9.2365,9.1546,9.0492,8.932,8.8461,8.8188,8.8188,8.8188,8.8579,8.9047,8.9398,8.9477,8.9711,9.057,9.1038,9.1428,9.1936,9.2287,9.2482,9.2482,9.2482,9.2482,9.2482,9.2482,9.2482,9.2482,9.2482,9.2365,9.2053,9.2287,9.2365,9.2053,9.1697,9.1239,9.0759,9.0689,9.0451,9.003,8.9984,8.9984,8.9984,8.9164,8.8774,8.8969,8.7915,8.7486,8.7642,8.7134,8.7056,8.7407,8.7056,8.69,10.3612,10.9104,11.2197,11.0284,10.2789,9.3302,8.2957,7.2573,6.2774,5.442,5.1999,5.1687,5.2546,5.3717,5.5357,5.7933,6.0237,6.4531,7.269,7.593,8.1435,9.2092,9.4903,9.8065,10.3491,10.6419,10.802,10.802,10.802,10.802,10.802,10.6302,10.5482,10.5795,10.4116,10.3218,10.3218,10.2906,10.2789,10.2789,10.2203,10.2203,10.2789,10.1305,10.0798,10.0993,9.869,9.7714,0.0,9.5801,9.4747,9.4161,9.3888,9.2795,9.1311,9.1585,9.1507,9.1311,9.1585,9.2014,9.2404,9.1858,9.1077,9.0218,8.9359,8.8891,8.8735,8.9008,8.9711,9.0374,9.0374,9.057,9.0882,9.1507,9.1663,9.1819,9.2365,9.2482,9.2561,9.2834,9.2678,9.2561,9.2834,9.2678,9.2482,9.2482,9.2482,9.2482,9.2482,9.2482,9.2482,9.2482,9.2443,9.2212,9.1708,9.1584,9.1275,9.0771,9.0726,9.0726,9.0726,8.9906,8.975,9.0374,8.893,8.8461,8.9086,8.8227,8.7798,8.7798,8.7525,8.7407,9.8279,10.5914,11.1182,10.8684,10.15,9.2404,8.2059,7.1714,6.211,5.4303,5.1999,5.1687,5.2546,5.2702,5.3561,5.6216,5.9495,6.414,7.105,7.5696,8.0341,8.5573,8.7759,9.1155,9.7206,10.3999,10.802,10.802,10.802,10.802,10.802,10.6302,10.5795,10.6693,10.5014,10.4116,10.4116,10.3218,10.2789,10.2789,10.2789,10.2789,10.2789,10.1891,10.111,10.0212,9.8455,9.7714,0.0,9.5801,9.5098,9.4981,9.4122,9.2795,9.1389,9.217,9.1975,9.1428,9.2209,9.2482,9.2482,9.2482,9.1936,9.1116,9.0257,8.9398,8.8891,8.975,9.0609,9.1272,9.1272,9.1897,9.2482,9.2482,9.2482,9.2482,9.2482,9.2482,9.2756,9.3615,9.3107,9.2756,9.3654,9.3068,9.2482,9.2482,9.2482,9.2482,9.2482,9.2482,9.2482,9.2482,9.2482,9.2482,9.2482,9.2482,9.2482,9.2482,9.2482,9.2482,9.2482,9.1702,9.1272,9.1272,9.0413,8.9984,8.9984,8.9125,8.8696,8.8657,8.7798,8.7407,8.526,9.1236,9.503,9.1922,8.6912,8.0649,7.265,6.5608,5.9065,5.3053,5.1609,5.1492,5.1765,5.2312,5.3756,5.6918,5.8831,6.1915,6.7654,7.3158,7.9405,8.6978,9.6152,10.2593,10.4584,10.6693,10.802,10.802,10.802,10.802,10.802,10.7512,10.681,10.5795,10.4116,10.3218,10.3218,10.2906,10.2789,10.2789,10.2789,10.2789,10.2789,10.1891,10.1383,10.0993,9.9314,9.826,0.0,9.6464,9.5293,9.4161,9.3927,9.3107,9.2131,9.2404,9.2326,9.217,9.2404,9.2482,9.2482,9.2482,9.1546,9.057,9.1428,9.1116,9.0648,9.1467,9.1897,9.2131,9.2131,9.2326,9.2482,9.2482,9.2482,9.2482,9.2482,9.2482,9.2756,9.3615,9.3107,9.2795,9.3654,9.3068,9.2482,9.2482,9.2482,9.2482,9.2482,9.2482,9.2482,9.2482,9.2482,9.2482,9.2482,9.2482,9.2482,9.2482,9.2482,9.2482,9.2482,9.1741,9.1546,9.2092,9.0726,9.0296,9.0882,9.0023,8.9281,8.8696,8.7798,8.7407,7.522,8.1753,8.5793,8.3026,7.867,7.3475,6.7547,6.1771,5.6484,5.2216,5.1357,5.1352,5.133,5.1759,5.2935,5.541,5.764,6.0768,6.5624,7.1792,7.8897,8.7212,9.7909,10.4584,10.4584,10.7005,10.841,10.802,10.802,10.802,10.802,10.7708,10.6888,10.5404,10.4311,10.3608,10.3296,10.2984,10.2789,10.2789,10.2789,10.2593,10.2281,10.1696,10.1188,10.0485,9.9119,9.8182,0.0,9.6777,9.5567,9.4278,9.4278,9.3576,9.2482,9.2482,9.2482,9.2482,9.2482,9.2482,9.2443,9.2131,9.0882,8.975,9.1155,9.1663,9.1858,9.2365,9.2482,9.2482,9.2482,9.2482,9.2482,9.2482,9.2482,9.2482,9.2482,9.2482,9.2756,9.3615,9.3107,9.2795,9.3654,9.3341,9.299,9.299,9.3263,9.3341,9.3029,9.299,9.2873,9.2522,9.2482,9.2482,9.2482,9.2482,9.2482,9.2482,9.2482,9.2482,9.2482,9.2014,9.1975,9.2482,9.1467,9.1194,9.1741,9.0882,8.9867,8.8696,8.8149,8.772,0.0,7.5726,8.1026,7.9312,7.475,6.9605,6.5511,5.9658,0.0,5.183,5.1193,5.114,5.1259,5.1211,5.1502,5.2738,5.6347,6.0581,6.5145,7.226,7.9834,8.7564,9.5098,9.9588,9.947,10.5404,10.8918,10.8098,10.802,10.802,10.802,10.72,10.638,10.5404,10.5404,10.5014,10.3999,10.3218,10.2789,10.2789,10.2789,10.2398,10.1618,10.15,10.0603,0.0,9.8104,0.0,0.0,9.6816,9.5957,9.5098,9.5098,9.4044,9.2482,9.2482,9.2482,9.2482,9.2482,9.2443,9.2287,9.1389,9.0062,8.893,8.975,9.1077,9.2326,9.2404,9.2443,9.2482,9.2482,9.2482,9.2482,9.2482,9.2482,9.2482,9.2482,9.2482,9.2756,9.3615,9.3107,9.2795,9.3732,9.3849,9.381,9.3888,9.4591,9.4825,9.4005,9.3888,9.3576,9.2756,9.2639,9.26,9.26,9.2522,9.2482,9.2482,9.2482,9.2482,9.2482,9.2482,9.2482,9.2482,9.2482,9.2482,9.2482,9.1702,9.0452,8.8774,8.8735,8.8227,5.5862,0.0,6.2981,6.133,6.0411,5.9348,0.0,5.4833,5.2928,5.1596,5.0219,4.9893,5.1843,5.1094,5.157,5.5755,5.7875,6.119,6.7524,8.0048,9.1194,9.8338,10.3101,10.5404,10.3999,10.6614,10.8215,10.802,10.802,10.802,10.802,10.7786,10.7005,10.5404,10.5404,10.4702,10.3101,10.2906,10.2789,10.2789,10.2789,10.2711,10.2515,10.1188,10.0407,9.99,9.8377,0.0,9.7675,9.7479,9.6503,9.5098,9.5098,9.4044,9.2482,9.2482,9.2482,9.2482,9.2482,9.2092,9.1311,8.9828,8.9477,8.9711,8.9945,9.0296,9.0726,9.1389,9.2014,9.2482,9.2482,9.2482,9.2482,9.2482,9.2482,9.2482,9.2482,9.2482,9.2756,9.3615,9.3107,9.299,9.4512,9.4239,9.4044,9.4708,9.4981,9.502,9.4825,9.4786,9.4708,9.4512,9.3888,9.3497,9.3497,9.2873,9.2482,9.2482,9.2482,9.2482,9.2482,9.2482,9.2482,9.2482,9.2482,9.2482,9.2482,9.1702,9.0765,8.9672,8.9008,8.8227,4.9823,5.2956,5.5935,5.5045,5.5225,5.519,5.3479,5.2221,5.1147,5.0226,4.9283,4.9139,5.0906,5.0739,5.1683,5.5695,5.8792,6.4099,7.3899,8.413,9.3396,10.0798,10.3999,10.5912,10.6497,10.7786,10.841,10.802,10.802,10.802,10.802,10.759,10.681,10.5404,10.5014,10.4194,10.2789,10.2789,10.2593,10.2203,10.2203,10.1813,10.0993,10.0095,9.9509,9.9041,9.8104,0.0,9.7675,9.7284,9.6308,9.5059,9.4669,9.3693,9.2482,9.2482,9.2482,9.2482,9.2482,9.1702,9.0531,8.9594,8.9359,8.9398,8.9398,8.9945,9.0765,9.1624,9.217,9.2482,9.2482,9.2482,9.2482,9.2482,9.2482,9.2482,9.2482,9.2482,9.2639,9.3107,9.2834,9.2912,9.4278,9.4434,9.4708,9.5567,9.6035,9.6152,9.5762,9.5684,9.5527,9.5137,9.4669,9.4395,9.4395,9.3966,9.3537,9.3107,9.3107,9.3263,9.3693,9.3302,9.2912,9.2522,9.2482,9.2482,9.2482,9.2053,9.1428,9.0609,9.0101,8.9203,4.7927,5.1556,5.5233,5.4597,5.4661,5.4516,5.3042,5.1342,4.9907,4.9237,4.8786,4.8877,5.007,5.0945,5.2446,5.5365,6.1123,6.9606,8.2085,8.7564,9.29,9.9853,10.2398,10.4584,10.7317,10.8488,10.8684,10.7903,10.7786,10.7708,10.759,10.6888,10.6107,10.5209,10.4506,10.3687,10.2789,10.2789,10.2398,10.15,10.15,10.0681,9.9197,9.908,9.8612,9.7909,0.0,0.0,9.7636,9.6777,9.5879,9.502,9.4122,9.3263,9.2482,9.2482,9.2482,9.2482,9.2365,9.1389,9.0179,9.0023,8.9516,8.893,8.9047,9.014,9.1467,9.2287,9.2482,9.2482,9.2482,9.2482,9.2482,9.2482,9.2482,9.2482,9.2482,9.2482,9.2482,9.2482,9.26,9.299,9.3849,9.4708,9.5606,9.6464,9.7245,9.744,9.6699,9.6582,9.6308,9.5567,9.5371,9.5293,9.5293,9.5176,9.4825,9.4239,9.4083,9.4278,9.4864,9.42,9.338,9.2522,9.2482,9.2482,9.2482,9.2482,9.2092,9.1311,9.1311,9.0452,5.0674,5.4745,5.7285,5.3546,5.3746,5.4827,5.4555,5.269,5.1141,5.1632,4.9989,4.9408,5.2353,5.3614,5.5509,5.9511,6.9531,8.0129,8.9579,9.5286,9.9463,10.2086,10.5209,10.681,10.5912,10.7317,10.7786,10.7005,10.6888,10.6614,10.5795,10.5717,10.5209,10.4311,10.4194,10.3687,10.2789,10.2789,10.2398,10.15,10.15,10.0993,10.0095,9.9353,9.8924,9.8768,0.0,9.7714,9.7636,9.6777,9.5879,9.502,9.4122,9.3263,9.2482,9.2482,9.2482,9.2404,9.1702,9.1311,9.0999,9.0257,8.9906,8.9945,9.0687,9.1077,9.1467,9.2287,9.2482,9.2482,9.2482,9.2482,9.2482,9.2482,9.2482,9.2482,9.2482,9.2482,9.2482,9.2482,9.3107,9.3888,9.4747,9.5606,9.6503,9.7362,9.7597,9.7636,9.7518,9.7518,9.744,9.7323,9.666,9.6191,9.6191,9.5527,9.5371,9.5957,9.5293,9.463,9.4005,9.3888,9.338,9.2522,9.2482,9.2482,9.2482,9.2482,9.2092,9.1311,9.1311,9.0765,4.8314,5.1896,5.5094,5.4527,0.0,5.9918,5.7585,5.583,5.4624,5.4453,5.2719,5.2136,5.5023,5.7063,6.1259,7.0265,7.8012,8.4961,9.0984,9.4255,9.7368,10.0993,10.3218,10.4897,10.599,10.681,10.6888,10.6107,10.599,10.5795,10.5404,10.5014,10.4506,10.4116,10.3608,10.3218,10.2789,10.2281,10.1696,10.0915,10.0915,10.0212,9.8885,9.8494,9.8299,9.8299,0.0,9.744,9.6933,9.6074,9.5176,9.4317,9.3458,9.2834,9.2482,9.2482,9.2482,9.2443,9.2092,9.1663,9.1233,9.0843,9.0687,9.0765,9.1194,9.1936,9.2639,9.2522,9.2482,9.2482,9.2482,9.2482,9.2482,9.2482,9.2873,9.3185,9.3185,9.3185,9.3185,9.3185,9.3537,9.4083,9.4942,9.5801,9.6699,9.7558,9.7714,9.7714,9.7714,9.7714,9.7714,9.7714,9.7323,9.7089,9.7089,9.6738,9.6464,9.6386,9.6464,9.6113,9.5254,9.4747,9.4083,9.3224,9.2756,9.2482,9.2482,9.2482,9.2326,9.1936,9.1936,9.1507,4.6844,5.0008,5.363,5.5683,0.0,6.2795,6.1557,5.9833,5.8682,5.9361,5.8,5.7146,5.8861,6.1966,6.8228,8.0308,8.5468,8.9274,9.3131,9.4714,9.6968,10.0985,10.2398,10.3999,10.6497,10.6693,10.6302,10.5209,10.5092,10.5014,10.4819,10.4194,10.3804,10.3804,10.2984,10.2515,10.2515,10.1618,10.0915,10.029,10.0095,9.9197,9.7714,9.7714,9.7597,9.7401,9.7401,9.6777,9.5723,9.4864,9.4083,9.3419,9.2561,9.2326,9.2482,9.2482,9.2482,9.2482,9.2482,9.2092,9.1585,9.1585,9.1585,9.1585,9.1585,9.2639,9.3615,9.2756,9.2639,9.2756,9.2561,9.2482,9.2482,9.2482,9.3185,9.3732,9.3537,9.381,9.4044,9.3849,9.4122,9.463,9.5293,9.6113,9.6933,9.7597,9.7714,9.7714,9.7714,9.7714,9.7714,9.7714,9.7714,9.7714,9.7714,9.7714,9.7401,9.6738,9.7323,9.7323,9.6425,9.5762,9.4981,9.4122,9.3458,9.299,9.2795,9.299,9.2912,9.2482,9.2717,9.2365,4.99,5.3155,5.5942,5.6162,5.6451,0.0,6.6594,6.4545,0.0,6.8214,6.742,6.5438,6.4775,6.9306,7.6116,8.519,9.0937,9.5767,10.0204,10.2906,10.4615,10.5014,10.6497,10.7317,10.681,10.6693,10.599,10.4311,10.4194,10.3804,10.2984,10.2906,10.2906,10.2906,10.2008,10.1618,10.1618,10.0798,10.0407,10.029,9.947,9.8612,9.7714,9.7714,9.7245,9.6503,9.6503,9.5527,9.3927,9.3068,9.2639,9.2522,9.1702,9.1858,9.2482,9.2482,9.2482,9.2482,9.2482,9.2443,9.2404,9.2404,9.2404,9.2404,9.2404,9.3068,9.3615,9.2756,9.3068,9.3537,9.2717,9.2482,9.2482,9.2482,9.3185,9.3576,9.2756,9.3849,9.4786,9.3966,9.5098,9.623,9.6308,9.7011,9.7636,9.7675,9.7714,9.7714,9.7714,9.7714,9.7714,9.7714,9.7714,9.7714,9.7714,9.7714,9.7675,9.7597,9.7675,9.7323,9.6425,9.6347,9.5918,9.502,9.4942,9.4512,9.3693,9.4512,9.4083,9.2522,9.3341,9.3224,4.8933,5.2302,5.5786,5.7418,5.8566,0.0,0.0,6.8904,6.9907,7.4371,7.4109,7.2763,7.1771,7.6887,8.3065,8.8664,9.3874,9.8396,10.1805,10.3608,10.4584,10.4584,10.5717,10.599,10.5209,10.5092,10.4584,10.3413,10.3296,10.3101,10.2789,10.2789,10.2593,10.2008,10.1696,10.1305,10.0798,9.99,9.9509,9.9509,9.9158,9.8533,9.7714,9.7714,9.7206,9.6386,9.6386,9.5098,9.2951,9.2639,9.1897,9.096,9.1194,9.178,9.2482,9.2482,9.2482,9.2482,9.2482,9.2482,9.2482,9.2482,9.2482,9.26,9.3146,9.3927,9.4552,9.42,9.4356,9.4395,9.3537,9.2912,9.2756,9.3849,9.4356,9.4512,9.42,9.463,9.4981,9.4669,9.5137,9.5762,9.6308,9.7128,9.7714,9.7714,9.7714,9.7714,9.7714,9.7714,9.7714,9.7714,9.7714,9.7714,9.7714,9.7714,9.7714,9.7714,9.7714,9.7558,9.7206,9.6699,9.623,9.5918,9.5371,9.4942,9.4591,9.4942,9.4747,9.4122,9.3888,9.3615,4.7889,5.0375,5.3482,0.0,0.0,0.0,7.0181,7.2647,7.5172,8.1177,8.0826,7.9315,7.887,8.2746,8.7206,9.078,9.5913,10.019,10.2382,10.3514,10.4116,10.4116,10.4897,10.5092,10.4194,10.4116,10.3687,10.2906,10.2789,10.2789,10.2789,10.2789,10.2398,10.15,10.089,10.0382,9.99,9.8704,9.8236,9.8572,9.8572,9.8299,9.7675,9.7401,9.6816,9.5957,9.5684,9.4122,9.1702,9.1702,9.1038,9.0101,9.096,9.178,9.2482,9.2482,9.2482,9.2482,9.2482,9.2482,9.2482,9.2482,9.2482,9.26,9.3224,9.42,9.502,9.4786,9.4903,9.4942,9.4356,9.3341,9.2795,9.4005,9.4708,9.502,9.4747,9.5332,9.584,9.5567,9.5723,9.6113,9.6699,9.7323,9.7714,9.7714,9.7714,9.7714,9.7714,9.7714,9.7714,9.7714,9.7714,9.7714,9.7714,9.7714,9.7714,9.7714,9.7714,9.7714,9.7714,9.7128,9.6816,9.6816,9.623,9.5801,9.5527,9.5801,9.5645,9.5098,9.4786,9.4473,4.7347,4.7773,4.9132,5.18,0.0,0.0,7.4831,7.5658,7.7595,8.8994,8.7837,8.5019,8.5788,8.6529,8.8069,9.1452,9.7182,10.151,10.2406,10.3385,10.4116,10.4116,10.4819,10.5014,10.4194,10.4116,10.3687,10.2906,10.2789,10.2789,10.2789,10.2789,10.2398,10.15,9.9605,9.8708,9.8963,9.707,9.6641,9.7675,9.7675,9.7675,9.7675,9.6816,9.5918,9.5059,9.4161,9.2365,8.9984,8.9984,8.9984,9.0101,9.096,9.178,9.2482,9.2482,9.2482,9.2482,9.2482,9.2482,9.2482,9.2482,9.2522,9.2522,9.2522,9.3732,9.4942,9.4083,9.4434,9.5098,9.5098,9.381,9.2522,9.2522,9.3849,9.4864,9.4005,9.5879,9.744,9.6582,9.7089,9.7675,9.7714,9.7714,9.7714,9.7714,9.7714,9.7714,9.7714,9.7714,9.7714,9.7714,9.7714,9.7714,9.7714,9.7714,9.7714,9.7714,9.7714,9.7714,9.7714,9.7714,9.7714,9.7714,9.7714,9.7284,9.6425,9.7284,9.6816,9.5137,9.5996,9.5957,4.9165,5.1399,5.4696,5.7858,6.3896,7.1087,7.8818,8.0651,0.0,0.0,9.2007,9.0745,8.9489,9.0869,9.2477,9.341,9.716,10.0592,10.2312,10.2917,10.3218,10.3218,10.3413,10.3491,10.3218,10.3218,10.3101,10.2789,10.2789,10.2789,10.2789,10.2203,10.15,10.0681,9.8708,9.7447,9.6941,9.5771,9.5654,9.6551,9.6089,9.6503,9.7675,9.6816,9.5918,9.502,9.3537,9.178,8.9906,8.8696,8.8891,9.0023,9.0296,9.1233,9.2482,9.2482,9.2482,9.2482,9.2482,9.2482,9.2482,9.2482,9.2912,9.3419,9.3419,9.463,9.5957,9.5684,9.584,9.5996,9.5996,9.5176,9.4473,9.5098,9.5645,9.5957,9.5684,9.623,9.6699,9.6464,9.6621,9.6972,9.7597,9.7714,9.7714,9.7714,9.7714,9.7714,9.7714,9.7714,9.7714,9.7714,9.7714,9.7714,9.7714,9.826,9.8338,9.7753,9.8299,9.8338,9.7714,9.7714,9.7714,9.7714,9.7714,9.7558,9.7323,9.7558,9.744,9.6933,9.6582,9.6269,4.9509,5.22,5.6075,6.1584,6.8203,7.5512,8.3848,8.7213,8.9836,9.4427,9.5059,9.451,9.35,9.4465,9.5437,9.5592,9.827,10.0803,10.2188,10.249,10.2704,10.2781,10.2789,10.2789,10.2789,10.2789,10.2711,10.2281,10.2281,10.2086,10.1813,10.1305,10.0391,9.9143,9.7535,9.6287,9.5413,9.4596,9.4629,9.5601,9.5251,9.5645,9.6621,9.5762,9.5098,9.4473,9.2756,9.1233,8.9906,8.8501,8.8735,8.9984,8.9984,9.0843,9.2053,9.2365,9.2482,9.2482,9.2482,9.2482,9.2561,9.2912,9.338,9.3849,9.42,9.5293,9.6386,9.6386,9.6386,9.6386,9.6386,9.5762,9.5215,9.5762,9.6152,9.6386,9.6386,9.666,9.6933,9.6933,9.6933,9.7089,9.7597,9.7714,9.7714,9.7714,9.7714,9.7714,9.7714,9.7714,9.7714,9.7714,9.7714,9.7831,9.8182,9.869,9.8924,9.8729,9.8885,9.8768,9.8221,9.787,9.7714,9.7714,9.7714,9.7714,9.7714,9.7714,9.7714,9.7675,9.7167,9.6933,4.9252,5.1719,5.5441,6.4146,7.1815,7.9752,8.943,9.4161,9.6738,9.744,9.712,9.689,9.7496,9.7421,9.7419,9.7998,10.0117,10.1817,10.2109,10.2285,10.262,10.282,10.2789,10.2789,10.2789,10.2711,10.2398,10.1618,10.1383,10.111,10.029,10.0212,9.931,9.7355,9.6176,9.5161,9.4307,9.3491,9.3629,9.4666,9.4783,9.4903,9.4942,9.4161,9.3654,9.338,9.1858,9.0687,8.9828,8.9047,8.9203,8.9984,8.9984,9.0531,9.1389,9.2209,9.2482,9.2482,9.2482,9.2561,9.2756,9.3458,9.381,9.4044,9.4786,9.5645,9.6386,9.6386,9.6464,9.6503,9.6503,9.5879,9.5254,9.5332,9.5879,9.6386,9.6386,9.7089,9.7714,9.7714,9.7714,9.7714,9.7714,9.7714,9.7714,9.7714,9.7753,9.7792,9.7714,9.7753,9.7831,9.7831,9.7831,9.8182,9.9041,9.9197,9.9548,10.029,9.9627,9.9158,9.9002,9.8143,9.7714,9.7714,9.7714,9.7714,9.7714,9.7792,9.7792,9.7714,9.7792,9.7792,5.2278,5.668,6.2531,7.0481,8.0743,8.9821,9.3458,9.5918,9.7284,9.6777,9.8001,9.9328,9.9949,9.985,9.9847,10.0401,10.1191,10.1817,10.2109,10.2285,10.262,10.282,10.2789,10.2789,10.2789,10.2203,10.1696,10.15,10.0915,10.0485,10.029,9.9666,9.8685,9.7355,9.5593,9.4307,9.3491,9.2615,9.2715,0.0,9.33,9.3419,9.4083,9.3888,9.2717,9.0804,9.0452,8.9789,8.8969,8.8774,8.9203,8.9984,8.9984,9.0531,9.1389,9.2209,9.2482,9.2482,9.2482,9.2951,9.3458,9.2951,9.3693,9.4747,9.4239,9.5176,9.6386,9.6386,9.6894,9.7401,9.7401,9.6777,9.6308,9.6972,9.6777,9.6386,9.6386,9.7089,9.7714,9.7714,9.7714,9.7714,9.7714,9.7714,9.7714,9.7714,9.8299,9.8455,9.7792,9.8299,9.8729,9.8729,9.8729,9.908,9.9939,10.0603,10.0798,10.029,10.0681,10.0407,9.9041,9.8143,9.7714,9.7714,9.7714,9.7714,9.7714,9.8377,9.8377,9.7714,9.8416,9.8338,5.3647,5.8753,6.5523,7.7098,8.6027,9.2365,9.4083,9.5488,9.6425,9.6425,9.8252,9.9964,10.0096,10.0623,10.1103,10.1327,10.14,10.1606,10.1902,10.2101,10.2379,10.2581,10.2685,10.2593,10.2203,10.1813,10.1188,10.0407,9.99,9.9509,9.908,9.8139,9.7084,9.5958,9.4419,9.3231,9.2416,9.2044,9.221,9.2859,9.2637,9.2756,9.3185,9.3185,9.2014,9.0023,9.0452,8.9906,8.8696,8.8696,8.8969,8.9437,8.9828,9.0296,9.0843,9.2053,9.2482,9.2482,9.2482,9.2795,9.3185,9.3146,9.3732,9.4473,9.4434,9.5332,9.6308,9.5918,9.6699,9.7597,9.7206,9.6738,9.6503,9.6972,9.6738,9.6503,9.6933,9.7362,9.7714,9.7714,9.7714,9.7714,9.7714,9.7714,9.7714,9.7714,9.8455,9.8846,9.8377,9.908,9.9627,9.9627,9.9627,9.9978,10.0798,10.1305,10.15,10.15,10.15,10.111,10.0212,9.9002,9.8143,9.7714,9.7714,9.7714,9.7714,9.8143,9.8143,9.7714,9.8182,9.8143,5.3425,5.9911,6.8143,8.2702,8.893,9.1897,9.3458,9.4473,9.5293,9.598,9.7864,9.9384,9.928,10.049,10.1307,10.0904,10.1019,10.1094,10.1316,10.1503,10.179,10.2195,10.232,10.2108,10.1618,10.111,10.029,9.8885,9.8494,9.8065,9.7518,9.6446,9.5408,9.4423,9.3349,9.2401,9.1604,9.1766,9.2034,9.2237,9.2412,9.2482,9.2482,9.2365,9.1467,9.0023,9.0765,9.0179,8.8696,8.8696,8.8696,8.8774,8.9672,8.9906,8.9984,9.1819,9.2404,9.2326,9.2443,9.26,9.2834,9.338,9.3693,9.3927,9.4669,9.5371,9.584,9.5254,9.623,9.7323,9.6582,9.6386,9.6425,9.6582,9.6503,9.6582,9.7323,9.7597,9.7714,9.7714,9.7714,9.7714,9.7714,9.7714,9.7714,9.7714,9.8572,9.9158,9.9002,9.9861,10.0485,10.0485,10.0485,10.0798,10.1383,10.1618,10.2008,10.2515,10.2008,10.1696,10.15,10.0212,9.8963,9.7948,9.7792,9.7714,9.7714,9.7831,9.7831,9.7714,9.7831,9.7831,5.0519,6.2001,7.5161,8.4817,8.9789,9.26,9.3576,9.4473,9.5083,9.503,9.6291,9.7609,9.8248,9.9421,10.0095,9.925,9.975,10.0092,9.9615,9.956,10.0005,10.1205,10.0721,10.058,10.1414,9.9509,9.8104,9.7909,9.6464,9.5918,9.6542,9.5549,9.4785,9.4384,9.3349,9.2509,9.1872,9.1894,9.2104,9.2468,9.2475,9.2482,9.2482,9.178,9.0921,9.0023,9.0101,8.9594,8.8696,8.8696,8.8696,8.8774,8.9672,8.9555,8.9164,9.1585,9.2053,9.1546,9.2248,9.299,9.3537,9.2873,9.3185,9.381,9.3927,9.4044,9.4278,9.4903,9.5801,9.6542,9.6425,9.6386,9.6582,9.7362,9.6933,9.6425,9.6542,9.7167,9.7714,9.7714,9.7714,9.7714,9.7714,9.7714,9.7714,9.7714,9.908,9.9861,9.9119,10.0407,10.1305,10.1305,10.1305,10.1383,10.15,10.2203,10.2398,10.1696,10.2281,10.2281,10.15,10.1305,10.0407,9.8846,9.8065,9.7714,9.7714,9.8455,9.8455,9.7714,9.8455,9.8416,5.6519,6.5322,7.4489,8.4232,8.7798,8.9398,9.1233,9.1975,9.2303,9.2549,9.3025,9.4202,9.6812,9.8025,9.8673,9.8788,9.9096,9.9287,9.9043,9.9095,9.9472,10.0203,10.002,9.993,10.0087,9.8651,9.7518,9.7011,9.5371,9.4497,9.4753,9.3749,9.3065,9.278,9.2209,9.1881,9.1915,9.1915,9.2121,9.2482,9.2053,9.2053,9.2443,9.1155,9.0374,8.9984,8.9477,8.8774,8.7954,8.7954,8.7954,8.8071,8.893,8.9047,8.8891,9.0492,9.0882,9.0609,9.096,9.1663,9.2326,9.1936,9.2404,9.3068,9.3068,9.3419,9.3771,9.3654,9.4981,9.6308,9.5801,9.6386,9.7245,9.7597,9.7401,9.7128,9.7128,9.744,9.7714,9.7714,9.7714,9.7714,9.7714,9.7714,9.7714,9.7714,9.9197,10.0212,9.9783,10.1188,10.2203,10.2203,10.2203,10.2203,10.2203,10.2593,10.2593,10.2281,10.2593,10.2593,10.2203,10.1813,10.1188,10.0407,9.9119,9.8182,9.7714,9.8065,9.8065,9.7714,9.8104,9.8065,5.8855,6.4481,6.9857,8.0189,8.3756,8.5559,8.8657,8.9672,9.007,9.0429,9.0361,9.1222,9.4326,9.5966,9.7096,9.7711,9.8173,9.8404,9.8173,9.8349,9.8524,9.875,9.8802,9.8665,9.8295,9.7112,9.6191,9.5762,9.4122,9.3261,9.3496,9.2462,9.1882,9.1821,9.1413,9.1423,9.1915,9.1976,9.2197,9.2482,9.1897,9.1819,9.2131,9.0687,8.9867,8.9633,8.8969,8.8227,8.7407,8.7407,8.7407,8.7486,8.8344,8.8579,8.8501,8.9594,8.9867,8.9711,8.9906,9.0413,9.0999,9.1233,9.1702,9.2248,9.2443,9.2951,9.338,9.2951,9.4395,9.5957,9.5527,9.6542,9.7714,9.7714,9.7714,9.7714,9.7714,9.7714,9.7714,9.7714,9.7714,9.7714,9.7714,9.7714,9.7792,9.7987,9.9314,10.0407,10.0603,10.1891,10.2789,10.2789,10.2789,10.2711,10.2515,10.2711,10.2711,10.2515,10.2711,10.2789,10.2789,10.2203,10.1696,10.15,10.029,9.9119,9.8026,9.7792,9.7714,9.7714,9.7714,9.7714,5.1134,5.583,6.1438,7.1232,7.7404,8.2221,8.6535,8.8813,8.9896,8.9448,8.9351,8.9547,9.0114,9.2903,9.5134,9.5172,9.6519,9.7288,9.6557,9.6442,9.6544,9.6706,9.6242,9.6021,9.621,9.4149,9.3107,9.3888,9.2365,9.2052,9.3419,9.2501,9.2154,9.2711,9.176,9.1423,9.1915,9.2288,9.2475,9.2482,9.2443,9.2053,9.1311,9.0413,8.9555,8.8774,8.8735,8.8227,8.7407,8.7407,8.7407,8.7486,8.8344,8.8188,8.7681,8.9359,8.9477,8.8891,8.9711,9.0023,9.0179,9.1038,9.1311,9.1507,9.2287,9.2522,9.2717,9.3497,9.4434,9.5332,9.6113,9.7011,9.7714,9.7714,9.7714,9.7714,9.7714,9.7714,9.7714,9.7714,9.7714,9.7714,9.7714,9.7714,9.7987,9.8807,9.9705,10.0603,10.1305,10.2203,10.2789,10.2789,10.2789,10.2515,10.1618,10.2281,10.2398,10.1618,10.2281,10.2789,10.2789,10.2789,10.2281,10.15,10.1383,10.0603,9.8924,9.8104,9.7714,9.7714,9.7714,9.7714,5.1313,5.3945,5.7195,6.579,7.1934,7.6556,7.9236,8.3713,8.7079,8.6223,8.6777,8.7603,8.8194,9.0171,9.1902,9.2479,9.3518,9.4172,9.3903,9.4326,9.4699,9.4974,9.4807,9.4839,9.5221,9.3458,9.25,9.2951,9.0794,8.9599,8.9951,8.9499,8.9228,8.9362,8.9508,8.9802,9.0245,9.0117,9.0062,9.0062,8.9477,8.9359,8.9594,8.8735,8.8461,8.8657,8.811,8.7681,8.7407,8.7407,8.7407,8.7446,8.7759,8.7681,8.7486,8.811,8.8149,8.7915,8.8227,8.8696,8.932,9.0179,9.0843,9.1467,9.2248,9.2482,9.2678,9.3537,9.4434,9.5293,9.6152,9.705,9.7714,9.7714,9.7714,9.7714,9.7714,9.7714,9.7714,9.7714,9.7714,9.7714,9.7714,9.7714,9.7792,9.8104,9.9392,10.0407,10.0681,10.1891,10.2789,10.2789,10.2789,10.2711,10.2398,10.2593,10.2711,10.2398,10.2593,10.2789,10.2789,10.2789,10.2711,10.2281,10.1813,10.0993,9.9822,9.8963,9.8533,9.8533,9.7948,9.7714,4.9605,5.1008,5.3391,6.1306,6.5764,6.9511,7.4755,7.9221,8.2536,8.3465,8.4854,8.6124,8.6819,8.7868,8.906,9.0556,9.1979,9.2826,9.2556,9.3172,9.3662,9.3547,9.3359,9.3233,9.3299,9.1776,9.096,9.1403,8.9455,8.83,8.8335,8.8223,8.8055,8.7825,8.8457,8.8779,8.8778,8.8923,8.8891,8.8618,8.8369,8.8422,8.8696,8.811,8.7993,8.8227,8.7642,8.7407,8.7407,8.7407,8.7407,8.7407,8.7407,8.7407,8.7407,8.7407,8.7407,8.7407,8.7407,8.7798,8.8461,8.9633,9.0374,9.1077,9.217,9.2482,9.2756,9.3927,9.4669,9.5371,9.6542,9.7284,9.7714,9.7714,9.7714,9.7714,9.7714,9.7714,9.7714,9.7714,9.7714,9.7714,9.7714,9.7714,9.7792,9.8104,9.9119,10.0095,10.0603,10.1696,10.2515,10.2789,10.2789,10.2789,10.2789,10.2789,10.2789,10.2789,10.2789,10.2789,10.2789,10.2789,10.2789,10.2789,10.2203,10.1696,10.111,9.9705,9.9158,9.9431,9.8533,9.8299,0.0,0.0,0.0,5.741,5.8836,6.144,7.3307,7.5478,7.6379,8.1344,8.3618,8.4956,8.5796,8.5958,8.6799,8.929,9.1825,9.321,9.2441,9.3018,9.3249,9.2518,9.1817,9.1135,9.0362,8.891,8.8341,8.9216,8.8458,8.8235,8.8841,8.8853,8.875,8.8589,8.8789,8.8493,8.7642,8.8922,8.9157,8.8313,8.932,8.9391,8.8611,8.8611,8.8142,8.7401,8.7401,8.7401,8.7401,8.7368,8.7368,8.7329,8.7368,8.7368,8.7368,8.7407,8.7407,8.7407,8.7407,8.7407,8.7681,8.9437,8.9984,9.0296,9.1975,9.2482,9.2873,9.4591,9.5098,9.5488,9.7245,9.7714,9.7714,9.7714,9.7714,9.7714,9.7714,9.7714,9.7714,9.7714,9.7714,9.7714,9.7714,9.7714,9.7987,9.8885,9.9002,9.9627,10.1305,10.15,10.1891,10.2711,10.2789,10.2789,10.2789,10.2789,10.2789,10.2789,10.2789,10.2789,10.2789,10.2789,10.2789,10.2789,10.2789,10.2789,10.2789,10.029,9.9509,10.029,9.9431,9.9509,4.5277,0.0,0.0,0.0,0.0,0.0,6.1578,6.5159,6.9226,7.4982,7.734,7.953,8.3495,8.5117,8.5696,8.5232,8.6872,8.8325,8.8748,8.8979,8.9517,9.0517,8.9965,8.9702,9.0246,8.8778,8.7972,0.0,8.7452,8.6649,8.6288,8.5526,8.5344,8.594,8.6163,8.6145,8.5875,8.6397,8.6203,8.5365,8.5672,8.6016,8.6405,8.6405,8.6599,8.6989,8.6989,8.705,8.7153,8.6644,8.608,8.5573,8.6197,8.6471,8.6549,8.7173,8.7407,8.7407,8.7407,8.7407,8.7681,8.9437,8.9984,9.0296,9.1975,9.2482,9.2873,9.4591,9.5098,9.5488,9.7245,9.7714,9.7714,9.7714,9.7714,9.7714,9.7714,9.7714,9.7714,9.7714,9.7714,9.7714,9.7714,9.7714,9.7987,9.8885,9.9548,10.029,10.1383,10.2086,10.2515,10.2789,10.2789,10.2789,10.2789,10.2789,10.2789,10.2789,10.2789,10.2789,10.2789,10.2789,10.2789,10.2789,10.2789,10.2789,10.2789,10.15,10.0915,10.111,10.029,10.0095,4.5889,4.6445,4.7652,4.9953,0.0,0.0,5.8119,6.0547,6.3823,7.0555,7.3111,7.5501,7.9944,8.1751,8.2521,8.2253,8.3163,8.4455,8.6026,8.6565,8.7329,8.8709,8.8132,8.8001,8.8999,8.7842,8.7118,8.7242,8.6644,8.6066,8.5603,8.499,8.4863,8.5401,8.5514,8.541,8.5092,8.5628,8.5436,8.4621,8.5077,8.5544,8.6049,8.6049,8.6321,8.6787,8.6787,8.6669,8.6421,8.61,8.5934,8.5924,8.6431,8.6627,8.6705,8.7212,8.7407,8.7446,8.7837,8.772,8.7681,8.9437,8.9984,9.0257,9.1585,9.2248,9.2795,9.4161,9.5098,9.5957,9.7323,9.7714,9.7714,9.7714,9.7714,9.7714,9.7714,9.7714,9.7714,9.7714,9.7714,9.7714,9.7714,9.7714,9.7987,9.8885,9.9431,10.0212,10.1305,10.1891,10.2398,10.2789,10.2789,10.2789,10.2789,10.2789,10.2789,10.2789,10.2789,10.2789,10.2789,10.2789,10.2789,10.2789,10.2789,10.2789,10.2789,10.1891,10.15,10.15,10.1383,10.1305,4.6844,4.7341,4.8968,5.2709,5.0979,0.0,5.8642,5.8757,5.923,6.6595,6.9229,7.1389,7.5102,7.6518,7.7552,7.893,7.9765,8.1214,8.4118,8.5151,8.5954,8.6983,8.6363,8.6209,8.7171,8.6478,8.6017,8.6094,8.6017,8.5978,8.5978,8.5829,8.5829,8.5906,8.5906,8.5632,8.4901,8.5873,8.5976,8.5191,8.6227,8.6726,8.6726,8.6726,8.6726,8.6726,8.6726,8.6299,8.5621,8.5766,8.635,8.7081,8.7205,8.7251,8.729,8.7368,8.7407,8.7525,8.8305,8.8032,8.7681,8.9437,8.9984,9.0179,9.1155,9.1936,9.2717,9.3654,9.5137,9.6582,9.7479,9.7714,9.7714,9.7714,9.7714,9.7714,9.7714,9.7714,9.7714,9.7714,9.7714,9.7714,9.7714,9.7714,9.8026,9.9002,9.9158,9.9744,10.1383,10.1618,10.1891,10.2711,10.2789,10.2789,10.2789,10.2789,10.2789,10.2789,10.2789,10.2789,10.2789,10.2789,10.2789,10.2789,10.2789,10.2789,10.2789,10.2008,10.1618,10.1696,10.2398,10.2789,0.0,0.0,0.0,0.0,0.0,0.0,5.1629,5.1706,5.3197,5.8196,5.9944,6.2299,6.7752,6.998,7.0604,6.961,7.3433,7.8202,8.2936,8.3166,8.3431,8.507,8.4494,8.4643,8.6209,8.5632,8.5401,8.6055,8.5517,8.5099,8.4993,8.434,8.4263,8.4955,8.4993,8.495,8.4901,8.5735,8.5767,8.4959,8.583,8.6246,8.6246,8.6246,8.6246,8.6246,8.6246,8.624,8.6223,8.6272,8.5797,8.5153,8.602,8.6353,8.6431,8.7134,8.7407,8.7407,8.7603,8.7525,8.7681,8.9437,8.9984,9.0296,9.1819,9.2365,9.2834,9.4395,9.5606,9.6582,9.7479,9.7714,9.7714,9.7714,9.7714,9.7714,9.7714,9.7714,9.7714,9.7714,9.7714,9.7714,9.7714,9.7714,9.8221,9.9822,10.0017,10.0681,10.2281,10.2515,10.2593,10.2789,10.2789,10.2789,10.2789,10.2789,10.2789,10.2789,10.2789,10.2789,10.2789,10.2789,10.2789,10.2789,10.2789,10.2789,10.2789,10.2593,10.2515,10.2593,10.2711,10.2789,0.0,0.0,0.0,5.0818,0.0,0.0,0.0,5.1276,5.2026,5.5861,5.6308,5.7454,6.2108,6.3609,6.4573,6.5834,6.9578,7.3701,7.7628,8.0033,8.1869,8.3239,8.3082,8.3533,8.5258,8.5027,8.5109,8.5881,8.5574,8.5309,8.5235,8.4851,8.4621,8.4659,8.4656,8.4532,8.422,8.506,8.5286,8.4901,8.5709,8.606,8.6065,8.6065,8.5992,8.5958,8.5958,8.6022,8.6107,8.6279,8.5977,8.5486,8.6286,8.6667,8.6783,8.7251,8.7407,8.7446,8.7915,8.7759,8.7681,8.9437,8.9984,9.0257,9.1507,9.217,9.2873,9.4591,9.541,9.6035,9.7362,9.7714,9.7714,9.7714,9.7714,9.7714,9.7714,9.7714,9.7714,9.7714,9.7714,9.7714,9.7714,9.7714,9.8299,10.0017,10.029,10.0915,10.2593,10.2789,10.2789,10.2789,10.2789,10.2789,10.2789,10.2789,10.2789,10.2789,10.2789,10.2789,10.2789,10.2789,10.2789,10.2789,10.2789,10.2789,10.2789,10.2789,10.2789,10.2789,10.2789,10.2789,0.0,0.0,0.0,0.0,0.0,5.2002,0.0,0.0,0.0,5.4677,5.418,5.4256,5.7122,5.7772,5.8956,6.2204,6.5681,6.8661,7.0533,7.5034,7.8738,8.0413,8.0822,8.1584,8.3274,8.3466,8.4003,8.5312,8.4893,8.478,8.5279,8.5434,8.5166,8.4361,8.4583,8.4272,8.35,8.4412,8.4901,8.4868,8.5676,8.6026,8.5996,8.5996,8.5887,8.5815,8.5815,8.5815,8.5813,8.6107,8.6221,8.6335,8.6825,8.7157,8.7282,8.7282,8.7282,8.7399,8.8119,8.7924,8.7594,8.943,9.0218,9.0609,9.1311,9.1975,9.2834,9.4395,9.4981,9.5449,9.705,9.7558,9.7714,9.7714,9.7714,9.7714,9.7714,9.7714,9.7714,9.7714,9.7714,9.7714,9.7714,9.7714,9.8221,9.9822,10.0017,10.0681,10.2281,10.2515,10.2593,10.2789,10.2789,10.2789,10.2789,10.2789,10.2789,10.2789,10.2789,10.2789,10.2789,10.2789,10.2789,10.2789,10.2789,10.2789,10.2789,10.2789,10.2789,10.2789,10.2789,10.2789,0.0,0.0,0.0,0.0,5.4944,0.0,0.0,0.0,5.2155,5.0321,0.0,5.1085,5.2231,0.0,0.0,5.3225,5.9071,6.3465,6.2968,6.6598,7.0828,7.4796,7.5901,7.7045,7.887,7.9023,8.0356,8.3599,8.1584,8.121,8.3476,8.4209,8.4174,8.3407,8.4169,8.4167,8.332,8.4374,8.4868,8.4729,8.5608,8.5996,8.5996,8.5887,8.5815,8.5815,8.5815,8.5815,8.5815,8.5849,8.6017,8.625,8.6683,8.6845,8.6864,8.6864,8.6864,8.6921,8.7195,8.7113,8.7228,8.9311,9.0999,9.2209,9.2326,9.2443,9.2717,9.3654,9.4512,9.5332,9.6308,9.7128,9.7714,9.7714,9.7714,9.7714,9.7714,9.7714,9.7714,9.7714,9.7714,9.7714,9.7714,9.7714,9.8026,9.9002,9.9158,9.9744,10.1383,10.1618,10.1891,10.2711,10.2789,10.2789,10.2789,10.2789,10.2789,10.2789,10.2789,10.2789,10.2789,10.2789,10.2789,10.2789,10.2789,10.2789,10.2789,10.2789,10.2789,10.2789,10.2789,10.2789,0.0,0.0,0.0,0.0,0.0,0.0,5.2155,0.0,5.12,0.0,0.0,0.0,0.0,0.0,0.0,0.0,5.5823,5.8765,5.9376,6.1822,6.5673,7.1401,7.0738,7.1037,7.421,7.5857,7.7538,7.9455,7.8611,7.885,8.0882,8.2222,8.2759,8.2416,8.2796,8.2639,8.1757,8.3239,8.3965,8.3892,8.5235,8.5852,8.5817,8.5742,8.5704,8.5628,8.5628,8.5628,8.5628,8.5704,8.5815,8.5915,8.6169,8.6377,8.6605,8.6605,8.6605,8.6648,8.686,8.7117,8.7679,8.9767,9.1275,9.2312,9.2468,9.2482,9.2795,9.4161,9.4434,9.4786,9.666,9.705,9.7089,9.7597,9.7714,9.7714,9.7714,9.7714,9.7714,9.7714,9.7714,9.7714,9.7714,9.7714,9.8182,9.9548,9.9744,10.0407,10.2008,10.2281,10.2398,10.2789,10.2789,10.2789,10.2789,10.2789,10.2789,10.2789,10.2789,10.2789,10.2789,10.2789,10.2789,10.2789,10.2789,10.2789,10.2789,10.2789,10.2789,10.2789,10.2789,10.2789,5.6943,0.0,0.0,0.0,0.0,0.0,0.0,0.0,0.0,0.0,0.0,0.0,0.0,0.0,5.1238,5.2575,0.0,5.5747,5.6702,5.7695,6.0561,6.6598,6.6277,6.7102,7.1114,7.2499,7.3806,7.5302,7.4609,7.526,7.7791,7.9547,8.0656,8.1079,8.1612,8.1458,8.0578,8.2141,8.3093,8.3288,8.4744,8.5512,8.5705,8.5628,8.559,8.5511,8.5511,8.5511,8.5511,8.559,8.5667,8.5628,8.5704,8.5906,8.6219,8.6312,8.6312,8.6339,8.6793,8.7592,8.8655,9.0169,9.1274,9.2098,9.2373,9.2451,9.2724,9.399,9.4263,9.4575,9.6503,9.6699,9.6621,9.7479,9.7518,9.7401,9.7636,9.7714,9.7714,9.7714,9.7714,9.7714,9.7714,9.7909,9.8494,9.9744,10.0095,10.0798,10.2281,10.2398,10.2515,10.2789,10.2789,10.2789,10.2789,10.2789,10.2789,10.2789,10.2789,10.2789,10.2789,10.2789,10.2789,10.2789,10.2789,10.2789,10.2789,10.2789,10.2789,10.2789,10.2789,10.2789,0.0,0.0,0.0,5.6855,0.0,0.0,0.0,0.0,5.4791,0.0,0.0,0.0,0.0,0.0,5.4677,5.3072,5.4256,0.0,0.0,5.3531,5.4639,5.8956,6.2968,6.6782,7.0279,6.8418,6.8449,7.1858,6.8977,6.9228,7.4298,7.6029,7.764,7.9321,8.1037,8.1458,8.0506,8.1604,8.2521,8.3217,8.4059,8.4901,8.5705,8.5551,8.5511,8.5511,8.5511,8.5511,8.5511,8.5511,8.5511,8.5511,8.5511,8.5551,8.5552,8.5741,8.5813,8.5964,8.7025,8.8632,9.0235,9.0288,9.1051,9.1956,9.2245,9.2313,9.2327,9.244,9.3671,9.5007,9.513,9.5801,9.6621,9.7479,9.705,9.666,9.7518,9.7714,9.7714,9.7714,9.7714,9.7714,9.7714,9.8416,9.8963,9.9041,9.9744,10.0603,10.1383,10.15,10.1891,10.2711,10.2789,10.2789,10.2789,10.2789,10.2789,10.2789,10.2789,10.2789,10.2789,10.2789,10.2789,10.2789,10.2789,10.2789,10.2789,10.2789,10.2789,10.2789,10.2789,10.2789,0.0,0.0,6.7744,6.186,0.0,0.0,0.0,0.0,0.0,0.0,0.0,0.0,0.0,0.0,5.4486,5.2608,5.2976,5.3008,0.0,5.1242,5.2308,5.5441,5.9988,6.2242,6.0693,6.2739,6.445,6.5044,6.4585,6.5962,6.9973,7.3347,7.5987,7.767,7.9853,8.0811,8.0506,8.1421,8.2263,8.3104,8.3907,8.4748,8.5551,8.5511,8.5511,8.5511,8.5511,8.5511,8.5511,8.5511,8.5511,8.5511,8.5511,8.5511,8.5435,8.4978,8.5514,8.6661,8.8155,8.9217,9.0025,9.0798,9.1282,9.1665,9.216,9.2313,9.243,9.3042,9.364,9.4355,9.5582,9.611,9.6539,9.7472,9.7479,9.7323,9.7636,9.7714,9.7714,9.7714,9.7714,9.7714,9.7714,9.8885,9.9861,9.9861,10.0499,10.1388,10.2203,10.2295,10.2402,10.2789,10.2789,10.2789,10.2789,10.2789,10.2789,10.2789,10.2789,10.2789,10.2789,10.2789,10.3101,10.3608,10.3687,10.3882,10.4506,10.3882,10.3687,10.3608,10.3101,10.2789,6.8324,6.9999,0.0,6.5108,6.4229,0.0,5.6511,0.0,0.0,0.0,0.0,0.0,0.0,0.0,5.5087,5.3277,5.2635,5.1774,0.0,5.0291,5.1141,5.2476,5.6343,5.8345,5.6855,5.9109,6.0446,5.9873,6.0655,6.2404,6.5159,6.9903,7.3614,7.5876,7.8632,8.02,8.0506,8.1041,8.1767,8.2569,8.3142,8.383,8.4594,8.4594,8.4785,8.5053,8.5053,8.5244,8.5511,8.5511,8.5511,8.5511,8.5511,8.5511,8.5473,8.5282,8.6237,8.7842,8.895,8.9608,9.0148,9.0995,9.1338,9.1445,9.1936,9.2148,9.2455,9.3527,9.3717,9.4037,9.6015,9.6174,9.6095,9.7368,9.7416,9.7308,9.7636,9.7714,9.7714,9.7714,9.7714,9.7667,9.7659,9.9094,10.0196,10.029,10.1183,10.2109,10.2703,10.2704,10.2694,10.2781,10.2789,10.2789,10.2789,10.2789,10.2789,10.2789,10.2789,10.2906,10.3218,10.3296,10.4116,10.5912,10.5014,10.5287,10.681,10.5287,10.4389,10.4116,10.3491,10.3101]},{"header":{"parameterUnit":"m.s-1","parameterCategory":1,"la1":30.6,"la2":29.2853,"lo1":-89.7004,"lo2":-87.6739,"dy":0.0162,"dx":0.0183,"nx":112,"ny":82,"refTime":"2023-03-12T06:00:00:Z","depth":0,"parameterNumber":3,"parameterNumberName":"V-component_of_WINDS"},"data":[0.0,0.0,0.0,0.0,0.0,0.0,0.0,0.0,0.0,0.0,0.0,0.0,0.0,0.0,0.0,0.0,0.0,0.0,0.0,0.0,0.0,0.0,0.0,0.0,0.0,0.0,0.0,0.0,0.0,0.0,0.0,0.0,0.0,0.0,0.0,0.0,0.0,0.0,0.0,0.0,0.0,0.0,0.0,0.0,0.0,0.0,0.0,0.0,0.0,0.0,0.0,0.0,0.0,0.0,0.0,0.0,0.0,0.0,0.0,0.0,0.0,0.0,0.0,0.0,0.0,0.0,0.0,0.0,0.0,0.0,0.0,0.0,0.0,0.0,0.0,0.0,0.0,0.0,0.0,0.0,0.0,0.0,0.0,0.0,0.0,0.0,0.0,0.0,0.0,0.0,-0.5848,-0.7438,-0.6908,-0.559,-0.33,-0.1767,0.0164,0.2156,0.0,0.0,0.0,0.0,0.0,0.0,0.0,0.0,0.0,0.0,0.0,0.0,0.0,0.0,0.0,0.0,0.0,0.0,0.0,0.0,0.0,0.0,0.0,0.0,0.0,0.0,0.0,0.0,0.0,0.0,0.0,0.0,0.0,0.0,0.0,0.0,0.0,0.0,0.0,0.0,0.0,0.0,0.0,0.0,0.0,0.0,0.0,0.0,0.0,0.0,0.0,0.0,0.0,0.0,0.0,0.0,0.0,0.0,0.0,0.0,0.0,0.0,0.0,0.0,0.0,0.0,0.0,0.0,0.0,0.0,0.0,0.0,0.0,0.0,0.0,0.0,0.0,0.0,0.0,0.0,0.0,0.0,0.0,0.0,0.0,0.0,0.0,0.0,0.0,0.0,0.0,0.0,0.0,0.0,0.0,0.0,0.0,0.0,0.0,0.0,0.0,0.0,0.0,0.0,-0.7354,-0.8277,-0.8521,-0.7142,-0.359,-0.3001,-0.1312,0.2293,0.0,0.0,0.0,0.0,0.0,0.0,0.0,0.0,0.0,0.0,0.0,0.0,0.0,0.0,0.0,0.0,0.0,0.0,0.0,0.0,0.0,0.0,0.0,0.0,0.0,0.0,0.0,0.0,0.0,0.0,0.0,0.0,0.0,0.0,0.0,0.0,0.0,0.0,0.0,0.0,0.0,0.0,0.0,0.0,0.0,0.0,0.0,0.0,0.0,0.0,0.0,0.0,0.0,0.0,0.0,0.0,0.0,0.0,0.0,0.0,0.0,0.0,0.0,0.0,0.0,0.0,0.0,0.0,0.0,0.0,0.0,0.0,0.0,0.0,0.0,0.0,0.0,0.0,0.0,0.0,0.0,0.0,0.0,0.0,0.0,0.0,0.0,0.0,0.0,0.0,0.0,0.0,0.0,0.0,0.0,0.0,0.0,0.0,0.0,0.0,0.0,0.0,0.0,-0.7502,-0.7876,-0.8424,-0.8864,-0.7356,-0.356,-0.3349,-0.1805,0.2128,0.2208,0.0,0.0,0.0,0.0,0.0,0.0,0.0,0.0,0.0,0.0,0.0,0.0,0.0,0.0,0.0,0.0,0.0,0.0,0.0,0.0,0.0,0.0,0.0,0.0,0.0,0.0,0.0,0.0,0.0,0.0,0.0,0.0,0.0,0.0,0.0,0.0,0.0,0.0,0.0,0.0,0.0,0.0,0.0,0.0,0.0,0.0,0.0,0.0,0.0,0.0,0.0,0.0,0.0,0.0,0.0,0.0,0.0,0.0,0.0,0.0,0.0,0.0,0.0,0.0,0.0,0.0,0.0,0.0,0.0,0.0,0.0,0.0,0.0,0.0,0.0,0.0,0.0,0.0,0.0,0.0,0.0,0.0,0.0,0.0,0.0,0.0,0.0,0.0,0.0,0.0,0.0,0.0,0.0,0.0,0.0,0.0,0.0,0.0,0.0,0.0,0.0,0.0,-0.7845,-0.8003,-0.8546,-0.8901,-0.7514,-0.3328,-0.3307,-0.1786,0.211,0.2155,0.0,0.0,0.0,0.0,0.0,0.0,0.0,0.0,0.0,0.0,0.0,0.0,0.0,0.0,0.0,0.0,0.0,0.0,0.0,0.0,0.0,0.0,0.0,0.0,0.0,0.0,0.0,0.0,0.0,0.0,0.0,0.0,0.0,0.0,0.0,0.0,0.0,0.0,0.0,0.0,0.0,0.0,0.0,0.0,0.0,0.0,0.0,0.0,0.0,0.0,0.0,0.0,0.0,0.0,0.0,0.0,0.0,0.0,0.0,0.0,0.0,0.0,0.0,0.0,0.0,0.0,0.0,0.0,0.0,0.0,0.0,0.0,0.0,0.0,0.0,0.0,0.0,0.0,0.0,0.0,0.0,0.0,0.0,0.0,0.0,0.0,0.0,0.0,0.0,0.0,0.0,0.0,0.0,0.0,0.0,0.0,0.0,0.0,0.0,0.0,0.0,0.0,-0.7829,-0.7913,-0.8648,-0.8824,-0.7401,-0.3323,-0.3194,-0.1722,0.2311,0.208,0.0,0.0,0.0,0.0,0.0,0.0,0.0,0.0,0.0,0.0,0.0,0.0,0.0,0.0,0.0,0.0,0.0,0.0,0.0,0.0,0.0,0.0,0.0,0.0,0.0,0.0,0.0,0.0,0.0,0.0,0.0,0.0,0.0,0.0,0.0,0.0,0.0,0.0,0.0,0.0,0.0,0.0,0.0,0.0,0.0,0.0,0.0,0.0,0.0,0.0,0.0,0.0,0.0,0.0,0.0,0.0,0.0,0.0,0.0,0.0,0.0,0.0,0.0,0.0,0.0,0.0,0.0,0.0,0.0,0.0,0.0,0.0,0.0,0.0,0.0,0.0,0.0,0.0,0.0,0.0,0.0,0.0,0.0,0.0,0.0,0.0,0.0,0.0,0.0,0.0,0.0,0.0,0.0,0.0,0.0,0.0,0.0,0.0,0.0,0.0,0.0,0.0,-0.7829,-0.8019,-0.8579,-0.8783,-0.7367,-0.3293,-0.325,-0.1605,0.2141,0.0,0.0,0.0,0.0,0.0,0.0,0.0,0.0,0.0,0.0,0.0,0.0,0.0,0.0,0.0,0.0,0.0,0.0,0.0,0.0,0.0,0.0,0.0,0.0,0.0,0.0,0.0,0.0,0.0,0.0,0.0,0.0,0.0,0.0,0.0,0.0,0.0,0.0,0.0,0.0,0.0,0.0,0.0,0.0,0.0,0.0,0.0,0.0,0.0,0.0,0.0,0.0,0.0,0.0,0.0,0.0,0.0,0.0,0.0,0.0,0.0,0.0,0.0,0.0,0.0,0.0,0.0,0.0,0.0,0.0,0.0,0.0,0.0,0.0,0.0,0.0,0.0,0.0,0.0,0.0,0.0,0.0,0.0,0.0,0.0,0.0,0.0,0.0,0.0,0.0,0.0,0.0,0.0,0.0,0.0,0.0,0.0,0.0,0.0,0.0,0.0,0.0,-0.7399,-0.7829,-0.8152,-0.8493,-0.8151,-0.6568,-0.3259,-0.2545,-0.0956,0.2127,0.0,0.0,0.0,0.0,0.0,0.0,0.0,0.0,0.0,0.0,0.0,0.0,0.0,0.0,0.0,0.0,0.0,0.0,0.0,0.0,0.0,0.0,0.0,0.0,0.0,0.0,0.0,0.0,0.0,0.0,0.0,0.0,0.0,0.0,0.0,0.0,0.0,0.0,0.0,0.0,0.0,0.0,0.0,0.0,0.0,0.0,0.0,0.0,0.0,0.0,0.0,0.0,0.0,0.0,0.0,0.0,0.0,0.0,0.0,0.0,0.0,0.0,0.0,0.0,0.0,0.0,0.0,0.0,0.0,0.0,0.0,0.0,0.0,0.0,0.0,0.0,0.0,0.0,0.0,0.0,0.0,0.0,0.0,0.0,0.0,0.0,0.0,0.0,0.0,0.0,0.0,0.0,0.0,0.0,0.0,0.0,0.0,0.0,0.0,0.0,0.0,0.0,-0.733,-0.754,-0.7868,-0.8411,-0.6767,-0.5017,-0.3046,-0.1296,0.0454,0.0,0.0,0.0,0.0,0.0,0.0,0.0,0.0,0.0,0.0,0.0,0.0,0.0,0.0,0.0,0.0,0.0,0.0,0.0,0.0,0.0,0.0,0.0,0.0,0.0,0.0,0.0,0.0,0.0,0.0,0.0,0.0,0.0,0.0,0.0,0.0,0.0,0.0,0.0,0.0,0.0,0.0,0.0,0.0,0.0,0.0,0.0,0.0,0.0,0.0,0.0,0.0,0.0,0.0,0.0,0.0,0.0,0.0,0.0,0.0,0.0,0.0,0.0,0.0,0.0,0.0,0.0,0.0,0.0,0.0,0.0,0.0,0.0,0.0,0.0,0.0,0.0,0.0,0.0,0.0,0.0,0.0,0.0,0.0,0.0,0.0,0.0,0.0,0.0,0.0,0.0,0.0,0.0,0.0,0.0,0.0,0.0,0.0,0.0,0.0,0.0,0.0,0.0,-0.733,-0.7481,-0.7774,-0.8317,-0.6738,-0.5017,-0.3046,-0.1316,0.0462,0.2274,0.0,0.0,0.0,0.0,0.0,0.0,0.0,0.0,0.0,0.0,0.0,0.0,0.0,0.0,0.0,0.0,0.0,0.0,0.0,0.0,0.0,0.0,0.0,0.0,0.0,0.0,0.0,0.0,0.0,0.0,0.0,0.0,0.0,0.0,0.0,0.0,0.0,0.0,0.0,0.0,0.0,0.0,0.0,0.0,0.0,0.0,0.0,0.0,0.0,0.0,0.0,0.0,0.0,0.0,0.0,0.0,0.0,0.0,0.0,0.0,0.0,0.0,0.0,0.0,0.0,0.0,0.0,0.0,0.0,0.0,0.0,0.0,0.0,0.0,0.0,0.0,0.0,0.0,0.0,0.0,0.0,0.0,0.0,0.0,0.0,0.0,0.0,0.0,0.0,0.0,0.0,0.0,0.0,0.0,0.0,0.0,0.0,0.0,0.0,0.0,0.0,0.0,-0.72,-0.7523,-0.7487,-0.7245,-0.5662,-0.3762,-0.1971,-0.0166,0.1244,0.2244,0.0,0.0,0.0,0.0,0.0,0.0,0.0,0.0,0.0,0.0,0.0,0.0,0.0,0.0,0.0,0.0,0.0,0.0,0.0,0.0,0.0,0.0,0.0,0.0,0.0,0.0,0.0,0.0,0.0,0.0,0.0,0.0,0.0,0.0,0.0,0.0,0.0,0.0,0.0,0.0,0.0,0.0,0.0,0.0,0.0,0.0,0.0,0.0,0.0,0.0,0.0,0.0,0.0,0.0,0.0,0.0,0.0,0.0,0.0,0.0,0.0,0.0,0.0,0.0,0.0,0.0,0.0,0.0,0.0,0.0,0.0,0.0,0.0,0.0,0.0,0.0,0.0,0.0,0.0,0.0,0.0,0.0,0.0,0.0,0.0,0.0,0.0,0.0,0.0,0.0,0.0,0.0,0.0,0.0,0.0,0.0,0.0,0.0,0.0,0.0,0.0,0.0,-0.6929,-0.7456,-0.7263,-0.5698,-0.3893,-0.215,-0.0179,0.1674,0.2499,0.2354,0.0,0.0,0.0,0.0,0.0,0.0,0.0,0.0,0.0,0.0,0.0,0.0,0.0,0.0,0.0,0.0,0.0,0.0,0.0,0.0,0.0,0.0,0.0,0.0,0.0,0.0,0.0,0.0,0.0,0.0,0.0,0.0,0.0,0.0,0.0,0.0,0.0,0.0,0.0,0.0,0.0,0.0,0.0,0.0,0.0,0.0,0.0,0.0,0.0,0.0,0.0,0.0,0.0,0.0,0.0,0.0,0.0,0.0,0.0,0.0,-0.239,0.0,0.0,0.0,0.0,0.0,0.0,0.0,0.0,0.0,0.0,0.0,0.0,0.0,0.0,0.0,0.0,0.0,0.0,0.0,0.0,0.0,0.0,0.0,0.0,0.0,0.0,0.0,0.0,0.0,0.0,0.0,0.0,0.0,0.0,0.0,0.0,0.0,0.0,0.0,0.0,0.0,-0.7356,-0.7556,-0.72,-0.5693,-0.3893,-0.215,-0.0179,0.1674,0.2526,0.2444,0.2187,0.0,0.0,0.0,0.0,0.0,0.0,0.0,0.0,0.0,0.0,0.0,0.0,0.0,0.0,0.0,0.0,0.0,0.0,0.0,0.0,0.0,0.0,0.0,0.0,0.0,0.0,0.0,0.0,0.0,0.0,0.0,0.0,0.0,0.0,0.0,0.0,0.0,0.0,0.0,0.0,0.0,0.0,0.0,0.0,0.0,0.0,0.0,0.0,0.0,0.0,0.0,0.0,0.0,0.0,0.0,0.0,0.0,0.0,0.0,0.0,-0.2207,0.0,0.0,0.0,0.0,0.0,0.0,0.0,0.0,0.0,0.0,0.0,0.0,0.0,0.0,0.0,0.0,0.0,0.0,0.0,0.0,0.0,0.0,0.0,0.0,0.0,0.0,0.0,0.0,0.0,0.0,0.0,0.0,0.0,0.0,0.0,0.0,0.0,0.0,0.0,0.0,-0.7217,-0.754,-0.7181,-0.5693,-0.3893,-0.215,-0.0179,0.1682,0.2542,0.2453,0.2218,0.0,0.0,0.0,0.0,0.0,0.0,0.0,0.0,0.0,0.0,0.0,0.0,0.0,0.0,0.0,0.0,0.0,0.0,0.0,0.0,0.0,0.0,0.0,0.0,0.0,0.0,0.0,0.0,0.0,0.0,0.0,0.0,0.0,0.0,0.0,0.0,0.0,0.0,0.0,0.0,0.0,0.0,0.0,0.0,0.0,0.0,0.0,0.0,0.0,0.0,0.0,0.0,0.0,-0.6277,-0.6545,-0.6685,-0.6848,-0.6781,-0.6619,-0.5095,-0.2973,-0.0664,-0.0707,0.0,0.0,0.0,0.0,0.0,0.0,0.0,0.0,0.0,0.0,0.0,0.0,0.0,0.0,0.0,0.0,0.0,0.0,0.0,0.0,0.0,0.0,0.0,0.0,0.0761,0.1107,0.0,0.0,0.0,0.0,0.0,0.0,0.0,0.0,0.0,0.0,0.0,0.0,-0.6913,-0.7386,-0.7033,-0.5176,-0.3716,-0.1971,0.0359,0.187,0.2577,0.2462,0.2281,0.2109,0.0,0.0,0.0,0.0,0.0,0.0,0.0,0.0,0.0,0.0,0.0,0.0,0.0,0.0,0.0,0.0,0.0,0.0,0.0,0.0,0.0,0.0,0.0,0.0,0.0,0.0,0.0,0.0,0.0,0.0,0.0,0.0,-0.0856,-0.0949,0.0,0.0,0.0,0.0,0.0,0.0,0.0,0.0,0.0,0.0,0.0,0.0,0.0,-0.3624,-0.6713,-0.7031,-0.6986,-0.6716,-0.7603,-0.8159,-0.8214,-0.929,-0.9315,-0.877,-0.641,0.0,-0.0628,-0.0244,0.0,0.0,0.0,0.0,0.0,0.0,0.0,0.0,0.0,0.0,0.0,0.0,0.0,0.0,0.0,0.0,0.0,0.0,0.0,0.0,0.0,0.0,0.1307,0.0508,0.0519,0.0779,0.0,0.0374,-0.0979,-0.1952,-0.308,0.0,0.0,0.0,0.0,0.0,0.0,0.0,-0.6843,-0.7403,-0.6598,-0.3281,-0.3007,-0.1434,0.2154,0.2605,0.2679,0.2585,0.2386,0.2251,0.22,0.2026,0.0,0.0,0.0,0.0,0.0,0.0,0.0,0.0,0.0,0.0,0.0,0.0,0.0,0.0,0.0,0.0,0.0,0.0,0.0,0.0,0.0,0.0,0.0,0.0,0.0,0.0,0.0,0.0,0.0,-0.0539,-0.0334,-0.0313,-0.0892,-0.1371,0.0,0.0,0.0,0.0,0.0,0.0,0.0,0.0,0.0,-0.121,-0.0999,-0.1779,-0.3616,-0.7566,-0.922,-0.8792,-0.9647,-0.9918,-0.9593,-1.0525,-1.054,-0.9988,-0.6833,-0.3789,-0.1069,0.0141,0.0663,0.0631,0.0,0.0,0.0,0.0,-0.2576,-0.3229,-0.2719,-0.2331,0.0,-0.3058,0.0,0.0,0.0,0.0,0.0,0.0,0.0,0.0,0.0,0.0,0.2071,0.1655,0.1547,0.1694,0.2123,0.1792,0.0661,0.0,-0.3684,-0.5291,-0.5858,0.0,0.0,0.0,0.0,-0.6574,-0.6958,-0.7468,-0.7275,-0.5874,-0.4067,-0.215,-0.0538,0.1568,0.2713,0.2656,0.2457,0.2304,0.2223,0.2114,0.2034,0.0,0.0,0.0,0.0,0.0,0.0,0.0,0.0,0.0,0.0,0.0,0.0,0.0,0.0,0.0,0.0,0.0,0.0,0.0,0.0,0.0,0.0,0.0,0.0,0.0,0.0,0.0,0.0,-0.0112,0.0,0.0,-0.0351,-0.1216,0.0,0.0,0.0,0.0,0.0,0.0,-0.3375,-0.2245,-0.1325,-0.0896,-0.0315,-0.0163,-0.0658,-0.5673,-0.9026,-1.0936,-1.0315,-1.0207,-1.0614,-1.0962,-1.0942,-1.0368,-0.6543,-0.3951,-0.1747,0.0633,0.16,0.1495,0.1469,0.0393,-0.1293,-0.2097,-0.3455,-0.4711,-0.4049,-0.388,-0.4358,-0.5367,0.0,-0.4616,-0.2609,0.0,0.0,0.0,0.0,-0.0,0.0521,0.1477,0.2368,0.2387,0.2425,0.2431,0.2454,0.21,0.1,0.0,-0.3727,-0.5297,-0.6034,0.0,0.0,0.0,0.0,-0.6623,-0.7101,-0.7554,-0.7805,-0.7634,-0.4783,-0.2688,-0.215,0.0873,0.2736,0.2706,0.2529,0.2375,0.2262,0.2206,0.2108,0.1958,0.0,0.0,0.0,0.0,0.0,0.0,0.0,0.0,0.0,0.0,0.0,0.0,0.0,0.0,0.0,0.0,0.0,0.0,0.0,0.0,0.0,0.0,0.0,0.0,0.0,0.0,0.0,0.0,0.0,0.0,-0.0,0.0,0.0,0.0,0.0,-0.4195,-0.5434,-0.659,-0.7659,-0.3513,-0.0955,-0.0832,-0.0345,-0.0,-0.0,-0.0377,-0.4377,-1.2149,-0.8006,-0.782,-1.118,-1.0591,-1.0153,-0.9681,-0.5687,-0.375,-0.2741,0.0997,0.2527,0.2477,0.2335,0.172,0.0721,-0.1548,-0.3804,-0.5827,-0.5677,-0.6258,-0.7319,-0.7178,-0.6509,-0.544,-0.3054,-0.2409,0.0,0.0,-0.1793,-0.0926,-0.069,0.0847,0.2328,0.2508,0.2551,0.2551,0.2552,0.142,-0.0,0.0,-0.2159,-0.3167,-0.6019,0.0,-0.6296,-0.6308,-0.6607,-0.6929,-0.7219,-0.7648,-0.7391,-0.5963,-0.4093,-0.215,-0.0359,0.1583,0.2767,0.2737,0.2619,0.251,0.2416,0.2303,0.221,0.2143,0.2033,0.0,0.0,0.0,0.0,0.0,0.0,0.0,0.0,0.0,0.0,0.0,0.0,0.0,0.0,0.0,0.0,0.0,0.0,0.0,0.0,0.0,0.0,0.0,0.0,0.0,0.0,0.0,0.0,0.0,0.0,0.0,-0.1838,-0.3954,-0.5276,-0.5351,-0.381,-0.3166,-0.4031,-0.5784,-0.4774,-0.0542,-0.0185,0.0,0.0,0.0,-0.0787,-0.2341,-0.5308,-0.7074,-0.7414,-0.9553,-1.0505,-0.9889,-0.7125,-0.4972,-0.3406,-0.036,0.1548,0.265,0.2578,0.1898,0.0626,-0.0469,-0.2664,-0.5193,-0.5338,-0.6389,-0.7536,-0.5989,-0.474,-0.3435,-0.255,-0.2556,-0.2989,-0.2974,-0.1801,-0.0574,-0.0444,0.1061,0.2489,0.2592,0.2616,0.2616,0.2616,0.2118,0.1286,-0.0311,-0.2219,-0.4277,-0.6452,-0.6717,-0.6639,-0.6811,-0.6945,-0.7145,-0.7476,-0.786,-0.7835,-0.7317,-0.4611,-0.2688,-0.1971,0.1049,0.2742,0.271,0.2578,0.2469,0.2398,0.2298,0.2198,0.2098,0.2018,0.1971,0.0,0.0,0.0,0.0,0.0,0.0,0.0,0.0,0.0,0.0,0.0,0.0,0.0,0.0,0.0,0.0,0.0,0.0,0.0,0.0,0.0,0.0,0.0,0.0,0.0,0.0,-0.0149,-0.0,0.0,0.0,0.0,-0.2194,-0.4584,-0.6886,-0.4015,-0.1905,-0.1236,-0.7177,-0.8538,-0.4239,-0.078,0.1182,0.119,0.0807,0.1214,0.2602,-0.1818,-0.4444,-0.5397,-0.7987,-0.9368,-0.9934,-0.7868,-0.5658,-0.3484,-0.1136,0.1102,0.2838,0.2777,0.2217,0.1179,0.0509,-0.1698,-0.4246,-0.5092,-0.6084,-0.6659,-0.3927,-0.2711,-0.2335,-0.2283,-0.3006,-0.376,-0.4338,-0.3261,-0.1835,-0.1098,0.032,0.1963,0.2511,0.2686,0.2677,0.2677,0.2669,0.2158,0.0329,-0.2057,-0.4273,-0.6057,-0.667,-0.7047,-0.719,-0.7239,-0.7378,-0.7713,-0.8015,-0.8244,-0.8366,-0.5142,-0.2863,-0.2853,0.0523,0.2732,0.268,0.2556,0.2447,0.2367,0.2297,0.2208,0.2097,0.2007,0.1956,0.1945,0.0,0.0,0.0,0.0,0.0,0.0,0.0,0.0,0.0,0.0,0.0,0.0,0.0,0.0,0.0,0.0,0.0,0.0,0.0,0.0,0.0,0.0,0.0,-0.1578,-0.1175,-0.0631,-0.0,0.0,0.0,0.0,0.0,-0.2474,-0.8588,-0.6454,-0.3377,-0.0,-0.6979,-1.1236,-1.1752,-0.202,0.3265,0.3324,0.2284,0.1661,0.1867,0.2698,0.0207,-0.5386,-0.5595,-0.7011,-0.9608,-0.7689,-0.5383,-0.3133,-0.097,0.1154,0.3041,0.2926,0.2879,0.2699,0.0899,-0.1077,-0.304,-0.4728,-0.5385,-0.4819,-0.1142,-0.0961,-0.2065,-0.2299,-0.3517,-0.5097,-0.6949,-0.6285,-0.4823,-0.2961,-0.1334,0.0507,0.2249,0.2761,0.2739,0.2739,0.2716,0.2189,0.0505,-0.1322,-0.3069,-0.4572,-0.6281,-0.7353,-0.7423,-0.7484,0.0,-0.7909,-0.8097,-0.8272,-0.8452,-0.5164,-0.3033,-0.2825,0.0524,0.274,0.2649,0.2557,0.2455,0.2337,0.2303,0.2244,0.2154,0.2009,0.1919,0.1888,0.0,0.0,0.0,0.0,0.0,0.0,0.0,0.0,0.0,0.0,0.0,0.0,0.0,0.0,0.0,0.0,0.0,0.0,0.0,0.0,0.0,0.0,-0.4231,-0.4417,-0.2724,-0.1039,-0.0184,0.0,0.0,0.0,0.0,-0.0771,-0.2332,-0.1777,-0.02,0.2419,0.0406,-0.1226,-0.2059,0.0618,0.2479,0.3322,0.3134,0.2925,0.2906,0.1044,-0.1247,-0.3898,-0.5577,-0.7629,-0.9812,-0.9109,-0.6832,-0.3392,-0.2536,-0.0193,0.308,0.3025,0.3003,0.3001,0.2419,0.0923,-0.0915,-0.2911,-0.2684,-0.1404,-0.0349,-0.0342,-0.0837,-0.2155,-0.383,-0.5706,-0.7493,-0.6714,-0.5436,-0.4786,-0.2403,0.0,0.0521,0.1734,0.277,0.277,0.2763,0.2586,0.2068,0.0514,-0.1692,-0.4631,-0.5567,-0.6198,-0.7709,-0.7848,0.0,-0.8101,-0.8228,-0.8342,-0.846,-0.6412,-0.4459,-0.3001,-0.0684,0.1157,0.2396,0.2427,0.2337,0.2304,0.2232,0.2159,0.209,0.2049,0.2003,0.0,0.0,0.0,0.0,0.0,0.0,0.0,0.0,0.0,0.0,0.0,0.0,0.0,0.0,0.0,0.0,0.0,0.0,0.0,0.0,0.0,0.0,-0.1607,-0.3621,-0.6686,-0.5777,-0.3703,-0.0399,0.0,0.0412,0.1447,0.144,0.123,0.082,0.0828,0.1248,0.2694,0.3124,0.3138,0.2519,0.2519,0.2734,0.3378,0.3396,0.3389,0.3359,0.1687,-0.021,-0.1871,-0.4178,-0.646,0.0,-0.8427,-0.6518,-0.322,-0.2375,0.0196,0.0,0.0,0.0,0.0,0.0,0.0941,-0.0187,-0.1303,-0.0919,0.0181,0.0903,0.1244,0.0872,-0.0867,-0.2772,-0.4677,-0.6544,-0.6388,-0.5385,-0.4535,-0.2272,0.0175,0.1056,0.1932,0.2801,0.2801,0.2792,0.2784,0.2784,0.192,0.0,-0.3778,-0.4927,-0.5915,-0.7827,-0.8134,-0.8138,-0.8244,-0.8334,-0.8411,-0.8468,-0.6767,-0.4996,-0.3001,-0.1197,0.0,0.0,0.0,0.2319,0.2256,0.2189,0.0,0.0,0.0,0.2053,0.1994,0.0,0.0,0.0,-0.0489,-0.1825,0.0,0.0,0.0,0.0,0.0,0.0,0.0,0.0,0.0,0.0,0.0,0.0,0.0,0.0,0.0,0.0,0.0635,-0.0691,-0.6964,-0.7813,-0.5848,-0.0207,0.021,0.1061,0.3205,0.3422,0.3208,0.2138,0.1924,0.1918,0.1903,0.0,0.0,0.0,0.0,0.3435,0.3463,0.3459,0.3444,0.3416,0.3414,0.213,-0.0,-0.2126,-0.4231,-0.6292,-0.6292,-0.4964,-0.2828,-0.0807,0.1197,0.3137,0.308,0.3055,0.286,0.0953,0.0381,0.038,0.0377,0.0,0.0,0.239,0.2906,0.2517,0.071,-0.1054,-0.2963,-0.487,-0.5393,-0.4886,-0.3348,-0.1414,0.0532,0.2149,0.2675,0.2834,0.2834,0.2812,0.2793,0.2793,0.2815,0.1593,-0.1944,-0.4026,-0.5911,-0.7999,-0.8342,-0.8338,-0.835,-0.8419,-0.8477,-0.8485,0.0,0.0,-0.3001,-0.1382,0.0503,0.241,0.2476,0.236,0.2217,0.2188,0.2159,0.2125,0.2121,0.2091,0.2034,0.2008,0.2009,0.2035,0.0649,-0.0637,0.0,0.0,0.0,0.0,0.0,0.0,0.0,0.0,0.0,0.0,0.0,0.0,0.0,0.0,0.0,0.0473,0.1023,0.1479,0.1209,0.1025,0.1453,0.2752,0.1937,0.1739,0.2177,0.3049,0.3484,0.3267,0.3267,0.3264,0.3259,0.3259,0.3479,0.3484,0.3484,0.3487,0.3493,0.3469,0.3454,0.3448,0.0,0.0,0.0,-0.0424,-0.1906,-0.3989,-0.3989,-0.2709,-0.0618,-0.0203,0.1197,0.314,0.3103,0.3074,0.3052,0.267,0.2479,0.2478,0.2474,0.2459,0.244,0.2805,0.2969,0.2567,0.0719,-0.0179,0.0,-0.4591,-0.46,-0.3741,-0.482,-0.2502,0.0179,0.0538,0.1792,0.2866,0.2866,0.286,0.2856,0.2856,0.2861,0.2147,-0.0179,-0.2125,-0.4395,-0.7914,-0.8383,-0.8362,-0.8436,-0.846,-0.8501,-0.8575,-0.8238,-0.6602,-0.3178,-0.2573,-0.0999,0.2435,0.2487,0.2379,0.2278,0.2289,0.2274,0.2221,0.2195,0.2165,0.2128,0.2123,0.2123,0.2127,0.0645,-0.0763,0.0,0.0,0.0,0.0,0.0,0.0,0.0,0.0,0.0,0.0,0.0,0.2287,0.2213,0.0,0.1302,0.2054,0.2398,0.2564,0.27,0.3184,0.3662,0.3693,0.3067,0.2647,0.2658,0.3326,0.3549,0.3549,0.3549,0.354,0.3524,0.3524,0.3524,0.3524,0.3524,0.3524,0.3524,0.3509,0.3493,0.348,0.3464,0.2801,0.1716,0.0646,-0.0644,-0.1703,-0.1703,-0.1054,-0.0,0.1219,0.2202,0.3164,0.3149,0.3115,0.3073,0.3058,0.3052,0.3052,0.3052,0.3041,0.3029,0.3029,0.3009,0.2793,0.1842,0.0914,-0.0363,-0.2335,-0.2149,-0.1613,-0.2688,-0.0717,0.1436,0.1436,0.2154,0.2874,0.2874,0.2874,0.2874,0.2874,0.2874,0.2334,0.0359,-0.0714,-0.2666,-0.6577,-0.7081,-0.7424,-0.8357,-0.8538,-0.8558,-0.8603,-0.8607,-0.6974,-0.3202,-0.1209,0.067,0.2444,0.2518,0.2442,0.2383,0.2364,0.2342,0.2312,0.2282,0.2252,0.2222,0.2237,0.2237,0.2222,0.1505,0.0403,0.0,0.0,0.0,0.0,0.0,0.0,0.0,0.1834,0.1531,0.1617,0.2129,0.2384,0.2336,0.2344,0.2315,0.2947,0.3347,0.3318,0.2326,0.3029,0.3524,0.3551,0.3555,0.3565,0.3587,0.3589,0.3594,0.3596,0.36,0.3589,0.3572,0.3565,0.3562,0.3562,0.3555,0.3555,0.3555,0.3549,0.3534,0.3509,0.3506,0.3502,0.3502,0.1527,0.0651,0.0647,0.0644,0.0635,0.0621,0.2441,0.3217,0.3195,0.3183,0.3149,0.3103,0.3071,0.3058,0.3052,0.3052,0.3052,0.3052,0.3052,0.3036,0.3014,0.3009,0.1857,0.0549,0.0183,0.0363,0.054,0.018,0.1438,0.2874,0.2874,0.2874,0.2874,0.2874,0.2874,0.2874,0.2874,0.2874,0.2334,0.0897,0.0538,-0.0717,-0.4657,-0.5554,-0.6273,-0.7889,-0.8429,-0.8607,-0.8607,-0.8607,-0.6984,-0.3216,0.0524,0.2717,0.2626,0.2575,0.2533,0.2496,0.2443,0.2413,0.2413,0.2378,0.2348,0.2326,0.2342,0.2338,0.2318,0.2339,0.1575,0.1915,0.0935,-0.0117,-0.0123,-0.0998,-0.128,0.0,0.1995,0.2315,0.2559,0.2661,0.2752,0.2822,0.2289,0.2048,0.213,0.2845,0.3388,0.3475,0.352,0.3555,0.3583,0.3587,0.3587,0.3589,0.3589,0.36,0.3628,0.3632,0.3639,0.3663,0.3639,0.3625,0.3625,0.36,0.3587,0.3587,0.3558,0.3544,0.354,0.3513,0.3502,0.3502,0.3257,0.3026,0.302,0.2949,0.2913,0.2901,0.3052,0.3228,0.322,0.3168,0.3144,0.3134,0.3104,0.3076,0.3052,0.3052,0.3052,0.3052,0.3052,0.305,0.3041,0.3014,0.2814,0.2242,0.0555,0.1283,0.2182,0.0363,0.1445,0.2874,0.2874,0.2874,0.2874,0.2874,0.2874,0.2874,0.2874,0.2874,0.2874,0.2694,0.2515,0.1256,-0.2688,-0.4659,-0.5733,-0.5915,-0.7531,-0.8607,-0.8607,-0.8607,-0.7143,-0.3182,0.0529,0.278,0.2688,0.2676,0.2646,0.2589,0.2556,0.254,0.254,0.2482,0.2453,0.2448,0.2425,0.2412,0.2409,0.2412,0.1634,0.0129,-0.114,-0.2418,-0.385,-0.5115,-0.4895,-0.0904,0.0154,0.0787,0.2464,0.2908,0.3014,0.2913,0.2869,0.2794,0.2853,0.3173,0.3484,0.3524,0.3551,0.3565,0.354,0.3555,0.3569,0.3589,0.3589,0.3604,0.3632,0.3636,0.3649,0.3681,0.3652,0.3636,0.3636,0.3607,0.3589,0.3589,0.3576,0.3572,0.3572,0.3558,0.3555,0.3551,0.354,0.3517,0.3478,0.3369,0.3321,0.3315,0.3255,0.322,0.3204,0.3179,0.3148,0.3112,0.3082,0.3063,0.3052,0.3052,0.3052,0.3052,0.3052,0.3052,0.305,0.3037,0.3021,0.2816,0.2056,0.2398,0.2733,0.1821,0.2352,0.2874,0.2874,0.2874,0.2874,0.2874,0.2874,0.2874,0.2874,0.2874,0.2874,0.2874,0.2874,0.2334,0.0718,-0.215,-0.4478,-0.5554,-0.7349,-0.8607,-0.8607,-0.663,-0.4651,-0.3027,0.0713,0.2831,0.2776,0.2772,0.2752,0.2709,0.2662,0.2637,0.2637,0.2577,0.2538,0.2522,0.251,0.2503,0.2503,0.2503,0.2185,-0.0266,-0.2003,-0.3668,-0.5431,-0.6661,-0.6515,-0.2605,-0.1169,-0.0,0.2315,0.2945,0.3032,0.3097,0.3219,0.3324,0.3371,0.3474,0.3549,0.3555,0.3562,0.3549,0.3495,0.3493,0.3506,0.3538,0.3562,0.3596,0.3645,0.3649,0.3663,0.3705,0.367,0.3649,0.3649,0.3611,0.3589,0.3589,0.3589,0.3589,0.3589,0.3589,0.3589,0.3589,0.3583,0.3544,0.3484,0.3388,0.3336,0.3315,0.3255,0.3219,0.3198,0.3182,0.3149,0.3107,0.3076,0.3059,0.3052,0.3052,0.3052,0.3052,0.3052,0.3052,0.3052,0.3052,0.3037,0.302,0.302,0.2981,0.2939,0.2931,0.2908,0.2886,0.2886,0.2886,0.2887,0.2897,0.2898,0.2896,0.2887,0.2886,0.2883,0.2875,0.2874,0.2874,0.2874,0.0,-0.2867,-0.4659,-0.6991,-0.8607,-0.8607,-0.5196,-0.2867,-0.2867,0.0718,0.2861,0.283,0.2829,0.2815,0.2785,0.2742,0.2713,0.2705,0.2653,0.2612,0.2583,0.2575,0.2571,0.2571,0.2571,0.2582,0.1916,-0.0395,-0.2895,-0.3052,-0.4048,-0.4418,-0.2867,-0.0928,0.0951,0.2696,0.3114,0.3138,0.3141,0.3216,0.3306,0.3396,0.3486,0.3555,0.3583,0.354,0.3493,0.3463,0.3407,0.3384,0.3414,0.3495,0.3583,0.3674,0.3681,0.3705,0.3764,0.3712,0.3681,0.3681,0.3621,0.3589,0.3589,0.3589,0.3589,0.3589,0.3589,0.3589,0.3589,0.3558,0.3513,0.3457,0.3423,0.3375,0.3315,0.3255,0.323,0.3223,0.3167,0.3144,0.3138,0.3107,0.3078,0.3052,0.3052,0.3052,0.3052,0.3052,0.3052,0.3052,0.3052,0.3051,0.3051,0.3051,0.3028,0.2998,0.2968,0.2938,0.2915,0.2915,0.2915,0.2923,0.2953,0.2958,0.295,0.292,0.2915,0.2906,0.2879,0.2874,0.2874,0.2874,0.1256,-0.0717,-0.2688,-0.6273,-0.8607,-0.8607,-0.5196,-0.2867,-0.2867,0.0718,0.2861,0.283,0.2829,0.2815,0.2785,0.2781,0.2766,0.2737,0.2706,0.2675,0.2645,0.2615,0.26,0.2437,0.26,0.2601,0.0957,-0.0148,-0.129,-0.2241,-0.2896,-0.2816,-0.1154,-0.0195,0.0784,0.2738,0.3071,0.3029,0.3048,0.3093,0.3163,0.3273,0.3401,0.3509,0.358,0.3572,0.352,0.341,0.3415,0.3407,0.3356,0.3434,0.3524,0.3614,0.3656,0.3699,0.3739,0.3701,0.3681,0.3681,0.3621,0.3589,0.3589,0.3589,0.3589,0.3589,0.3589,0.3589,0.3589,0.3558,0.3524,0.3484,0.3434,0.3377,0.3318,0.3277,0.3225,0.3171,0.315,0.3118,0.3081,0.3071,0.3061,0.3052,0.3052,0.3052,0.3052,0.3052,0.3052,0.3052,0.3052,0.3052,0.3052,0.3052,0.3031,0.2999,0.2969,0.2939,0.2916,0.2916,0.2916,0.2924,0.2954,0.2961,0.2953,0.2921,0.2916,0.2906,0.2879,0.2874,0.2874,0.2874,0.0179,-0.2688,-0.4478,-0.6991,-0.8607,-0.8607,-0.5196,-0.2867,-0.2867,0.0718,0.287,0.2859,0.2859,0.2855,0.2844,0.2825,0.2808,0.2799,0.2769,0.2737,0.2707,0.2676,0.2662,0.2661,0.2641,0.2642,0.1208,0.0494,-0.0178,-0.1134,-0.1374,-0.1209,-0.0,0.0814,0.1617,0.2787,0.3061,0.2961,0.296,0.2949,0.2983,0.3112,0.3225,0.3347,0.349,0.3482,0.3445,0.3404,0.3404,0.3395,0.3356,0.3416,0.3495,0.3583,0.3645,0.3694,0.3726,0.3699,0.3681,0.3681,0.3621,0.3589,0.3589,0.3589,0.3589,0.3589,0.3589,0.3589,0.3589,0.3569,0.354,0.3499,0.3461,0.3397,0.3318,0.3288,0.323,0.3157,0.3146,0.3112,0.3069,0.3069,0.3062,0.3052,0.3052,0.3052,0.3052,0.3052,0.3052,0.3052,0.3052,0.3052,0.3052,0.3052,0.3039,0.3016,0.2986,0.2962,0.2949,0.2949,0.2949,0.2957,0.2987,0.2994,0.2984,0.2954,0.2949,0.2939,0.2911,0.2905,0.2905,0.2905,0.0181,-0.2529,-0.4483,-0.6451,-0.7889,-0.8607,-0.5196,-0.2867,-0.2867,0.0718,0.2874,0.2874,0.2874,0.2874,0.2874,0.2855,0.284,0.2829,0.281,0.278,0.2737,0.2718,0.2703,0.2692,0.2672,0.2673,0.2706,0.1442,0.0189,0.0404,0.0416,0.0422,0.0637,0.2114,0.3335,0.3236,0.307,0.2924,0.2863,0.2785,0.278,0.2932,0.2995,0.3108,0.3347,0.3306,0.3303,0.3442,0.3384,0.3352,0.3407,0.3441,0.3495,0.3583,0.3645,0.3694,0.3723,0.3699,0.3681,0.3681,0.3625,0.3589,0.3589,0.3589,0.3589,0.3589,0.3589,0.3589,0.3589,0.3589,0.3558,0.3499,0.3502,0.3434,0.3318,0.329,0.3243,0.3187,0.3156,0.3125,0.3097,0.3096,0.3077,0.3052,0.3052,0.3052,0.3052,0.3052,0.3052,0.3052,0.3052,0.3052,0.3052,0.3052,0.3052,0.3046,0.3014,0.3006,0.3006,0.3006,0.3006,0.3016,0.3046,0.3052,0.3043,0.3013,0.3005,0.2995,0.2966,0.2961,0.2961,0.2961,0.1479,-0.055,-0.2519,-0.4487,-0.6461,-0.8262,-0.5204,-0.2871,-0.2871,0.0719,0.2879,0.2879,0.2876,0.2876,0.2876,0.2875,0.286,0.2831,0.2831,0.2801,0.2743,0.2743,0.2727,0.2697,0.2697,0.2697,0.2875,0.2714,0.2486,0.2543,0.2579,0.2588,0.2543,0.2919,0.3247,0.3067,0.2852,0.2664,0.2557,0.2592,0.2694,0.2868,0.311,0.3343,0.3538,0.3549,0.3524,0.3495,0.3471,0.3445,0.3415,0.346,0.352,0.3587,0.3645,0.3684,0.3692,0.3705,0.3705,0.3681,0.3643,0.3614,0.3589,0.3589,0.3589,0.3589,0.3589,0.3589,0.3589,0.3589,0.3544,0.3469,0.3493,0.3434,0.3321,0.3313,0.3273,0.3215,0.3163,0.3125,0.3095,0.3071,0.3059,0.3052,0.3052,0.3052,0.3052,0.3052,0.3052,0.3052,0.3052,0.3052,0.3052,0.3052,0.3052,0.3046,0.3014,0.3006,0.3006,0.3006,0.3006,0.3016,0.3046,0.3052,0.3043,0.3013,0.2988,0.2971,0.2962,0.2961,0.2961,0.2961,0.2591,0.1477,-0.0367,-0.3665,-0.6047,-0.6416,-0.4397,-0.2932,-0.2932,0.0734,0.2939,0.2939,0.2917,0.2905,0.2905,0.2885,0.2871,0.2863,0.2863,0.2844,0.2806,0.2806,0.2789,0.2761,0.2761,0.2761,0.314,0.3341,0.3516,0.3549,0.3558,0.3516,0.3345,0.326,0.3135,0.2845,0.2635,0.2473,0.2365,0.2421,0.2548,0.2743,0.2996,0.3255,0.3502,0.3538,0.3549,0.3576,0.3569,0.3551,0.3531,0.3562,0.3594,0.3628,0.366,0.3688,0.3701,0.3705,0.3699,0.3681,0.3639,0.3607,0.3589,0.3589,0.3589,0.3589,0.3589,0.3589,0.3589,0.3589,0.3549,0.3478,0.0,0.3422,0.332,0.3307,0.3266,0.3208,0.3161,0.3125,0.3093,0.3063,0.3052,0.3052,0.3052,0.3052,0.3052,0.3052,0.3052,0.3052,0.3052,0.3052,0.3052,0.3052,0.3052,0.3048,0.3031,0.3026,0.3026,0.3026,0.3026,0.3031,0.3048,0.3052,0.3051,0.3047,0.3033,0.3025,0.3039,0.3018,0.3006,0.3018,0.301,0.2626,0.1499,-0.2042,-0.4801,-0.5723,-0.4061,-0.2954,-0.2954,0.0739,0.2961,0.2961,0.2932,0.2916,0.2916,0.2889,0.2874,0.2874,0.2874,0.2859,0.2829,0.2829,0.2812,0.2784,0.2784,0.2784,0.3427,0.3558,0.3649,0.3681,0.3656,0.3555,0.3285,0.3164,0.2998,0.2609,0.2433,0.232,0.2226,0.2277,0.2406,0.2628,0.2826,0.3069,0.34,0.3448,0.3506,0.3667,0.366,0.3652,0.3677,0.3681,0.3681,0.3688,0.3688,0.3699,0.3726,0.3701,0.3684,0.3674,0.3618,0.3589,0.3589,0.3589,0.3589,0.3589,0.3589,0.3589,0.3589,0.3589,0.3555,0.3495,0.3468,0.0,0.3325,0.329,0.3249,0.3202,0.3164,0.313,0.31,0.3069,0.3058,0.3058,0.3058,0.3061,0.3063,0.3055,0.3052,0.3052,0.3052,0.3052,0.3052,0.3052,0.3052,0.3052,0.3052,0.3052,0.3052,0.3052,0.3052,0.3054,0.3058,0.3061,0.3071,0.3099,0.3103,0.3112,0.3138,0.3099,0.3073,0.31,0.3081,0.3063,0.3059,-0.0188,-0.3337,-0.5191,-0.3708,-0.2781,-0.2966,0.0742,0.2973,0.2973,0.2945,0.2928,0.2928,0.2901,0.2883,0.2879,0.2883,0.2871,0.284,0.284,0.2829,0.2807,0.2803,0.2975,0.3569,0.3639,0.3681,0.3712,0.3639,0.3495,0.3251,0.3052,0.2816,0.2448,0.2277,0.2158,0.2045,0.2192,0.2427,0.2713,0.2975,0.3257,0.3587,0.3636,0.3656,0.3712,0.3692,0.3674,0.3681,0.3681,0.3692,0.3715,0.3719,0.3719,0.3726,0.3723,0.3694,0.3645,0.3607,0.3589,0.3589,0.3589,0.3589,0.3589,0.3589,0.3589,0.3589,0.3589,0.3544,0.3465,0.346,0.0,0.3354,0.3299,0.3284,0.329,0.3212,0.3161,0.3131,0.3101,0.3089,0.3089,0.3089,0.3107,0.3119,0.3069,0.3052,0.3052,0.3052,0.3052,0.3052,0.3052,0.3052,0.3052,0.3052,0.3052,0.3052,0.3052,0.3052,0.3059,0.3084,0.311,0.3129,0.3134,0.3134,0.3137,0.3142,0.3134,0.3129,0.3134,0.313,0.3118,0.3093,0.0954,-0.1326,-0.3218,-0.1704,-0.1137,-0.284,0.0758,0.3036,0.3036,0.3007,0.2991,0.2991,0.2962,0.2934,0.2909,0.2934,0.2931,0.2901,0.2901,0.2911,0.293,0.2905,0.2893,0.3677,0.3739,0.3775,0.3775,0.367,0.3472,0.3108,0.2885,0.2631,0.2191,0.2067,0.2016,0.1943,0.2125,0.236,0.2583,0.2834,0.3116,0.3448,0.352,0.3587,0.3712,0.3726,0.3723,0.3705,0.3719,0.3726,0.3726,0.3739,0.375,0.375,0.3719,0.3681,0.3636,0.3607,0.3589,0.3589,0.3589,0.3589,0.3589,0.3572,0.3576,0.3589,0.3558,0.352,0.3478,0.3431,0.0,0.3362,0.33,0.3284,0.3292,0.3232,0.3183,0.314,0.3108,0.3097,0.3097,0.3097,0.3118,0.3135,0.3091,0.3076,0.3073,0.3056,0.3052,0.3052,0.3052,0.3052,0.3052,0.3052,0.3052,0.3052,0.3052,0.3065,0.3084,0.3115,0.3145,0.3167,0.3167,0.3167,0.3171,0.3186,0.3163,0.3148,0.3164,0.3153,0.3138,0.3123,0.2136,0.0772,-0.1152,-0.1542,-0.1543,-0.1535,0.0384,0.1916,0.3054,0.3024,0.3006,0.3006,0.2977,0.2954,0.2939,0.2954,0.2954,0.2939,0.2939,0.2947,0.2961,0.2946,0.2939,0.3757,0.3824,0.3851,0.3831,0.3699,0.345,0.2988,0.2742,0.2473,0.1994,0.1904,0.1906,0.1889,0.2056,0.2255,0.2431,0.2639,0.2904,0.3261,0.3369,0.349,0.3701,0.3754,0.3761,0.3737,0.3757,0.3761,0.3737,0.3757,0.3768,0.3761,0.3708,0.3667,0.3636,0.3607,0.3589,0.3589,0.3589,0.3589,0.3589,0.3565,0.3565,0.3587,0.3534,0.3509,0.3499,0.3412,0.3377,0.0,0.3303,0.328,0.3281,0.3245,0.3194,0.3141,0.3123,0.3112,0.3108,0.3115,0.3137,0.3156,0.3127,0.3108,0.3092,0.3061,0.3052,0.3052,0.3052,0.3052,0.3054,0.3061,0.3062,0.3063,0.307,0.3095,0.3123,0.3148,0.3176,0.3197,0.3197,0.3197,0.3204,0.3227,0.3191,0.317,0.3194,0.3176,0.3159,0.3153,0.3157,0.2559,0.0779,-0.0782,-0.1368,-0.0,0.0388,0.1354,0.3073,0.305,0.3036,0.3036,0.3007,0.2987,0.2981,0.2981,0.2977,0.2971,0.2971,0.2975,0.298,0.2975,0.2971,0.4271,0.3855,0.3859,0.3855,0.3681,0.3407,0.3006,0.2692,0.2379,0.2004,0.1885,0.1857,0.1881,0.197,0.2124,0.2386,0.2537,0.2776,0.3217,0.3356,0.349,0.3701,0.3754,0.3772,0.3768,0.3772,0.3772,0.3768,0.3772,0.3761,0.3733,0.3699,0.3667,0.3636,0.3607,0.3589,0.3589,0.3589,0.3589,0.3589,0.3587,0.3587,0.3589,0.3555,0.3527,0.3499,0.3435,0.3408,0.0,0.3313,0.3292,0.3311,0.3253,0.3194,0.3146,0.3171,0.3163,0.3142,0.3171,0.3198,0.3217,0.3189,0.3142,0.3092,0.3061,0.3052,0.3052,0.3052,0.3052,0.3058,0.3086,0.3093,0.31,0.3127,0.3157,0.318,0.3183,0.3206,0.3227,0.3227,0.3227,0.3227,0.323,0.3225,0.3223,0.3225,0.3224,0.3213,0.3187,0.3206,0.3212,0.2983,0.2763,0.1962,0.0196,0.1764,0.2941,0.3134,0.3131,0.313,0.313,0.3101,0.3071,0.3044,0.3044,0.3031,0.3002,0.3002,0.3017,0.3043,0.3016,0.3002,0.4208,0.3859,0.3904,0.3869,0.3639,0.3324,0.295,0.2602,0.2267,0.1943,0.1843,0.1823,0.1853,0.1917,0.2019,0.2181,0.2278,0.2459,0.2821,0.2934,0.3111,0.3467,0.3551,0.3625,0.3733,0.3761,0.3772,0.3772,0.3772,0.3764,0.3754,0.3708,0.3674,0.3663,0.3614,0.3589,0.3589,0.3589,0.3589,0.3589,0.3572,0.3572,0.3589,0.354,0.3524,0.3524,0.3445,0.3412,0.0,0.3333,0.3299,0.3291,0.3266,0.3221,0.3171,0.3183,0.318,0.3172,0.3185,0.3206,0.3225,0.3197,0.316,0.3119,0.3089,0.308,0.308,0.308,0.3093,0.311,0.3122,0.3125,0.3133,0.3163,0.3179,0.3193,0.321,0.3223,0.323,0.323,0.323,0.323,0.323,0.323,0.323,0.323,0.323,0.3225,0.3215,0.3223,0.3225,0.3215,0.2001,0.1393,0.198,0.1583,0.1776,0.2947,0.3142,0.3142,0.3142,0.3114,0.31,0.3107,0.307,0.3055,0.3061,0.3043,0.304,0.3052,0.304,0.3035,0.4524,0.4048,0.3918,0.3851,0.3589,0.3258,0.2897,0.2534,0.2192,0.19,0.1816,0.1805,0.1835,0.1876,0.1933,0.2023,0.2104,0.2253,0.2538,0.2652,0.2844,0.3216,0.3314,0.3425,0.3614,0.3716,0.3772,0.3772,0.3772,0.3772,0.3772,0.3712,0.3684,0.3694,0.3636,0.3604,0.3604,0.3594,0.3589,0.3589,0.3569,0.3569,0.3589,0.3538,0.352,0.3527,0.3446,0.3412,0.0,0.3345,0.3309,0.3288,0.3279,0.324,0.3189,0.3198,0.3195,0.3189,0.3198,0.3213,0.3227,0.3208,0.318,0.315,0.312,0.3104,0.3099,0.3108,0.3133,0.3156,0.3156,0.3163,0.3174,0.3195,0.3201,0.3206,0.3225,0.323,0.3232,0.3242,0.3236,0.3232,0.3242,0.3236,0.323,0.323,0.323,0.323,0.323,0.323,0.323,0.323,0.1815,0.161,0.3002,0.1798,0.1593,0.2972,0.3168,0.3168,0.3168,0.314,0.3134,0.3156,0.3106,0.3089,0.3111,0.3081,0.3066,0.3066,0.3056,0.3052,0.5581,0.4624,0.3883,0.3795,0.3544,0.3227,0.2866,0.2504,0.2169,0.1896,0.1816,0.1805,0.1835,0.184,0.187,0.1963,0.2078,0.224,0.2481,0.2643,0.2806,0.2988,0.3065,0.3183,0.3395,0.3632,0.3772,0.3772,0.3772,0.3772,0.3772,0.3712,0.3694,0.3726,0.3667,0.3636,0.3636,0.3604,0.3589,0.3589,0.3589,0.3589,0.3589,0.3558,0.3531,0.3499,0.3438,0.3412,0.0,0.3345,0.3321,0.3317,0.3287,0.324,0.3191,0.3219,0.3212,0.3193,0.322,0.323,0.323,0.323,0.321,0.3182,0.3152,0.3122,0.3104,0.3134,0.3164,0.3187,0.3187,0.3209,0.323,0.323,0.323,0.323,0.323,0.323,0.3239,0.3269,0.3251,0.3239,0.327,0.325,0.323,0.323,0.323,0.323,0.323,0.323,0.323,0.323,0.323,0.323,0.323,0.323,0.323,0.323,0.323,0.323,0.323,0.3202,0.3187,0.3187,0.3157,0.3142,0.3142,0.3112,0.3097,0.3096,0.3066,0.3052,0.5962,0.558,0.5604,0.522,0.4555,0.3874,0.349,0.2721,0.2063,0.1853,0.1802,0.1798,0.1808,0.1827,0.1877,0.1988,0.2054,0.2162,0.2363,0.2555,0.2773,0.3037,0.3358,0.3583,0.3652,0.3726,0.3772,0.3772,0.3772,0.3772,0.3772,0.3754,0.373,0.3694,0.3636,0.3604,0.3604,0.3594,0.3589,0.3589,0.3589,0.3589,0.3589,0.3558,0.354,0.3527,0.3468,0.3431,0.0,0.3369,0.3328,0.3288,0.328,0.3251,0.3217,0.3227,0.3224,0.3219,0.3227,0.323,0.323,0.323,0.3197,0.3163,0.3193,0.3182,0.3165,0.3194,0.3209,0.3217,0.3217,0.3224,0.323,0.323,0.323,0.323,0.323,0.323,0.3239,0.3269,0.3251,0.324,0.327,0.325,0.323,0.323,0.323,0.323,0.323,0.323,0.323,0.323,0.323,0.323,0.323,0.323,0.323,0.323,0.323,0.323,0.323,0.3204,0.3197,0.3216,0.3168,0.3153,0.3174,0.3144,0.3118,0.3097,0.3066,0.3052,0.6581,0.6255,0.6187,0.5988,0.4984,0.4172,0.3836,0.2832,0.2096,0.228,0.2242,0.2354,0.2802,0.2826,0.2774,0.254,0.2517,0.252,0.2292,0.2507,0.2755,0.3046,0.3419,0.3652,0.3652,0.3737,0.3786,0.3772,0.3772,0.3772,0.3772,0.3761,0.3733,0.3681,0.3643,0.3618,0.3607,0.3596,0.3589,0.3589,0.3589,0.3583,0.3572,0.3551,0.3534,0.3509,0.3461,0.3429,0.0,0.338,0.3337,0.3292,0.3292,0.3268,0.323,0.323,0.323,0.323,0.323,0.323,0.3228,0.3217,0.3174,0.3134,0.3183,0.3201,0.3208,0.3225,0.323,0.323,0.323,0.323,0.323,0.323,0.323,0.323,0.323,0.323,0.3239,0.3269,0.3251,0.324,0.327,0.326,0.3247,0.3247,0.3257,0.326,0.3249,0.3247,0.3243,0.3231,0.323,0.323,0.323,0.323,0.323,0.323,0.323,0.323,0.323,0.3213,0.3212,0.323,0.3194,0.3185,0.3204,0.3174,0.3138,0.3097,0.3078,0.3063,0.0,0.6625,0.6021,0.5894,0.5063,0.4105,0.3863,0.2866,0.0,0.2943,0.3131,0.3352,0.4372,0.448,0.4279,0.3457,0.3323,0.3175,0.256,0.2523,0.2788,0.3058,0.3321,0.3478,0.3474,0.3681,0.3803,0.3775,0.3772,0.3772,0.3772,0.3744,0.3715,0.3681,0.3681,0.3667,0.3632,0.3604,0.3589,0.3589,0.3589,0.3576,0.3549,0.3544,0.3513,0.0,0.3426,0.0,0.0,0.3381,0.3351,0.3321,0.3321,0.3284,0.323,0.323,0.323,0.323,0.323,0.3228,0.3223,0.3191,0.3145,0.3106,0.3134,0.318,0.3224,0.3227,0.3228,0.323,0.323,0.323,0.323,0.323,0.323,0.323,0.323,0.323,0.3239,0.3269,0.3251,0.324,0.3273,0.3277,0.3276,0.3279,0.3303,0.3311,0.3283,0.3279,0.3268,0.3239,0.3235,0.3234,0.3234,0.3231,0.323,0.323,0.323,0.323,0.323,0.323,0.323,0.323,0.323,0.323,0.323,0.3202,0.3159,0.31,0.3099,0.3081,0.723,0.0,0.7594,0.7259,0.595,0.4671,0.0,0.3114,0.208,0.293,0.3071,0.327,0.4422,0.447,0.4398,0.451,0.392,0.3475,0.3539,0.332,0.3185,0.3434,0.36,0.3681,0.3632,0.3723,0.3779,0.3772,0.3772,0.3772,0.3772,0.3764,0.3737,0.3681,0.3681,0.3656,0.36,0.3594,0.3589,0.3589,0.3589,0.3587,0.358,0.3534,0.3506,0.3489,0.3435,0.0,0.3411,0.3404,0.337,0.3321,0.3321,0.3284,0.323,0.323,0.323,0.323,0.323,0.3216,0.3189,0.3137,0.3125,0.3133,0.3141,0.3153,0.3168,0.3191,0.3213,0.323,0.323,0.323,0.323,0.323,0.323,0.323,0.323,0.323,0.3239,0.3269,0.3251,0.3247,0.33,0.3291,0.3284,0.3307,0.3317,0.3318,0.3311,0.331,0.3307,0.33,0.3279,0.3265,0.3265,0.3243,0.323,0.323,0.323,0.323,0.323,0.323,0.323,0.323,0.323,0.323,0.323,0.3202,0.317,0.3131,0.3108,0.3081,0.7002,0.7442,0.7861,0.7736,0.6659,0.5557,0.5385,0.411,0.324,0.4063,0.4095,0.4407,0.5575,0.5669,0.566,0.5608,0.4756,0.392,0.355,0.3857,0.3874,0.352,0.3632,0.3699,0.3719,0.3764,0.3786,0.3772,0.3772,0.3772,0.3772,0.3757,0.373,0.3681,0.3667,0.3639,0.3589,0.3589,0.3583,0.3569,0.3569,0.3555,0.3527,0.3495,0.3475,0.3459,0.3426,0.0,0.3411,0.3397,0.3363,0.332,0.3306,0.3272,0.323,0.323,0.323,0.323,0.323,0.3202,0.3161,0.3129,0.312,0.3122,0.3122,0.3141,0.317,0.32,0.3219,0.323,0.323,0.323,0.323,0.323,0.323,0.323,0.323,0.323,0.3235,0.3251,0.3242,0.3245,0.3292,0.3298,0.3307,0.3337,0.3354,0.3358,0.3344,0.3341,0.3336,0.3322,0.3306,0.3296,0.3296,0.3281,0.3266,0.3251,0.3251,0.3257,0.3272,0.3258,0.3245,0.3231,0.323,0.323,0.323,0.3215,0.3193,0.3164,0.3146,0.3115,0.6736,0.7016,0.7517,0.7552,0.7075,0.6332,0.6161,0.517,0.4586,0.5392,0.5558,0.5785,0.6926,0.716,0.7138,0.6798,0.5886,0.4715,0.3225,0.4015,0.4462,0.3705,0.3576,0.3652,0.3748,0.3788,0.3795,0.3768,0.3764,0.3761,0.3757,0.3733,0.3705,0.3674,0.3649,0.3621,0.3589,0.3589,0.3576,0.3544,0.3544,0.3516,0.3464,0.346,0.3444,0.3419,0.0,0.0,0.341,0.338,0.3348,0.3318,0.3287,0.3257,0.323,0.323,0.323,0.323,0.3225,0.3191,0.3149,0.3144,0.3126,0.3106,0.311,0.3148,0.3194,0.3223,0.323,0.323,0.323,0.323,0.323,0.323,0.323,0.323,0.323,0.323,0.323,0.323,0.3234,0.3247,0.3277,0.3307,0.3339,0.3369,0.3396,0.3403,0.3377,0.3373,0.3363,0.3337,0.333,0.3328,0.3328,0.3324,0.3311,0.3291,0.3285,0.3292,0.3313,0.329,0.3261,0.3231,0.323,0.323,0.323,0.323,0.3216,0.3189,0.3189,0.3159,0.7122,0.6722,0.6527,0.7168,0.6837,0.6368,0.6336,0.5422,0.4812,0.5769,0.5696,0.5957,0.7241,0.7535,0.7801,0.8231,0.7001,0.5428,0.352,0.3536,0.3691,0.3565,0.3674,0.373,0.3699,0.3748,0.3764,0.3737,0.3733,0.3723,0.3694,0.3692,0.3674,0.3643,0.3639,0.3621,0.3589,0.3589,0.3576,0.3544,0.3544,0.3527,0.3495,0.3469,0.3454,0.3449,0.0,0.3412,0.341,0.338,0.3348,0.3318,0.3287,0.3257,0.323,0.323,0.323,0.3227,0.3202,0.3189,0.3178,0.3152,0.314,0.3141,0.3167,0.318,0.3194,0.3223,0.323,0.323,0.323,0.323,0.323,0.323,0.323,0.323,0.323,0.323,0.323,0.323,0.3251,0.3279,0.3309,0.3339,0.337,0.34,0.3408,0.341,0.3405,0.3405,0.3403,0.3399,0.3375,0.3359,0.3359,0.3336,0.333,0.3351,0.3328,0.3305,0.3283,0.3279,0.3261,0.3231,0.323,0.323,0.323,0.323,0.3216,0.3189,0.3189,0.317,0.679,0.6832,0.6765,0.6574,0.0,0.5769,0.5545,0.5007,0.4899,0.5843,0.589,0.6171,0.7611,0.7386,0.6844,0.6302,0.6482,0.5755,0.3575,0.3909,0.4251,0.3527,0.3604,0.3663,0.3701,0.373,0.3733,0.3705,0.3701,0.3694,0.3681,0.3667,0.3649,0.3636,0.3618,0.3604,0.3589,0.3572,0.3551,0.3524,0.3524,0.3499,0.3453,0.344,0.3433,0.3433,0.0,0.3403,0.3385,0.3355,0.3324,0.3294,0.3264,0.3242,0.323,0.323,0.323,0.3228,0.3216,0.3201,0.3186,0.3172,0.3167,0.317,0.3185,0.321,0.3235,0.3231,0.323,0.323,0.323,0.323,0.323,0.323,0.3243,0.3254,0.3254,0.3254,0.3254,0.3254,0.3266,0.3285,0.3315,0.3345,0.3377,0.3407,0.3412,0.3412,0.3412,0.3412,0.3412,0.3412,0.3399,0.339,0.339,0.3378,0.3369,0.3366,0.3369,0.3356,0.3326,0.3309,0.3285,0.3255,0.3239,0.323,0.323,0.323,0.3224,0.321,0.321,0.3195,0.6584,0.6806,0.6823,0.6098,0.0,0.5632,0.498,0.4972,0.5134,0.5847,0.5713,0.6006,0.7488,0.7197,0.6269,0.5088,0.5789,0.5656,0.3659,0.4135,0.4446,0.3747,0.3576,0.3632,0.3719,0.3726,0.3712,0.3674,0.367,0.3667,0.366,0.3639,0.3625,0.3625,0.3596,0.358,0.358,0.3549,0.3524,0.3502,0.3495,0.3464,0.3412,0.3412,0.3408,0.3401,0.3401,0.338,0.3343,0.3313,0.3285,0.3262,0.3232,0.3224,0.323,0.323,0.323,0.323,0.323,0.3216,0.3198,0.3198,0.3198,0.3198,0.3198,0.3235,0.3269,0.3239,0.3235,0.3239,0.3232,0.323,0.323,0.323,0.3254,0.3273,0.3266,0.3276,0.3284,0.3277,0.3287,0.3305,0.3328,0.3356,0.3385,0.3408,0.3412,0.3412,0.3412,0.3412,0.3412,0.3412,0.3412,0.3412,0.3412,0.3412,0.3401,0.3378,0.3399,0.3399,0.3367,0.3344,0.3317,0.3287,0.3264,0.3247,0.324,0.3247,0.3245,0.323,0.3238,0.3225,0.7013,0.6527,0.588,0.6027,0.6931,0.0,0.568,0.5789,0.0,0.5518,0.5158,0.5438,0.6665,0.7284,0.7497,0.6892,0.596,0.5019,0.3718,0.3594,0.3882,0.3667,0.3719,0.3748,0.373,0.3726,0.3701,0.3643,0.3639,0.3625,0.3596,0.3594,0.3594,0.3594,0.3562,0.3549,0.3549,0.352,0.3506,0.3502,0.3474,0.3444,0.3412,0.3412,0.3396,0.337,0.337,0.3336,0.328,0.325,0.3235,0.3231,0.3202,0.3208,0.323,0.323,0.323,0.323,0.323,0.3228,0.3227,0.3227,0.3227,0.3227,0.3227,0.325,0.3269,0.3239,0.325,0.3266,0.3238,0.323,0.323,0.323,0.3254,0.3268,0.3239,0.3277,0.331,0.3281,0.3321,0.336,0.3363,0.3388,0.341,0.3411,0.3412,0.3412,0.3412,0.3412,0.3412,0.3412,0.3412,0.3412,0.3412,0.3412,0.3411,0.3408,0.3411,0.3399,0.3367,0.3365,0.335,0.3318,0.3315,0.33,0.3272,0.33,0.3285,0.3231,0.326,0.3255,0.6877,0.6422,0.5863,0.6035,0.6673,0.0,0.0,0.4667,0.4888,0.4875,0.4695,0.4929,0.6121,0.7234,0.745,0.6006,0.5947,0.5587,0.3777,0.3618,0.3652,0.3652,0.3692,0.3701,0.3674,0.367,0.3652,0.3611,0.3607,0.36,0.3589,0.3589,0.3583,0.3562,0.3551,0.3538,0.352,0.3489,0.3475,0.3475,0.3463,0.3441,0.3412,0.3412,0.3395,0.3366,0.3366,0.3321,0.3246,0.3235,0.3209,0.3176,0.3185,0.3205,0.323,0.323,0.323,0.323,0.323,0.323,0.323,0.323,0.323,0.3234,0.3253,0.328,0.3302,0.329,0.3295,0.3296,0.3266,0.3245,0.3239,0.3277,0.3295,0.33,0.329,0.3305,0.3317,0.3306,0.3322,0.3344,0.3363,0.3392,0.3412,0.3412,0.3412,0.3412,0.3412,0.3412,0.3412,0.3412,0.3412,0.3412,0.3412,0.3412,0.3412,0.3412,0.3412,0.3407,0.3395,0.3377,0.336,0.335,0.333,0.3315,0.3303,0.3315,0.3309,0.3287,0.3279,0.3269,0.673,0.6409,0.6094,0.0,0.0,0.0,0.4292,0.4284,0.4598,0.4254,0.4236,0.4677,0.5515,0.7057,0.763,0.6547,0.6497,0.6347,0.4918,0.4067,0.3636,0.3636,0.3663,0.367,0.3639,0.3636,0.3621,0.3594,0.3589,0.3589,0.3589,0.3589,0.3576,0.3544,0.4184,0.4163,0.3489,0.4094,0.4074,0.3442,0.3442,0.3433,0.3411,0.3401,0.3381,0.3351,0.3341,0.3287,0.3202,0.3202,0.3179,0.3146,0.3176,0.3205,0.323,0.323,0.323,0.323,0.323,0.323,0.323,0.323,0.323,0.3234,0.3255,0.329,0.3318,0.331,0.3314,0.3315,0.3295,0.326,0.324,0.3283,0.3307,0.3318,0.3309,0.3329,0.3347,0.3337,0.3343,0.3356,0.3377,0.3399,0.3412,0.3412,0.3412,0.3412,0.3412,0.3412,0.3412,0.3412,0.3412,0.3412,0.3412,0.3412,0.3412,0.3412,0.3412,0.3412,0.3412,0.3392,0.3381,0.3381,0.336,0.3345,0.3336,0.3345,0.334,0.3321,0.331,0.3299,0.6654,0.6714,0.6577,0.5673,0.0,0.0,0.4413,0.4959,0.5256,0.3497,0.4027,0.4828,0.5059,0.681,0.848,0.8806,0.7862,0.7098,0.7161,0.5192,0.3636,0.3636,0.366,0.3667,0.3639,0.3636,0.3621,0.3594,0.3589,0.3589,0.3589,0.3589,0.3576,0.3544,0.5656,0.5605,0.3456,0.5512,0.5488,0.3411,0.3411,0.3411,0.3411,0.3381,0.335,0.332,0.3288,0.3225,0.3142,0.3142,0.3142,0.3146,0.3176,0.3205,0.323,0.323,0.323,0.323,0.323,0.323,0.323,0.323,0.3231,0.3231,0.3231,0.3273,0.3315,0.3285,0.3298,0.3321,0.3321,0.3276,0.3231,0.3231,0.3277,0.3313,0.3283,0.3348,0.3403,0.3373,0.339,0.3411,0.3412,0.3412,0.3412,0.3412,0.3412,0.3412,0.3412,0.3412,0.3412,0.3412,0.3412,0.3412,0.3412,0.3412,0.3412,0.3412,0.3412,0.3412,0.3412,0.3412,0.3412,0.3412,0.3412,0.3397,0.3367,0.3397,0.3381,0.3322,0.3352,0.3351,0.691,0.6083,0.5387,0.5954,0.559,0.4815,0.4476,0.458,0.0,0.0,0.3414,0.4557,0.7043,0.875,0.9924,1.1056,1.0212,0.8801,0.7379,0.5169,0.3604,0.3604,0.3611,0.3614,0.3604,0.3604,0.36,0.3589,0.3589,0.3589,0.3589,0.3569,0.3544,0.3516,0.5605,0.6387,0.5717,0.6277,0.6269,0.5694,0.3985,0.337,0.3411,0.3381,0.335,0.3318,0.3266,0.3205,0.314,0.3097,0.3104,0.3144,0.3153,0.3186,0.323,0.323,0.323,0.323,0.323,0.323,0.323,0.323,0.3245,0.3262,0.3262,0.3305,0.3351,0.3341,0.3347,0.3352,0.3352,0.3324,0.3299,0.3321,0.334,0.3351,0.3341,0.336,0.3377,0.3369,0.3374,0.3386,0.3408,0.3412,0.3412,0.3412,0.3412,0.3412,0.3412,0.3412,0.3412,0.3412,0.3412,0.3412,0.3412,0.3431,0.3434,0.3414,0.3433,0.3434,0.3412,0.3412,0.3412,0.3412,0.3412,0.3407,0.3399,0.3407,0.3403,0.3385,0.3373,0.3362,0.6408,0.5602,0.4906,0.5117,0.462,0.4123,0.4028,0.3998,0.3922,0.3504,0.332,0.4333,0.7359,0.9304,1.0874,1.2797,1.2502,1.104,0.894,0.6493,0.4709,0.3814,0.3589,0.3589,0.3589,0.3589,0.3587,0.3572,0.3572,0.3565,0.3555,0.3538,0.3944,0.4762,0.682,0.7789,0.7928,0.786,0.7447,0.6476,0.4367,0.334,0.3374,0.3344,0.3321,0.3299,0.3239,0.3186,0.314,0.3091,0.3099,0.3142,0.3142,0.3172,0.3215,0.3225,0.323,0.323,0.323,0.323,0.3232,0.3245,0.3261,0.3277,0.329,0.3328,0.3366,0.3366,0.3366,0.3366,0.3366,0.3344,0.3325,0.3344,0.3358,0.3366,0.3366,0.3375,0.3385,0.3385,0.3385,0.339,0.3408,0.3412,0.3412,0.3412,0.3412,0.3412,0.3412,0.3412,0.3412,0.3412,0.3412,0.3416,0.3429,0.3446,0.3454,0.3448,0.3453,0.3449,0.343,0.3418,0.3412,0.3412,0.3412,0.3412,0.3412,0.3412,0.3412,0.3411,0.3393,0.3385,0.5612,0.5322,0.4972,0.3783,0.3764,0.3831,0.3318,0.3288,0.3378,0.3403,0.3604,0.4442,0.6818,0.9166,1.1746,1.4209,1.4293,1.3404,1.0957,0.8724,0.6277,0.3815,0.3589,0.3589,0.3589,0.3587,0.3576,0.3549,0.354,0.3531,0.3502,0.3499,0.4553,0.6594,0.8626,0.9792,0.9704,0.962,0.8603,0.6412,0.4346,0.3314,0.3315,0.3288,0.327,0.3261,0.3208,0.3167,0.3137,0.311,0.3115,0.3142,0.3142,0.3161,0.3191,0.322,0.323,0.323,0.323,0.3232,0.3239,0.3264,0.3276,0.3284,0.331,0.334,0.3366,0.3366,0.3369,0.337,0.337,0.3348,0.3326,0.3329,0.3348,0.3366,0.3366,0.339,0.3412,0.3412,0.3412,0.3412,0.3412,0.3412,0.3412,0.3412,0.3414,0.3415,0.3412,0.3414,0.3416,0.3416,0.3416,0.3429,0.3459,0.3464,0.3476,0.3502,0.3479,0.3463,0.3457,0.3427,0.3412,0.3412,0.3412,0.3412,0.3412,0.3415,0.3415,0.3412,0.3415,0.3415,0.561,0.471,0.3961,0.3848,0.3525,0.3333,0.3264,0.335,0.3397,0.338,0.4922,0.6946,0.9404,1.1818,1.4255,1.6801,1.5575,1.3404,1.0957,0.8724,0.6277,0.3815,0.3589,0.3589,0.3589,0.3569,0.3551,0.3544,0.3524,0.3509,0.3502,0.348,0.4524,0.6594,0.8573,0.9704,0.962,0.9734,0.8723,0.0,0.4278,0.3262,0.3285,0.3279,0.3238,0.3171,0.3159,0.3135,0.3107,0.31,0.3115,0.3142,0.3142,0.3161,0.3191,0.322,0.323,0.323,0.323,0.3246,0.3264,0.3246,0.3272,0.3309,0.3291,0.3324,0.3366,0.3366,0.3384,0.3401,0.3401,0.338,0.3363,0.3386,0.338,0.3366,0.3366,0.339,0.3412,0.3412,0.3412,0.3412,0.3412,0.3412,0.3412,0.3412,0.3433,0.3438,0.3415,0.3433,0.3448,0.3448,0.3448,0.346,0.349,0.3513,0.352,0.3502,0.3516,0.3506,0.3459,0.3427,0.3412,0.3412,0.3412,0.3412,0.3412,0.3435,0.3435,0.3412,0.3437,0.3434,0.5284,0.4753,0.4295,0.3703,0.338,0.3225,0.3285,0.3335,0.3367,0.3367,0.5364,0.7867,1.03,1.2578,1.511,1.7411,1.6741,1.5185,1.2738,1.0281,0.8057,0.5601,0.4259,0.3583,0.3569,0.3555,0.3534,0.3506,0.3489,0.3475,0.346,0.4499,0.5938,0.7974,1.0132,1.1241,1.1143,1.0284,0.8676,0.6493,0.4247,0.3239,0.3254,0.3254,0.3213,0.3144,0.3159,0.314,0.3097,0.3097,0.3107,0.3123,0.3137,0.3153,0.3172,0.3215,0.323,0.323,0.323,0.324,0.3254,0.3253,0.3273,0.3299,0.3298,0.3329,0.3363,0.335,0.3377,0.3408,0.3395,0.3378,0.337,0.3386,0.3378,0.337,0.3385,0.34,0.3412,0.3412,0.3412,0.3412,0.3412,0.3412,0.3412,0.3412,0.3438,0.3452,0.3435,0.346,0.3479,0.3479,0.3479,0.3491,0.352,0.3538,0.3544,0.3544,0.3544,0.3531,0.3499,0.3457,0.3427,0.3412,0.3412,0.3412,0.3412,0.3427,0.3427,0.3412,0.3429,0.3427,0.5144,0.4978,0.4914,0.343,0.3106,0.3209,0.3264,0.3299,0.3328,0.3771,0.5986,0.8258,1.0216,1.3007,1.5593,1.7565,1.7812,1.6917,1.4465,1.2463,1.025,0.737,0.5362,0.4012,0.3549,0.3531,0.3502,0.3453,0.344,0.3425,0.3405,0.5477,0.7509,0.9716,1.1875,1.2781,1.2263,1.0658,0.8457,0.5843,0.4035,0.323,0.323,0.3225,0.3194,0.3144,0.317,0.3149,0.3097,0.3097,0.3097,0.31,0.3131,0.314,0.3142,0.3206,0.3227,0.3224,0.3228,0.3234,0.3242,0.3261,0.3272,0.328,0.3306,0.333,0.3347,0.3326,0.336,0.3399,0.3373,0.3366,0.3367,0.3373,0.337,0.3373,0.3399,0.3408,0.3412,0.3412,0.3412,0.3412,0.3412,0.3412,0.3412,0.3412,0.3442,0.3463,0.3457,0.3487,0.3509,0.3509,0.3509,0.352,0.354,0.3549,0.3562,0.358,0.3562,0.3551,0.3544,0.3499,0.3456,0.342,0.3415,0.3412,0.3412,0.3416,0.3416,0.3412,0.3416,0.3416,0.6203,0.5288,0.4103,0.3332,0.3135,0.3234,0.3268,0.3299,0.3736,0.5604,0.8213,1.0044,1.0326,1.4194,1.72,1.75,1.7589,1.675,1.4222,1.3771,1.1836,0.7521,0.6602,0.5711,0.3763,0.3475,0.3426,0.3419,0.3369,0.335,0.3371,0.5426,0.746,0.9712,1.1875,1.1974,1.0062,0.9861,0.7653,0.3633,0.3431,0.323,0.323,0.3205,0.3175,0.3144,0.3146,0.3129,0.3097,0.3097,0.3097,0.31,0.3131,0.3127,0.3114,0.3198,0.3215,0.3197,0.3221,0.3247,0.3266,0.3243,0.3254,0.3276,0.328,0.3284,0.3292,0.3314,0.3345,0.3371,0.3367,0.3366,0.3373,0.34,0.3385,0.3367,0.3371,0.3393,0.3412,0.3412,0.3412,0.3412,0.3412,0.3412,0.3412,0.3412,0.346,0.3487,0.3461,0.3506,0.3538,0.3538,0.3538,0.354,0.3544,0.3569,0.3576,0.3551,0.3572,0.3572,0.3544,0.3538,0.3506,0.3452,0.3425,0.3412,0.3412,0.3438,0.3438,0.3412,0.3438,0.3437,0.669,0.5428,0.423,0.3309,0.3066,0.3122,0.3186,0.3212,0.3828,0.5863,0.8343,1.0317,1.1887,1.5088,1.7399,1.7419,1.7473,1.7061,1.5908,1.481,1.2654,0.9207,0.7652,0.6112,0.3714,0.3445,0.3405,0.3388,0.333,0.3713,0.4966,0.7172,0.9166,1.1392,1.3575,1.3117,0.9661,0.9661,0.7452,0.323,0.3215,0.3215,0.3228,0.3183,0.3156,0.3142,0.3125,0.31,0.3071,0.3071,0.3071,0.3076,0.3106,0.311,0.3104,0.316,0.3174,0.3164,0.3176,0.3201,0.3224,0.321,0.3227,0.325,0.325,0.3262,0.3275,0.327,0.3317,0.3363,0.3345,0.3366,0.3396,0.3408,0.3401,0.3392,0.3392,0.3403,0.3412,0.3412,0.3412,0.3412,0.3412,0.3412,0.3412,0.3412,0.3464,0.3499,0.3484,0.3534,0.3569,0.3569,0.3569,0.3569,0.3569,0.3583,0.3583,0.3572,0.3583,0.3583,0.3569,0.3555,0.3534,0.3506,0.3461,0.3429,0.3412,0.3425,0.3425,0.3412,0.3426,0.3425,0.7226,0.6067,0.5038,0.3676,0.3474,0.3362,0.3096,0.3131,0.3933,0.6522,0.8303,1.0595,1.3677,1.5844,1.7121,1.7229,1.7311,1.7351,1.7311,1.5797,1.3847,1.1469,0.9079,0.6899,0.4507,0.3816,0.3359,0.3344,0.3287,0.4276,0.6333,0.8496,1.0672,1.27,1.4887,1.4071,0.9661,0.8654,0.6447,0.323,0.3209,0.3206,0.3217,0.3167,0.3138,0.313,0.3107,0.3081,0.3052,0.3052,0.3052,0.3055,0.3085,0.3093,0.3091,0.3129,0.3138,0.3133,0.314,0.3157,0.3178,0.3186,0.3202,0.3221,0.3228,0.3246,0.3261,0.3246,0.3296,0.3351,0.3336,0.3371,0.3412,0.3412,0.3412,0.3412,0.3412,0.3412,0.3412,0.3412,0.3412,0.3412,0.3412,0.3412,0.3415,0.3422,0.3468,0.3506,0.3513,0.3558,0.3589,0.3589,0.3589,0.3587,0.358,0.3587,0.3587,0.358,0.3587,0.3589,0.3589,0.3569,0.3551,0.3544,0.3502,0.3461,0.3423,0.3415,0.3412,0.3412,0.3412,0.3412,0.7756,0.7474,0.7,0.4981,0.4565,0.4489,0.34,0.3101,0.4318,0.8416,0.9391,1.0797,1.508,1.6381,1.6775,1.6781,1.7019,1.7154,1.7026,1.7005,1.594,1.3591,1.1391,0.9034,0.6728,0.4522,0.3251,0.3279,0.3225,0.422,0.6328,0.85,1.0703,1.2823,1.4944,1.4071,0.9661,0.5645,0.3431,0.323,0.3228,0.3215,0.3189,0.3157,0.3127,0.31,0.3099,0.3081,0.3052,0.3052,0.3052,0.3055,0.3085,0.308,0.3062,0.312,0.3125,0.3104,0.3133,0.3144,0.3149,0.3179,0.3189,0.3195,0.3223,0.3231,0.3238,0.3265,0.3298,0.3329,0.3356,0.3388,0.3412,0.3412,0.3412,0.3412,0.3412,0.3412,0.3412,0.3412,0.3412,0.3412,0.3412,0.3412,0.3422,0.345,0.3482,0.3513,0.3538,0.3569,0.3589,0.3589,0.3589,0.358,0.3549,0.3572,0.3576,0.3549,0.3572,0.3589,0.3589,0.3589,0.3572,0.3544,0.354,0.3513,0.3454,0.3426,0.3412,0.3412,0.3412,0.3412,0.8127,0.7702,0.7276,0.5901,0.503,0.4347,0.3979,0.4387,0.5707,0.8492,1.0271,1.2117,1.4956,1.59,1.6205,1.6307,1.649,1.6605,1.6558,1.6632,1.5847,1.3559,1.2482,1.0596,0.6867,0.5716,0.4645,0.3246,0.4361,0.6069,0.8067,1.0197,1.2342,1.4354,1.538,1.3822,0.9485,0.5314,0.3145,0.3145,0.3125,0.312,0.3129,0.3099,0.3089,0.3096,0.3077,0.3062,0.3052,0.3052,0.3052,0.3054,0.3065,0.3062,0.3055,0.3077,0.3078,0.307,0.3081,0.3097,0.3119,0.3149,0.3172,0.3194,0.3221,0.323,0.3236,0.3266,0.3298,0.3328,0.3358,0.3389,0.3412,0.3412,0.3412,0.3412,0.3412,0.3412,0.3412,0.3412,0.3412,0.3412,0.3412,0.3412,0.3415,0.3426,0.3471,0.3506,0.3516,0.3558,0.3589,0.3589,0.3589,0.3587,0.3576,0.3583,0.3587,0.3576,0.3583,0.3589,0.3589,0.3589,0.3587,0.3572,0.3555,0.3527,0.3486,0.3456,0.3441,0.3441,0.342,0.3412,0.8635,0.8307,0.7979,0.7121,0.6188,0.5471,0.5555,0.6061,0.7221,0.9325,1.1171,1.3063,1.5113,1.5691,1.5904,1.5967,1.6218,1.6368,1.632,1.6429,1.5884,1.4398,1.3536,1.1861,0.8778,0.7828,0.6759,0.539,0.6451,0.8114,1.0064,1.1615,1.3356,1.5486,1.4803,1.3268,1.0311,0.6218,0.4075,0.4063,0.3472,0.3088,0.3097,0.3077,0.3073,0.3081,0.3061,0.3052,0.3052,0.3052,0.3052,0.3052,0.3052,0.3052,0.3052,0.3052,0.3052,0.3052,0.3052,0.3066,0.3089,0.313,0.3156,0.318,0.3219,0.323,0.3239,0.328,0.3306,0.333,0.3371,0.3397,0.3412,0.3412,0.3412,0.3412,0.3412,0.3412,0.3412,0.3412,0.3412,0.3412,0.3412,0.3412,0.3415,0.3426,0.3461,0.3495,0.3513,0.3551,0.358,0.3589,0.3589,0.3589,0.3589,0.3589,0.3589,0.3589,0.3589,0.3589,0.3589,0.3589,0.3589,0.3589,0.3569,0.3551,0.3531,0.3482,0.3463,0.3472,0.3441,0.3433,0.0,0.0,0.0,0.8836,0.8269,0.7952,0.7705,0.76,0.8365,1.089,1.2124,1.3456,1.5514,1.5931,1.5891,1.5945,1.6191,1.6435,1.63,1.6402,1.6442,1.6313,1.4337,1.2808,1.27,1.0523,0.9285,0.918,0.9297,1.0248,1.2288,1.2487,1.3462,1.5421,1.3468,1.224,1.2122,0.8171,0.6234,0.5982,0.4095,0.3317,0.3288,0.3288,0.3271,0.3243,0.3243,0.3243,0.3243,0.3051,0.3051,0.305,0.3051,0.3051,0.3051,0.3052,0.3052,0.3052,0.3052,0.3052,0.3062,0.3123,0.3142,0.3153,0.3212,0.323,0.3243,0.3303,0.3321,0.3335,0.3396,0.3412,0.3412,0.3412,0.3412,0.3412,0.3412,0.3412,0.3412,0.3412,0.3412,0.3412,0.3412,0.3412,0.3422,0.3453,0.3457,0.3479,0.3538,0.3544,0.3558,0.3587,0.3589,0.3589,0.3589,0.3589,0.3589,0.3589,0.3589,0.3589,0.3589,0.3589,0.3589,0.3589,0.3589,0.3589,0.3589,0.3502,0.3475,0.3502,0.3472,0.3475,0.9624,0.0,0.0,0.0,0.0,0.0,0.8107,0.8434,0.9267,1.0705,1.2596,1.4381,1.5287,1.5968,1.627,1.5989,1.5709,1.5574,1.5649,1.5689,1.5784,1.5961,1.5257,1.4207,1.2683,1.1885,1.0802,0.0,1.0544,1.16,1.1935,1.3355,1.4473,1.5153,1.3069,1.2107,1.2069,0.9462,0.83,0.8032,0.7684,0.7336,0.737,0.737,0.7386,0.7419,0.7419,0.666,0.514,0.3594,0.3006,0.2988,0.301,0.302,0.3022,0.3044,0.3052,0.3052,0.3052,0.3052,0.3062,0.3123,0.3142,0.3153,0.3212,0.323,0.3243,0.3303,0.3321,0.3335,0.3396,0.3412,0.3412,0.3412,0.3412,0.3412,0.3412,0.3412,0.3412,0.3412,0.3412,0.3412,0.3412,0.3412,0.3422,0.3453,0.3476,0.3502,0.354,0.3565,0.358,0.3589,0.3589,0.3589,0.3589,0.3589,0.3589,0.3589,0.3589,0.3589,0.3589,0.3589,0.3589,0.3589,0.3589,0.3589,0.3589,0.3544,0.3524,0.3531,0.3502,0.3495,0.9754,0.9766,0.9912,1.0163,0.0,0.0,0.9596,0.9996,1.0537,1.1491,1.3221,1.4676,1.5359,1.5891,1.6227,1.6175,1.5789,1.5462,1.5556,1.5653,1.5595,1.5642,1.554,1.4924,1.3897,1.3716,1.302,1.1873,1.2756,1.3439,1.3367,1.4222,1.4964,1.5059,1.3927,1.3337,1.3097,1.1273,1.0301,1.0203,0.9317,0.8991,0.9044,0.9044,0.9073,0.9122,0.9122,0.8345,0.7181,0.5078,0.3752,0.3001,0.3018,0.3025,0.3028,0.3046,0.3052,0.3054,0.3067,0.3063,0.3062,0.3123,0.3142,0.3152,0.3198,0.3221,0.324,0.3288,0.3321,0.3351,0.3399,0.3412,0.3412,0.3412,0.3412,0.3412,0.3412,0.3412,0.3412,0.3412,0.3412,0.3412,0.3412,0.3412,0.3422,0.3453,0.3472,0.3499,0.3538,0.3558,0.3576,0.3589,0.3589,0.3589,0.3589,0.3589,0.3589,0.3589,0.3589,0.3589,0.3589,0.3589,0.3589,0.3589,0.3589,0.3589,0.3589,0.3558,0.3544,0.3544,0.354,0.3538,0.9957,1.0063,1.0297,1.0724,1.0604,0.0,1.1532,1.1554,1.1782,1.2794,1.3771,1.4524,1.528,1.5568,1.5778,1.6058,1.5866,1.5786,1.578,1.5782,1.5737,1.5533,1.5228,1.5201,1.5371,1.5248,1.5167,1.5181,1.5167,1.516,1.516,1.5327,1.5327,1.5341,1.5341,1.5099,1.497,1.3409,1.2466,1.2162,1.0587,0.969,0.969,0.969,0.969,0.969,0.969,0.9642,0.9377,0.7504,0.5471,0.3421,0.3236,0.3047,0.3048,0.3051,0.3052,0.3056,0.3084,0.3074,0.3062,0.3123,0.3142,0.3149,0.3183,0.321,0.3238,0.327,0.3322,0.3373,0.3404,0.3412,0.3412,0.3412,0.3412,0.3412,0.3412,0.3412,0.3412,0.3412,0.3412,0.3412,0.3412,0.3412,0.3423,0.3457,0.3463,0.3483,0.354,0.3549,0.3558,0.3587,0.3589,0.3589,0.3589,0.3589,0.3589,0.3589,0.3589,0.3589,0.3589,0.3589,0.3589,0.3589,0.3589,0.3589,0.3589,0.3562,0.3549,0.3551,0.3576,0.3589,0.0,0.0,0.0,0.0,0.0,0.0,1.0739,1.0755,1.1065,1.1576,1.2196,1.2958,1.3784,1.4397,1.4846,1.4637,1.5441,1.591,1.5933,1.5978,1.584,1.5575,1.5469,1.5306,1.5201,1.5099,1.5059,1.5174,1.5079,1.5197,1.5561,1.5441,1.5427,1.5554,1.5561,1.5361,1.497,1.4732,1.4545,1.4408,1.4171,1.4046,1.4046,1.4046,1.4046,1.4046,1.4046,1.3081,1.1543,1.1167,0.8828,0.5208,0.3568,0.3016,0.3018,0.3043,0.3052,0.3052,0.3059,0.3056,0.3062,0.3123,0.3142,0.3153,0.3206,0.3225,0.3242,0.3296,0.3339,0.3373,0.3404,0.3412,0.3412,0.3412,0.3412,0.3412,0.3412,0.3412,0.3412,0.3412,0.3412,0.3412,0.3412,0.3412,0.343,0.3486,0.3493,0.3516,0.3572,0.358,0.3583,0.3589,0.3589,0.3589,0.3589,0.3589,0.3589,0.3589,0.3589,0.3589,0.3589,0.3589,0.3589,0.3589,0.3589,0.3589,0.3589,0.3583,0.358,0.3583,0.3587,0.3589,0.0,0.0,0.0,1.0802,0.0,0.0,0.0,1.0899,1.094,1.1492,1.184,1.2081,1.2918,1.3375,1.3725,1.3993,1.4789,1.5498,1.5794,1.592,1.6099,1.5804,1.5586,1.5294,1.5417,1.5375,1.5582,1.5917,1.586,1.6004,1.6182,1.611,1.6066,1.6073,1.5881,1.5476,1.5229,1.519,1.5038,1.497,1.5113,1.5368,1.5563,1.5563,1.5744,1.5931,1.5931,1.5362,1.4409,1.3087,1.1319,0.9173,0.5845,0.3973,0.3031,0.3047,0.3052,0.3054,0.307,0.3065,0.3062,0.3123,0.3142,0.3152,0.3195,0.3219,0.3243,0.3303,0.3332,0.3354,0.34,0.3412,0.3412,0.3412,0.3412,0.3412,0.3412,0.3412,0.3412,0.3412,0.3412,0.3412,0.3412,0.3412,0.3433,0.3493,0.3502,0.3524,0.3583,0.3589,0.3589,0.3589,0.3589,0.3589,0.3589,0.3589,0.3589,0.3589,0.3589,0.3589,0.3589,0.3589,0.3589,0.3589,0.3589,0.3589,0.3589,0.3589,0.3589,0.3589,0.3589,0.3589,0.0,0.0,0.0,0.0,0.0,1.1053,0.0,0.0,0.0,1.1622,1.1516,1.1533,1.2142,1.228,1.2532,1.3222,1.3961,1.4594,1.4992,1.5607,1.6019,1.5813,1.5344,1.5305,1.5622,1.5658,1.5759,1.6197,1.6309,1.648,1.6576,1.68,1.6747,1.6589,1.6059,1.5809,1.5476,1.5264,1.497,1.5156,1.53,1.5556,1.5938,1.5938,1.6306,1.6681,1.6681,1.6681,1.6486,1.4409,1.3463,1.271,0.836,0.5713,0.4192,0.4192,0.4192,0.4198,0.3847,0.3839,0.4207,0.3318,0.315,0.3164,0.3189,0.3212,0.3242,0.3296,0.3317,0.3333,0.3389,0.3407,0.3412,0.3412,0.3412,0.3412,0.3412,0.3412,0.3412,0.3412,0.3412,0.3412,0.3412,0.3412,0.343,0.3486,0.3493,0.3516,0.3572,0.358,0.3583,0.3589,0.3589,0.3589,0.3589,0.3589,0.3589,0.3589,0.3589,0.3589,0.3589,0.3589,0.3589,0.3589,0.3589,0.3589,0.3589,0.3589,0.3589,0.3589,0.3589,0.3589,0.0,0.0,0.0,0.0,1.1679,0.0,0.0,0.0,1.1086,1.0696,0.0,1.0858,1.1102,0.0,0.0,1.1313,1.2556,1.349,1.3384,1.4156,1.4732,1.5217,1.527,1.5325,1.5152,1.5182,1.5074,1.4929,1.5305,1.5602,1.6226,1.675,1.7125,1.678,1.6551,1.636,1.6007,1.5257,1.5156,1.5704,1.5673,1.5938,1.5938,1.6306,1.6681,1.6681,1.6681,1.6681,1.6681,1.6299,1.5167,1.3275,1.0068,0.8554,0.8364,0.8364,0.8364,0.8178,0.6288,0.6856,0.7823,0.429,0.3178,0.322,0.3224,0.3228,0.3238,0.327,0.33,0.3329,0.3363,0.3392,0.3412,0.3412,0.3412,0.3412,0.3412,0.3412,0.3412,0.3412,0.3412,0.3412,0.3412,0.3412,0.3423,0.3457,0.3463,0.3483,0.354,0.3549,0.3558,0.3587,0.3589,0.3589,0.3589,0.3589,0.3589,0.3589,0.3589,0.3589,0.3589,0.3589,0.3589,0.3589,0.3589,0.3589,0.3589,0.3589,0.3589,0.3589,0.3589,0.3589,0.0,0.0,0.0,0.0,0.0,0.0,1.1086,0.0,1.0883,0.0,0.0,0.0,0.0,0.0,0.0,0.0,1.1866,1.2491,1.2621,1.3141,1.381,1.4851,1.4392,1.4291,1.4761,1.5089,1.5248,1.5624,1.5459,1.5863,1.6456,1.6728,1.7026,1.7142,1.6845,1.6438,1.6263,1.5804,1.5752,1.5927,1.6182,1.6494,1.6876,1.7055,1.7242,1.7616,1.7616,1.7616,1.7616,1.7242,1.6681,1.573,1.4034,1.214,1.0059,1.0059,1.0059,0.9681,0.7981,0.858,0.9602,0.6474,0.5583,0.5242,0.3633,0.323,0.324,0.3288,0.3298,0.331,0.3375,0.3389,0.339,0.3408,0.3412,0.3412,0.3412,0.3412,0.3412,0.3412,0.3412,0.3412,0.3412,0.3412,0.3429,0.3476,0.3483,0.3506,0.3562,0.3572,0.3576,0.3589,0.3589,0.3589,0.3589,0.3589,0.3589,0.3589,0.3589,0.3589,0.3589,0.3589,0.3589,0.3589,0.3589,0.3589,0.3589,0.3589,0.3589,0.3589,0.3589,0.3589,1.2233,0.0,0.0,0.0,0.0,0.0,0.0,0.0,0.0,0.0,0.0,0.0,0.0,0.0,1.0891,1.1175,0.0,1.1849,1.2052,1.2264,1.2873,1.4156,1.3786,1.3652,1.4307,1.475,1.5184,1.5663,1.5349,1.5483,1.6358,1.6546,1.6777,1.7234,1.6975,1.6758,1.6577,1.6339,1.6152,1.6378,1.6665,1.7009,1.7437,1.7616,1.7803,1.8176,1.8176,1.8176,1.8176,1.7803,1.7624,1.7616,1.7242,1.5341,1.2693,1.2322,1.2322,1.2134,1.0465,1.0367,1.0689,0.908,0.8186,0.7248,0.4841,0.4036,0.4048,0.3693,0.3704,0.3716,0.337,0.3377,0.3374,0.3404,0.3405,0.3401,0.341,0.3412,0.3412,0.3412,0.3412,0.3412,0.3412,0.3419,0.344,0.3483,0.3495,0.352,0.3572,0.3576,0.358,0.3589,0.3589,0.3589,0.3589,0.3589,0.3589,0.3589,0.3589,0.3589,0.3589,0.3589,0.3589,0.3589,0.3589,0.3589,0.3589,0.3589,0.3589,0.3589,0.3589,0.3589,0.0,0.0,0.0,1.2085,0.0,0.0,0.0,0.0,1.1646,0.0,0.0,0.0,0.0,0.0,1.1622,1.1281,1.1533,0.0,0.0,1.1378,1.1614,1.2532,1.3384,1.4043,1.4298,1.4231,1.4082,1.3968,1.4034,1.4557,1.5116,1.5814,1.6503,1.686,1.6671,1.6758,1.7112,1.6232,1.6227,1.6931,1.7102,1.7273,1.7437,1.7989,1.8176,1.8176,1.8176,1.8176,1.8176,1.8176,1.8176,1.8176,1.8176,1.7989,1.7795,1.686,1.6486,1.6321,1.4368,1.2654,1.1279,1.1486,1.0374,0.845,0.6855,0.6455,0.6254,0.5047,0.4704,0.4564,0.353,0.3345,0.3374,0.3404,0.3389,0.3375,0.3405,0.3412,0.3412,0.3412,0.3412,0.3412,0.3412,0.3437,0.3456,0.3459,0.3483,0.3513,0.354,0.3544,0.3558,0.3587,0.3589,0.3589,0.3589,0.3589,0.3589,0.3589,0.3589,0.3589,0.3589,0.3589,0.3589,0.3589,0.3589,0.3589,0.3589,0.3589,0.3589,0.3589,0.3589,0.3589,0.0,0.0,1.4399,1.3149,0.0,0.0,0.0,0.0,0.0,0.0,0.0,0.0,0.0,0.0,1.283,1.3117,1.2596,1.2116,0.0,1.1243,1.1118,1.1784,1.2751,1.323,1.2624,1.3336,1.3552,1.3381,1.3287,1.357,1.4236,1.5089,1.5632,1.5979,1.6609,1.6993,1.7112,1.6936,1.7111,1.7286,1.7644,1.7821,1.7989,1.8176,1.8176,1.8176,1.8176,1.8176,1.8176,1.8176,1.8176,1.8176,1.8176,1.8176,1.816,1.7675,1.7592,1.7828,1.7335,1.6133,1.4661,1.2963,1.2018,1.0849,0.7455,0.6455,0.6463,0.6098,0.5932,0.5771,0.48,0.4406,0.4426,0.3617,0.3404,0.3399,0.341,0.3412,0.3412,0.3412,0.3412,0.3412,0.3412,0.3453,0.3487,0.3487,0.4168,0.4427,0.3569,0.4243,0.4471,0.3589,0.3589,0.3589,0.3589,0.3589,0.3589,0.3589,0.3589,0.3589,0.3589,0.3589,0.36,0.3618,0.3621,0.3628,0.3649,0.3628,0.3621,0.3618,0.36,0.3589,1.4679,1.4879,0.0,1.3839,1.3652,0.0,1.2012,0.0,0.0,0.0,0.0,0.0,0.0,0.0,1.399,1.4275,1.349,1.2909,0.0,1.1726,1.1338,1.1634,1.2233,1.2402,1.2085,1.2564,1.2848,1.2726,1.2616,1.2838,1.3405,1.4381,1.5144,1.5782,1.6534,1.7047,1.7112,1.7226,1.738,1.7551,1.7672,1.7819,1.7981,1.7981,1.8022,1.8079,1.8079,1.8119,1.8176,1.8176,1.8176,1.8176,1.8176,1.8176,1.8168,1.8127,1.833,1.8671,1.8907,1.8435,1.7319,1.5023,1.3854,1.2852,0.946,0.8062,0.7682,0.7977,0.7581,0.6988,0.6714,0.6093,0.5457,0.4251,0.404,0.3823,0.341,0.3412,0.3412,0.3412,0.3412,0.3624,0.3837,0.411,0.3937,0.3502,0.4639,0.4905,0.3811,0.4709,0.4933,0.3814,0.3589,0.3589,0.3589,0.3589,0.3589,0.3589,0.3589,0.3594,0.3604,0.3607,0.3636,0.3699,0.3667,0.3677,0.373,0.3677,0.3645,0.3636,0.3614,0.36]}]]